[[{"header":{"parameterUnit":"m.s-1","parameterCategory":1,"la1":30.6,"la2":29.2853,"lo1":-89.7004,"lo2":-87.6739,"dy":0.0162,"dx":0.0183,"nx":112,"ny":82,"refTime":"2026-05-11T12:00:00:Z","depth":0,"parameterNumber":2,"parameterNumberName":"U-component_of_WINDS"},"data":[0.0,0.0,0.0,0.0,0.0,0.0,0.0,0.0,0.0,0.0,0.0,0.0,0.0,0.0,0.0,0.0,0.0,0.0,0.0,0.0,0.0,0.0,0.0,0.0,0.0,0.0,0.0,0.0,0.0,0.0,0.0,0.0,0.0,0.0,0.0,0.0,0.0,0.0,0.0,0.0,0.0,0.0,0.0,0.0,0.0,0.0,0.0,0.0,0.0,0.0,0.0,0.0,0.0,0.0,0.0,0.0,0.0,0.0,0.0,0.0,0.0,0.0,0.0,0.0,0.0,0.0,0.0,0.0,0.0,0.0,0.0,0.0,0.0,0.0,0.0,0.0,0.0,0.0,0.0,0.0,0.0,0.0,0.0,0.0,0.0,0.0,0.0,0.0,0.0,0.0,0.0,3.6074,3.9184,4.1393,4.181,4.0715,3.8778,3.585,0.0,0.0,0.0,0.0,0.0,0.0,0.0,0.0,0.0,0.0,0.0,0.0,0.0,0.0,0.0,0.0,0.0,0.0,0.0,0.0,0.0,0.0,0.0,0.0,0.0,0.0,0.0,0.0,0.0,0.0,0.0,0.0,0.0,0.0,0.0,0.0,0.0,0.0,0.0,0.0,0.0,0.0,0.0,0.0,0.0,0.0,0.0,0.0,0.0,0.0,0.0,0.0,0.0,0.0,0.0,0.0,0.0,0.0,0.0,0.0,0.0,0.0,0.0,0.0,0.0,0.0,0.0,0.0,0.0,0.0,0.0,0.0,0.0,0.0,0.0,0.0,0.0,0.0,0.0,0.0,0.0,0.0,0.0,0.0,0.0,0.0,0.0,0.0,0.0,0.0,0.0,0.0,0.0,0.0,0.0,0.0,0.0,0.0,0.0,0.0,0.0,0.0,0.0,0.0,3.65,3.9108,4.0534,4.0756,3.9469,3.9751,3.7833,3.2727,0.0,0.0,0.0,0.0,0.0,0.0,0.0,0.0,0.0,0.0,0.0,0.0,0.0,0.0,0.0,0.0,0.0,0.0,0.0,0.0,0.0,0.0,0.0,0.0,0.0,0.0,0.0,0.0,0.0,0.0,0.0,0.0,0.0,0.0,0.0,0.0,0.0,0.0,0.0,0.0,0.0,0.0,0.0,0.0,0.0,0.0,0.0,0.0,0.0,0.0,0.0,0.0,0.0,0.0,0.0,0.0,0.0,0.0,0.0,0.0,0.0,0.0,0.0,0.0,0.0,0.0,0.0,0.0,0.0,0.0,0.0,0.0,0.0,0.0,0.0,0.0,0.0,0.0,0.0,0.0,0.0,0.0,0.0,0.0,0.0,0.0,0.0,0.0,0.0,0.0,0.0,0.0,0.0,0.0,0.0,0.0,0.0,0.0,0.0,0.0,0.0,0.0,0.0,3.6137,3.775,4.05,4.0644,4.007,3.8897,3.8705,3.6975,3.3071,3.1068,0.0,0.0,0.0,0.0,0.0,0.0,0.0,0.0,0.0,0.0,0.0,0.0,0.0,0.0,0.0,0.0,0.0,0.0,0.0,0.0,0.0,0.0,0.0,0.0,0.0,0.0,0.0,0.0,0.0,0.0,0.0,0.0,0.0,0.0,0.0,0.0,0.0,0.0,0.0,0.0,0.0,0.0,0.0,0.0,0.0,0.0,0.0,0.0,0.0,0.0,0.0,0.0,0.0,0.0,0.0,0.0,0.0,0.0,0.0,0.0,0.0,0.0,0.0,0.0,0.0,0.0,0.0,0.0,0.0,0.0,0.0,0.0,0.0,0.0,0.0,0.0,0.0,0.0,0.0,0.0,0.0,0.0,0.0,0.0,0.0,0.0,0.0,0.0,0.0,0.0,0.0,0.0,0.0,0.0,0.0,0.0,0.0,0.0,0.0,0.0,0.0,0.0,3.8161,3.9339,4.1187,4.0661,3.9892,3.9121,3.7947,3.6102,3.34,3.0015,0.0,0.0,0.0,0.0,0.0,0.0,0.0,0.0,0.0,0.0,0.0,0.0,0.0,0.0,0.0,0.0,0.0,0.0,0.0,0.0,0.0,0.0,0.0,0.0,0.0,0.0,0.0,0.0,0.0,0.0,0.0,0.0,0.0,0.0,0.0,0.0,0.0,0.0,0.0,0.0,0.0,0.0,0.0,0.0,0.0,0.0,0.0,0.0,0.0,0.0,0.0,0.0,0.0,0.0,0.0,0.0,0.0,0.0,0.0,0.0,0.0,0.0,0.0,0.0,0.0,0.0,0.0,0.0,0.0,0.0,0.0,0.0,0.0,0.0,0.0,0.0,0.0,0.0,0.0,0.0,0.0,0.0,0.0,0.0,0.0,0.0,0.0,0.0,0.0,0.0,0.0,0.0,0.0,0.0,0.0,0.0,0.0,0.0,0.0,0.0,0.0,0.0,3.9028,4.1318,4.1317,4.119,4.0764,3.9911,3.7785,3.5058,3.1785,2.83,0.0,0.0,0.0,0.0,0.0,0.0,0.0,0.0,0.0,0.0,0.0,0.0,0.0,0.0,0.0,0.0,0.0,0.0,0.0,0.0,0.0,0.0,0.0,0.0,0.0,0.0,0.0,0.0,0.0,0.0,0.0,0.0,0.0,0.0,0.0,0.0,0.0,0.0,0.0,0.0,0.0,0.0,0.0,0.0,0.0,0.0,0.0,0.0,0.0,0.0,0.0,0.0,0.0,0.0,0.0,0.0,0.0,0.0,0.0,0.0,0.0,0.0,0.0,0.0,0.0,0.0,0.0,0.0,0.0,0.0,0.0,0.0,0.0,0.0,0.0,0.0,0.0,0.0,0.0,0.0,0.0,0.0,0.0,0.0,0.0,0.0,0.0,0.0,0.0,0.0,0.0,0.0,0.0,0.0,0.0,0.0,0.0,0.0,0.0,0.0,0.0,0.0,3.8812,4.0957,0.0,4.1484,4.0772,3.9902,3.9147,3.6358,3.0866,0.0,0.0,0.0,0.0,0.0,0.0,0.0,0.0,0.0,0.0,0.0,0.0,0.0,0.0,0.0,0.0,0.0,0.0,0.0,0.0,0.0,0.0,0.0,0.0,0.0,0.0,0.0,0.0,0.0,0.0,0.0,0.0,0.0,0.0,0.0,0.0,0.0,0.0,0.0,0.0,0.0,0.0,0.0,0.0,0.0,0.0,0.0,0.0,0.0,0.0,0.0,0.0,0.0,0.0,0.0,0.0,0.0,0.0,0.0,0.0,0.0,0.0,0.0,0.0,0.0,0.0,0.0,0.0,0.0,0.0,0.0,0.0,0.0,0.0,0.0,0.0,0.0,0.0,0.0,0.0,0.0,0.0,0.0,0.0,0.0,0.0,0.0,0.0,0.0,0.0,0.0,0.0,0.0,0.0,0.0,0.0,0.0,0.0,0.0,0.0,0.0,0.0,3.631,3.8994,4.1157,0.0,4.1499,4.0886,4.028,3.968,3.6911,3.1215,0.0,0.0,0.0,0.0,0.0,0.0,0.0,0.0,0.0,0.0,0.0,0.0,0.0,0.0,0.0,0.0,0.0,0.0,0.0,0.0,0.0,0.0,0.0,0.0,0.0,0.0,0.0,0.0,0.0,0.0,0.0,0.0,0.0,0.0,0.0,0.0,0.0,0.0,0.0,0.0,0.0,0.0,0.0,0.0,0.0,0.0,0.0,0.0,0.0,0.0,0.0,0.0,0.0,0.0,0.0,0.0,0.0,0.0,0.0,0.0,0.0,0.0,0.0,0.0,0.0,0.0,0.0,0.0,0.0,0.0,0.0,0.0,0.0,0.0,0.0,0.0,0.0,0.0,0.0,0.0,0.0,0.0,0.0,0.0,0.0,0.0,0.0,0.0,0.0,0.0,0.0,0.0,0.0,0.0,0.0,0.0,0.0,0.0,0.0,0.0,0.0,0.0,3.5689,3.9733,4.2288,4.1326,4.1203,4.12,4.12,3.908,3.6311,0.0,0.0,0.0,0.0,0.0,0.0,0.0,0.0,0.0,0.0,0.0,0.0,0.0,0.0,0.0,0.0,0.0,0.0,0.0,0.0,0.0,0.0,0.0,0.0,0.0,0.0,0.0,0.0,0.0,0.0,0.0,0.0,0.0,0.0,0.0,0.0,0.0,0.0,0.0,0.0,0.0,0.0,0.0,0.0,0.0,0.0,0.0,0.0,0.0,0.0,0.0,0.0,0.0,0.0,0.0,0.0,0.0,0.0,0.0,0.0,0.0,0.0,0.0,0.0,0.0,0.0,0.0,0.0,0.0,0.0,0.0,0.0,0.0,0.0,0.0,0.0,0.0,0.0,0.0,0.0,0.0,0.0,0.0,0.0,0.0,0.0,0.0,0.0,0.0,0.0,0.0,0.0,0.0,0.0,0.0,0.0,0.0,0.0,0.0,0.0,0.0,0.0,0.0,3.5483,3.8678,4.1014,4.1171,4.1231,4.1271,4.1271,4.0731,3.8435,3.3846,0.0,0.0,0.0,0.0,0.0,0.0,0.0,0.0,0.0,0.0,0.0,0.0,0.0,0.0,0.0,0.0,0.0,0.0,0.0,0.0,0.0,0.0,0.0,0.0,0.0,0.0,0.0,0.0,0.0,0.0,0.0,0.0,0.0,0.0,0.0,0.0,0.0,0.0,0.0,0.0,0.0,0.0,0.0,0.0,0.0,0.0,0.0,0.0,0.0,0.0,0.0,0.0,0.0,0.0,0.0,0.0,0.0,0.0,0.0,0.0,0.0,0.0,0.0,0.0,0.0,0.0,0.0,0.0,0.0,0.0,0.0,0.0,0.0,0.0,0.0,0.0,0.0,0.0,0.0,0.0,0.0,0.0,0.0,0.0,0.0,0.0,0.0,0.0,0.0,0.0,0.0,0.0,0.0,0.0,0.0,0.0,0.0,0.0,0.0,0.0,0.0,0.0,3.5419,3.7977,4.0024,4.0766,4.0557,4.0519,4.0863,4.0673,3.8818,3.4796,0.0,0.0,0.0,0.0,0.0,0.0,0.0,0.0,0.0,0.0,0.0,0.0,0.0,0.0,0.0,0.0,0.0,0.0,0.0,0.0,0.0,0.0,0.0,0.0,0.0,0.0,0.0,0.0,0.0,0.0,0.0,0.0,0.0,0.0,0.0,0.0,0.0,0.0,0.0,0.0,0.0,0.0,0.0,0.0,0.0,0.0,0.0,0.0,0.0,0.0,0.0,0.0,0.0,0.0,0.0,0.0,0.0,0.0,0.0,0.0,0.0,0.0,0.0,0.0,0.0,0.0,0.0,0.0,0.0,0.0,0.0,0.0,0.0,0.0,0.0,0.0,0.0,0.0,0.0,0.0,0.0,0.0,0.0,0.0,0.0,0.0,0.0,0.0,0.0,0.0,0.0,0.0,0.0,0.0,0.0,0.0,0.0,0.0,0.0,0.0,0.0,0.0,3.5272,3.7416,3.922,4.0079,3.9469,3.9354,4.023,3.9561,3.8178,3.5983,0.0,0.0,0.0,0.0,0.0,0.0,0.0,0.0,0.0,0.0,0.0,0.0,0.0,0.0,0.0,0.0,0.0,0.0,0.0,0.0,0.0,0.0,0.0,0.0,0.0,0.0,0.0,0.0,0.0,0.0,0.0,0.0,0.0,0.0,0.0,0.0,0.0,0.0,0.0,0.0,0.0,0.0,0.0,0.0,0.0,0.0,0.0,0.0,0.0,0.0,0.0,0.0,0.0,0.0,0.0,0.0,0.0,0.0,0.0,0.0,2.5277,0.0,0.0,0.0,0.0,0.0,0.0,0.0,0.0,0.0,0.0,0.0,0.0,0.0,0.0,0.0,0.0,0.0,0.0,0.0,0.0,0.0,0.0,0.0,0.0,0.0,0.0,0.0,0.0,0.0,0.0,0.0,0.0,0.0,0.0,0.0,0.0,0.0,0.0,0.0,0.0,0.0,3.3514,3.6188,3.8307,3.9182,3.9069,3.9317,4.0302,3.9578,3.892,3.8513,3.4969,0.0,0.0,0.0,0.0,0.0,0.0,0.0,0.0,0.0,0.0,0.0,0.0,0.0,0.0,0.0,0.0,0.0,0.0,0.0,0.0,0.0,0.0,0.0,0.0,0.0,0.0,0.0,0.0,0.0,0.0,0.0,0.0,0.0,0.0,0.0,0.0,0.0,0.0,0.0,0.0,0.0,0.0,0.0,0.0,0.0,0.0,0.0,0.0,0.0,0.0,0.0,0.0,0.0,0.0,0.0,0.0,0.0,0.0,0.0,0.0,2.7789,0.0,0.0,0.0,0.0,0.0,0.0,0.0,0.0,0.0,0.0,0.0,0.0,0.0,0.0,0.0,0.0,0.0,0.0,0.0,0.0,0.0,0.0,0.0,0.0,0.0,0.0,0.0,0.0,0.0,0.0,0.0,0.0,0.0,0.0,0.0,0.0,0.0,0.0,0.0,0.0,3.3563,3.6362,3.8631,3.9562,3.924,3.9353,4.0403,3.9279,3.86,3.8761,3.5894,0.0,0.0,0.0,0.0,0.0,0.0,0.0,0.0,0.0,0.0,0.0,0.0,0.0,0.0,0.0,0.0,0.0,0.0,0.0,0.0,0.0,0.0,0.0,0.0,0.0,0.0,0.0,0.0,0.0,0.0,0.0,0.0,0.0,0.0,0.0,0.0,0.0,0.0,0.0,0.0,0.0,0.0,0.0,0.0,0.0,0.0,0.0,0.0,0.0,0.0,0.0,0.0,0.0,3.248,3.333,3.4841,3.413,3.413,3.4555,3.308,3.1579,3.013,2.9604,0.0,0.0,0.0,0.0,0.0,0.0,0.0,0.0,0.0,0.0,0.0,0.0,0.0,0.0,0.0,0.0,0.0,0.0,0.0,0.0,0.0,0.0,0.0,0.0,3.4253,3.4443,0.0,0.0,0.0,0.0,0.0,0.0,0.0,0.0,0.0,0.0,0.0,0.0,3.3965,3.6762,3.9013,4.002,3.9449,3.9367,4.0273,3.8858,3.7978,3.8168,3.6593,3.5098,0.0,0.0,0.0,0.0,0.0,0.0,0.0,0.0,0.0,0.0,0.0,0.0,0.0,0.0,0.0,0.0,0.0,0.0,0.0,0.0,0.0,0.0,0.0,0.0,0.0,0.0,0.0,0.0,0.0,0.0,0.0,0.0,2.5922,2.6418,0.0,0.0,0.0,0.0,0.0,0.0,0.0,0.0,0.0,0.0,0.0,0.0,0.0,3.1491,3.2601,3.4421,3.5534,3.5966,3.6825,3.733,3.7572,3.7488,3.7085,3.6451,3.6209,0.0,3.1666,3.1201,0.0,0.0,0.0,0.0,0.0,0.0,0.0,0.0,0.0,0.0,0.0,0.0,0.0,0.0,0.0,0.0,0.0,0.0,0.0,0.0,0.0,0.0,3.2224,3.4311,3.5077,3.546,0.0,3.5257,3.4506,3.3944,3.3791,0.0,0.0,0.0,0.0,0.0,0.0,0.0,3.3068,3.5783,3.8023,3.8918,3.8956,3.9029,3.9369,3.8537,3.8022,3.8117,3.6629,3.5979,3.6394,3.6068,0.0,0.0,0.0,0.0,0.0,0.0,0.0,0.0,0.0,0.0,0.0,0.0,0.0,0.0,0.0,0.0,0.0,0.0,0.0,0.0,0.0,0.0,0.0,0.0,0.0,0.0,0.0,0.0,0.0,2.57,2.6353,2.6356,2.553,2.4975,0.0,0.0,0.0,0.0,0.0,0.0,0.0,0.0,0.0,2.954,3.1846,3.3587,3.4672,3.6183,3.7047,3.7368,3.7878,3.8346,3.8815,3.7887,3.7563,3.7597,3.6518,3.5357,3.4023,3.284,3.2032,3.1483,0.0,0.0,0.0,0.0,2.8025,2.7724,2.8119,2.8535,0.0,2.8373,0.0,0.0,0.0,0.0,0.0,0.0,0.0,0.0,0.0,0.0,3.4181,3.6078,3.6717,3.7045,3.754,3.7518,3.714,0.0,3.6601,3.6239,3.4091,0.0,0.0,0.0,0.0,3.4866,3.4916,3.7238,3.9087,3.9528,3.9661,3.9785,4.002,3.8852,3.8377,3.8967,3.7023,3.6662,3.8462,3.7306,3.5972,0.0,0.0,0.0,0.0,0.0,0.0,0.0,0.0,0.0,0.0,0.0,0.0,0.0,0.0,0.0,0.0,0.0,0.0,0.0,0.0,0.0,0.0,0.0,0.0,0.0,0.0,0.0,0.0,2.6095,2.646,2.6431,2.5994,2.5717,0.0,0.0,0.0,0.0,0.0,0.0,2.7431,2.9403,3.0729,3.1226,3.3599,3.553,3.6837,3.7719,3.8252,3.8464,3.8608,3.9024,3.9631,3.8427,3.8167,3.8504,3.7102,3.6446,3.6242,3.4486,3.3354,3.273,3.1956,3.1093,3.0387,3.0692,3.0333,2.9776,3.0245,3.0784,3.1239,3.0692,0.0,3.1216,3.0054,0.0,0.0,0.0,0.0,3.0607,3.3167,3.4664,3.5864,3.7381,3.8128,3.8489,3.8423,3.8891,3.9063,0.0,3.8809,3.8771,3.6933,0.0,0.0,0.0,0.0,3.6742,3.6782,3.869,4.0058,4.0158,4.027,4.0329,4.0346,3.9247,3.8889,3.9649,3.7727,3.7639,4.0008,3.8478,3.7214,3.6484,0.0,0.0,0.0,0.0,0.0,0.0,0.0,0.0,0.0,0.0,0.0,0.0,0.0,0.0,0.0,0.0,0.0,0.0,0.0,0.0,0.0,0.0,0.0,0.0,0.0,0.0,0.0,0.0,0.0,2.7405,2.7274,0.0,0.0,0.0,0.0,2.8106,2.8268,2.8735,2.9766,3.1148,3.2735,3.4601,3.6042,3.7683,3.9664,3.9766,3.9834,3.9969,4.0136,4.0302,4.0417,4.0349,3.9956,3.9324,3.9238,3.8764,3.784,3.6175,3.5213,3.4746,3.4719,3.3738,3.2321,3.2224,3.1607,3.0794,3.0707,3.0651,3.0576,3.0667,3.0831,3.1049,3.1106,3.0471,0.0,0.0,3.2278,3.2358,3.5366,3.6327,3.6804,3.7853,3.8882,3.9456,3.8879,3.9501,3.9973,0.0,3.9561,3.9421,3.7966,0.0,3.7271,3.5685,3.668,3.7608,3.7548,3.9041,4.0117,4.0098,4.0288,4.0127,3.9436,3.9472,3.9578,3.9691,3.8858,3.9142,4.0877,3.9394,3.8452,3.8272,3.8249,0.0,0.0,0.0,0.0,0.0,0.0,0.0,0.0,0.0,0.0,0.0,0.0,0.0,0.0,0.0,0.0,0.0,0.0,0.0,0.0,0.0,0.0,0.0,0.0,0.0,0.0,0.0,0.0,2.7249,2.6985,0.0,2.7617,2.7389,2.7758,2.8978,2.9556,2.9999,3.0445,3.1804,3.2967,3.376,3.535,3.6622,3.7485,3.8606,3.9211,3.9244,3.9968,4.0288,4.0221,3.9844,3.9504,3.9231,3.869,3.8316,3.8099,3.7002,3.6222,3.5694,3.5214,3.4292,3.3407,3.432,3.3719,3.2505,3.283,3.2911,3.2911,3.3041,3.2959,3.29,3.3516,3.3291,3.316,3.4563,3.4518,3.4431,3.6076,3.7072,3.7853,3.8785,3.982,4.0575,4.048,4.0913,4.1127,4.0497,4.0052,3.9681,3.9375,3.9391,3.9252,3.8689,3.8975,3.9452,4.004,4.0594,4.0998,4.1111,4.1283,4.1075,4.0319,3.9908,3.9441,3.8896,3.8639,3.9004,4.0122,3.9705,3.9101,3.8417,3.7321,3.5545,0.0,0.0,0.0,0.0,0.0,0.0,0.0,0.0,0.0,0.0,0.0,0.0,0.0,0.0,0.0,0.0,0.0,0.0,0.0,0.0,0.0,0.0,0.0,0.0,0.0,0.0,2.7435,2.7566,2.7412,2.7556,2.8196,2.8247,2.8592,2.9483,3.01,3.0493,3.0538,3.1931,3.2966,3.3399,3.487,3.6105,3.7002,3.805,3.8788,3.9194,3.9868,4.0104,4.002,3.9696,3.9525,3.954,3.8999,3.8721,3.8584,3.7849,3.7185,3.6526,3.5405,3.4441,3.3706,3.4366,3.3588,3.2346,3.3066,3.3625,3.397,3.3846,3.3714,3.3727,3.4266,3.4352,3.4533,3.5754,3.615,3.6394,3.7306,3.8321,3.9228,3.9582,4.0519,4.1225,4.0878,4.1451,4.1776,4.0943,4.0532,4.0326,4.0272,4.0344,4.0394,4.0341,4.0252,4.0521,4.1418,4.1513,4.1587,4.1728,4.1855,4.1635,4.0854,3.9824,3.9102,3.8827,3.8593,3.8707,3.922,3.9321,3.8643,3.705,3.5615,3.4271,3.2993,0.0,0.0,0.0,0.0,0.0,0.0,0.0,0.0,0.0,0.0,0.0,0.0,0.0,0.0,0.0,0.0,0.0,0.0,0.0,0.0,0.0,0.0,0.0,2.5745,2.6349,2.7241,2.8377,2.8665,2.8873,2.909,2.9198,2.9412,2.9685,2.9874,3.0049,3.0254,3.1581,3.28,3.3723,3.4822,3.6387,3.8455,3.8255,3.871,3.98,3.9817,3.9833,3.9867,4.0003,4.0154,4.0305,4.0436,4.0089,3.9414,3.8711,3.8047,3.7335,3.5457,3.427,3.3457,3.2325,3.1249,3.0508,3.1427,3.2586,3.3571,3.2918,3.299,3.3328,3.3345,3.36,3.4215,3.5865,3.7076,3.8108,3.9077,4.0151,4.0804,4.0191,4.0945,4.1436,4.0125,4.1154,4.1984,4.065,4.1058,4.138,4.0545,4.0534,4.0588,4.0438,4.043,0.0,4.1506,4.1726,4.1793,4.1813,4.1928,4.1679,4.0865,3.9312,3.8723,3.951,3.8882,3.8434,3.8307,3.8407,3.7135,3.4367,3.3509,3.3031,3.2917,0.0,0.0,0.0,0.0,0.0,0.0,0.0,0.0,0.0,0.0,0.0,0.0,0.0,0.0,0.0,0.0,0.0,0.0,0.0,0.0,0.0,0.0,2.8053,2.7445,2.77,2.8155,2.8653,2.8826,2.8889,2.8858,2.9045,2.9389,2.9864,2.9637,3.0025,3.1302,3.1345,3.195,3.3319,3.4035,3.4813,3.5745,3.6603,3.709,3.7219,3.8224,3.8831,3.8958,3.9486,3.9939,4.0305,4.0238,3.9944,3.9465,3.923,3.8482,3.7396,3.6277,3.5711,3.5405,3.5114,3.4683,3.4301,3.4682,3.5069,3.5419,3.5439,3.5692,3.6063,3.6196,3.6217,3.6339,3.6924,3.7091,3.718,3.7567,3.9141,4.0617,4.051,4.2154,4.3501,4.2697,4.3529,4.399,4.2543,4.2518,4.2251,4.0672,4.1001,4.1273,4.0635,4.1039,0.0,4.1786,4.1855,4.1919,4.2021,4.2044,4.1752,4.0936,4.0532,3.9861,3.8808,3.9744,3.9764,3.8423,3.9087,3.7893,3.4515,3.3554,3.2415,0.0,0.0,0.0,0.0,0.0,0.0,0.0,0.0,0.0,0.0,0.0,0.0,0.0,0.0,0.0,0.0,0.0,0.0,0.0,0.0,0.0,0.0,2.7812,2.9243,2.9343,2.9389,2.9415,2.9454,2.9517,2.9517,2.9454,2.9533,2.9817,3.0478,3.0371,3.059,3.1323,3.1643,3.1925,3.2193,3.3416,3.4208,3.455,3.5718,3.6417,3.6653,3.7523,3.8179,3.8539,3.9052,3.9606,0.0,4.0188,3.9944,3.9483,3.9453,3.8889,0.0,0.0,0.0,0.0,0.0,3.5087,3.5405,3.5457,3.589,3.6381,3.6307,3.6538,3.6914,3.7077,3.7148,3.7229,3.7739,3.8016,3.8271,3.8683,4.0162,4.1574,4.1706,4.2956,4.397,4.3428,4.4072,4.4461,4.3327,4.3453,0.0,4.1851,4.147,4.1202,4.0717,4.1026,4.1498,4.1925,4.2009,4.2066,4.2125,4.217,4.1848,4.1007,4.034,0.0,0.0,0.0,3.8826,3.7371,3.6781,0.0,0.0,0.0,0.0,0.0,0.0,0.0,0.0,3.0484,3.0195,0.0,0.0,0.0,0.0,0.0,0.0,0.0,0.0,0.0,0.0,0.0,0.0,0.0,0.0,0.0,0.0,2.9191,3.0218,3.1244,3.125,3.0964,3.0561,3.0497,3.0466,3.0355,3.0307,3.0559,3.111,3.1373,3.1278,3.0856,0.0,0.0,0.0,0.0,3.4124,3.4421,3.5321,3.6207,3.702,3.7216,3.7618,3.8186,3.8589,3.9226,4.0019,4.0204,4.0044,3.965,3.9603,3.9307,3.8651,3.6872,3.5685,3.4818,3.3791,3.4082,3.4977,3.4955,0.0,0.0,3.6315,3.6381,3.6716,3.6919,3.7139,3.7479,3.8358,3.9268,4.014,4.0966,4.2071,4.296,4.3104,4.346,4.3627,4.3139,4.3728,4.4177,4.3569,4.4026,4.4249,4.3453,4.209,4.1036,4.088,4.0861,4.1137,4.1873,4.2024,4.2053,4.2063,0.0,0.0,4.1084,3.9594,3.8348,3.7461,3.739,3.6941,3.601,3.3687,3.2703,3.3328,3.3461,3.3898,3.4661,3.5559,3.6001,3.5935,3.3555,3.2908,0.0,0.0,0.0,0.0,0.0,0.0,0.0,0.0,0.0,0.0,0.0,0.0,0.0,0.0,0.0,2.8287,2.9888,3.1245,3.2269,3.2825,3.2663,3.1356,3.1116,3.0747,2.9986,3.0588,3.0966,3.0892,3.0767,3.0957,3.1485,3.0927,3.1034,3.2083,3.2782,3.3604,3.4636,3.525,3.5471,3.5361,0.0,0.0,3.6815,3.8006,3.8862,3.9406,3.9934,4.0252,4.0474,4.036,3.9726,3.8782,3.7812,3.6864,3.5989,3.5871,3.5958,3.618,3.6272,3.6646,3.7034,3.7084,3.7399,3.7749,3.8016,3.7971,0.0,3.9046,3.9226,3.9334,4.0271,4.1499,4.2568,4.2745,4.383,4.4652,4.4001,4.463,4.5137,4.4471,4.4418,4.4249,4.3518,4.3105,4.264,4.1931,4.1819,4.1671,4.1199,4.1131,4.1159,4.1237,4.1298,4.126,4.1089,4.0773,4.0231,3.9413,3.8712,3.7923,3.704,3.6509,3.5989,3.5429,3.5457,3.5547,3.5712,3.591,3.5994,3.5992,3.5468,3.5322,0.0,0.0,0.0,0.0,0.0,0.0,0.0,0.0,0.0,0.0,0.0,2.4575,2.5315,0.0,2.8112,2.9804,3.1003,3.2128,3.3173,3.3537,3.3259,3.2106,3.1813,3.1536,3.109,3.1457,3.1713,3.1813,3.2143,3.2319,3.2104,3.2335,3.2436,3.2383,3.3496,3.4129,3.4175,3.502,3.5291,3.5105,3.5532,3.5966,3.6538,3.7313,3.7984,3.8656,3.9355,3.9825,4.0113,4.0255,3.9721,3.879,3.8178,3.7393,3.6568,3.6485,3.6626,3.6748,3.6829,3.7334,3.7947,3.7738,3.8168,3.8852,3.9113,3.915,3.9303,4.033,4.0532,4.065,4.1567,4.2424,4.3187,4.3716,4.4584,4.5163,4.4825,4.5223,4.5555,4.5254,4.4815,4.439,4.406,4.3292,4.2409,4.1587,4.1485,4.1373,4.1003,4.0988,4.1006,4.1052,4.107,4.1111,4.1109,4.0704,4.0116,3.9309,3.8419,3.7558,3.6684,3.7066,3.6894,3.6014,3.6426,3.643,3.6004,3.6005,3.5997,3.6009,3.5991,3.5996,0.0,0.0,0.0,0.0,0.0,0.0,0.0,0.0,2.1998,2.3319,2.4837,2.6168,2.6869,2.8031,2.9497,3.1326,3.201,3.259,3.3579,3.3716,3.3339,3.2408,3.2317,3.2376,3.2317,3.2412,3.2565,3.2787,3.3616,3.3664,3.2689,3.3617,3.3723,3.272,3.4101,3.4583,3.4006,3.4897,3.5291,3.5198,3.5291,3.5702,3.6367,3.6658,3.717,3.7823,3.8687,3.9153,3.9306,3.9552,3.9268,3.8582,3.8035,3.7434,3.6829,3.6626,3.6731,3.7009,3.7066,3.7782,3.8654,3.8114,3.8733,3.9703,3.9926,4.0233,4.0688,4.1688,4.2108,4.2457,4.3367,4.3737,4.4104,4.4839,4.5192,4.5399,4.54,4.5433,4.5475,4.5514,4.4843,4.4221,4.4111,4.2924,4.177,4.1145,4.0945,4.0898,4.0982,4.1052,4.1084,4.1095,4.1096,4.1109,4.1101,4.0316,3.9471,3.8643,3.778,3.6919,3.604,3.6677,3.6719,3.6014,3.6684,3.671,3.5997,3.6007,3.6009,3.5991,3.5996,3.6001,2.3236,2.2951,2.298,2.3163,2.2771,2.2532,0.0,0.0,2.3891,2.5017,2.5557,2.6245,2.7515,2.811,2.9109,3.1389,3.1932,3.2271,3.295,3.3427,3.3163,3.1674,3.2372,3.2788,3.2329,3.2923,3.3224,3.2884,3.3145,3.3258,3.3142,3.2236,3.2331,3.3779,3.3384,3.3807,3.5115,3.5362,3.5291,3.4947,3.5291,3.5496,3.5488,3.6392,3.6898,3.7075,3.8071,3.8505,3.85,3.8183,3.8084,3.8028,3.7266,3.6978,3.6948,3.6829,3.6891,3.7108,3.722,3.763,3.8092,3.807,3.8897,3.9882,3.9989,4.073,4.1706,4.2613,4.3052,4.3439,4.4301,4.4612,4.4732,4.5019,4.5192,4.5339,4.5457,4.4989,4.4569,4.4626,4.3936,4.3125,4.2414,4.2143,4.1983,4.1959,4.1291,4.0868,4.098,4.1023,4.1025,4.1089,4.11,4.1111,4.1096,4.0355,3.9528,3.8651,3.7773,3.6914,3.6035,3.6094,3.6091,3.6004,3.6098,3.6095,3.5997,3.6001,3.6007,3.5996,3.5996,3.6009,2.4817,2.4477,2.4291,0.0,2.3392,2.3275,2.344,2.4035,2.4838,2.5923,2.6749,2.7612,2.8793,2.9242,3.0043,0.0,3.19,3.183,3.2658,3.2492,3.2082,3.1671,3.195,3.2244,3.2488,3.3044,3.3161,3.2592,3.3515,3.3592,3.2463,3.2762,3.3112,3.3472,3.3172,3.3567,3.4638,3.4655,3.481,3.5135,3.5245,3.5291,3.5308,3.5811,3.6349,3.6922,3.7652,3.8136,3.847,3.8061,3.7934,3.7947,3.7224,3.697,3.7048,3.693,3.7087,3.737,3.8002,3.8492,3.8966,3.9574,4.0189,4.0799,4.1447,4.1999,4.2592,4.3558,4.397,4.4252,4.4617,4.4815,4.4943,4.508,4.5192,4.5204,4.4767,4.4515,4.4218,4.3763,4.2992,4.2298,4.1991,4.1523,4.1202,4.128,4.1028,4.0868,4.0926,4.0968,4.1006,4.1039,4.0622,4.034,4.0345,4.0032,3.927,3.7934,3.794,3.7395,3.6066,3.6491,3.6518,3.6009,3.6504,3.6504,3.6005,3.5994,3.5994,3.5993,3.5996,3.6003,2.5979,0.0,0.0,2.4307,2.4098,2.4138,2.4232,2.492,2.579,2.6876,2.7789,2.867,2.9661,2.9984,3.0625,3.2067,3.1731,3.1417,3.1918,3.1677,3.1404,3.1184,3.1454,3.1848,3.2241,3.2933,3.3221,3.2941,3.4003,3.3964,3.2359,3.3206,3.3528,3.3081,3.2804,3.3011,3.3762,3.3889,3.421,3.4788,3.4941,3.5105,3.5245,3.5475,3.5943,3.6616,3.7042,3.7543,3.8,3.7788,3.7726,3.7714,3.7255,3.7126,3.7185,3.7164,3.7317,3.7611,3.8384,3.8867,3.9352,4.0101,4.0611,4.1083,4.2161,4.2683,4.3154,4.4139,4.4551,4.4693,4.4719,4.4675,4.4668,4.4715,4.4655,4.4437,4.3847,4.3656,4.3421,4.2821,4.203,4.145,4.1513,4.1003,4.0621,4.0675,4.0761,4.0867,4.0888,4.0932,4.0882,4.0669,4.0142,3.99,4.014,3.9721,3.8911,3.7702,3.7959,3.7513,3.6063,3.6618,3.6649,3.5981,3.6592,3.6606,3.5968,3.5974,3.5971,3.5964,3.5996,3.6007,2.5751,0.0,2.471,2.5003,2.5089,2.5329,2.6065,2.6558,2.7144,2.8155,2.8431,2.8795,2.9793,3.0011,3.0256,3.1139,3.1342,3.1091,3.0196,3.1355,3.1583,2.9723,3.1106,3.1976,0.0,3.255,3.3679,3.4382,3.448,3.4201,3.3571,3.2895,3.2668,3.2917,3.2087,3.2011,3.2757,3.3333,3.3557,3.3448,3.4457,3.4994,3.5135,3.5594,3.579,3.5851,3.6165,3.6437,3.6572,3.6904,3.7083,3.7143,3.7259,3.7334,3.7429,3.754,3.7649,3.7703,3.7933,3.8223,3.8469,3.87,3.9399,4.0325,4.1308,4.2265,4.3193,4.4215,4.4605,4.4693,4.477,4.4278,4.3763,4.3833,4.3316,4.2792,4.2813,4.2278,4.1757,4.1738,4.1082,4.054,4.054,4.0581,4.0603,4.0607,4.0655,4.075,4.0877,4.0897,4.061,3.9816,3.9786,4.0142,4.0998,3.952,3.8514,3.8467,3.7753,3.6934,3.6044,3.6025,3.6001,3.589,3.5929,3.5924,3.5889,3.5909,3.5892,3.5896,3.5964,3.5996,2.6388,0.0,2.5134,2.5821,2.606,2.6273,2.683,2.7198,2.7533,2.797,2.8076,2.8432,2.954,2.9733,2.9992,3.0749,3.0474,3.0103,2.9781,2.972,2.9611,2.9435,2.984,0.0,0.0,0.0,0.0,3.259,3.3452,3.3406,3.2142,3.2629,3.252,3.1482,3.134,3.1368,3.1642,3.2455,3.311,3.3557,3.4535,3.5152,3.54,3.5656,3.5905,3.6079,3.6419,3.6667,3.6869,3.7105,3.7241,3.7299,3.7429,3.754,3.7631,3.781,3.8275,3.8921,3.955,3.961,3.9626,4.1484,4.1557,4.1206,4.2869,4.3258,4.3315,4.4298,4.4282,4.3995,4.4001,4.3426,4.2853,4.2917,4.2756,4.2438,4.1968,4.1705,4.1399,4.0806,4.0553,4.0449,4.0502,4.0511,4.0569,4.0654,4.0236,3.9929,4.0023,4.0043,3.973,3.891,3.8855,3.8773,3.8536,3.7976,3.7415,3.6863,3.7082,3.7102,3.6805,3.6241,3.6192,3.6752,3.6138,3.5853,3.5898,3.5866,3.5864,3.5899,3.5912,3.5923,2.6398,2.5977,2.5754,2.6292,2.6778,2.7244,2.7422,2.7679,2.7918,2.7816,2.8012,2.8432,2.9332,2.9467,2.9627,3.0138,2.9681,2.9249,2.9308,2.8976,2.8934,2.9357,2.9516,2.982,0.0,0.0,0.0,3.1459,3.2711,3.2859,3.1391,3.2141,3.203,3.073,3.0881,3.0956,3.0969,3.2128,3.3165,3.4093,3.4761,3.5228,3.552,3.5773,3.5975,3.6251,3.6585,3.6869,3.7069,3.7354,3.7522,3.7685,3.8097,3.8167,3.8072,3.8787,3.9304,3.9714,4.0224,4.0343,4.0598,4.2387,4.2292,4.1735,4.3349,4.3549,4.3436,4.438,4.4334,4.3964,4.3705,4.301,4.2295,4.2056,4.1775,4.1437,4.0967,4.0957,4.0826,4.0292,4.0271,4.0362,4.0432,4.0444,4.0408,4.0193,3.949,3.8992,3.9088,3.9111,3.8801,3.7983,3.7918,3.7858,3.7673,3.7113,3.6665,3.6441,3.6611,3.6743,3.6737,3.617,3.6138,3.6683,3.6117,3.5823,3.5869,3.5818,3.5813,3.5853,3.5885,3.5907,2.5888,2.6271,2.6418,2.6468,2.7356,2.8097,2.7868,2.8101,2.8241,2.785,2.8299,2.8889,0.0,0.0,2.9255,2.9409,2.8996,2.8649,2.8665,2.9059,2.9326,0.0,0.0,0.0,0.0,0.0,0.0,3.1052,0.0,3.2498,3.1469,3.1533,3.1342,3.0683,3.0698,3.0712,3.0647,3.2207,3.3631,3.4899,3.5088,3.5321,3.5622,3.5888,3.6131,3.6343,3.669,3.7009,3.7317,3.7667,3.8005,3.8389,3.9252,3.9221,3.8907,4.0459,4.0648,4.013,4.0073,4.0583,4.1304,4.1514,4.1646,4.1921,4.2809,4.3147,4.3434,4.4414,4.465,4.4436,4.3791,4.2896,4.1959,4.1203,4.0431,3.9889,3.9889,3.9994,4.0098,4.0176,4.0196,4.0215,4.027,4.0358,4.0137,3.9369,3.8527,3.8015,3.8117,3.816,3.7876,3.7017,3.7067,3.7488,3.8305,3.6908,3.6324,3.7083,3.6364,3.5918,3.5963,3.5864,3.583,3.5862,3.5818,3.5793,3.5794,3.5801,3.5795,3.5801,3.5869,3.5919,2.6572,2.6779,2.6937,2.7162,2.7666,2.8197,2.8777,2.9059,2.9335,2.9858,2.9857,2.9817,0.0,0.0,0.0,2.9532,2.925,0.0,2.8598,2.8519,0.0,2.8236,0.0,2.9058,2.8732,2.9556,0.0,0.0,3.0794,3.1424,3.132,3.1935,3.1626,3.0307,3.0895,3.0783,2.9836,3.171,3.3515,3.5148,3.556,3.58,3.5932,3.6301,3.6468,3.6533,3.7052,3.7788,3.8726,3.8989,3.9951,4.1192,4.0919,4.1125,4.1538,4.1403,4.165,4.2014,4.2106,4.2205,4.231,4.244,4.2512,4.2779,4.3745,4.324,4.2645,4.4244,4.3372,4.2082,4.255,4.152,4.0297,4.0024,3.9863,3.9735,3.9689,3.9781,3.9911,3.9954,4.0098,4.0215,4.0215,4.0289,4.0266,4.0055,3.8769,3.7679,3.7224,3.7781,3.7635,3.6203,3.7256,3.7656,3.664,3.6172,3.6016,3.6216,3.6031,3.6183,3.6839,3.6184,3.6073,3.6675,3.6018,3.5678,3.5728,3.5679,3.5698,3.5795,3.5826,3.5855,2.703,2.7446,2.7649,2.7963,2.8201,2.8467,2.8666,2.8817,2.9004,2.9307,2.9641,0.0,2.9998,2.951,0.0,0.0,0.0,0.0,2.839,2.8283,2.8244,0.0,2.8776,0.0,2.8716,2.954,3.0038,0.0,3.0623,3.0924,3.0633,3.1166,3.1019,3.0019,3.0511,3.0895,3.1142,3.2354,3.3786,3.5379,3.5756,3.6207,3.6775,3.7119,3.7539,3.8078,0.0,3.9463,4.0536,4.0437,4.1267,4.2613,4.266,4.2757,4.2917,4.3197,4.3364,4.3401,4.3029,4.2869,4.2895,4.3316,4.3517,4.365,4.4252,4.3548,4.2829,4.3849,4.2875,4.1542,4.1685,4.0952,4.0088,3.9669,3.9551,3.957,3.9551,3.9623,3.9735,3.9826,3.9996,4.0118,4.0118,4.0177,4.0101,3.9774,3.8623,3.7555,3.6848,3.6909,3.6693,3.5834,3.667,3.693,3.5982,3.5899,3.5894,3.5899,3.5859,3.6078,3.6561,3.6056,3.6135,3.6939,3.6461,3.6419,3.6787,3.6792,3.6639,3.6378,3.6793,3.6606,2.7353,2.8116,2.8427,2.847,2.8609,2.8604,2.8024,2.8057,2.8211,2.8208,0.0,2.9704,2.9971,2.9248,2.87,2.89,0.0,2.7474,2.8419,2.847,2.8575,2.895,2.9281,2.9321,2.8951,2.9685,3.0471,3.1083,3.1254,3.0972,3.0226,3.037,3.037,3.0047,3.0147,3.1102,3.3061,3.3381,3.4326,3.5785,3.6024,3.6741,3.7972,3.8251,3.8968,3.9978,4.0402,0.0,4.2207,4.1816,4.2331,4.3465,4.4158,4.4177,4.3941,4.5058,4.5011,4.427,4.3285,4.2957,4.309,4.3743,4.4007,4.4064,4.4064,4.3595,4.3081,4.3194,4.2561,4.1725,4.1122,4.0798,4.0415,3.9646,3.9427,3.942,3.9452,3.9526,3.9642,3.9758,3.987,3.9916,3.9842,3.9865,3.966,3.8899,3.811,3.737,3.6752,3.6093,3.572,3.5785,3.5954,3.6014,3.5904,3.5894,3.5908,3.5908,3.585,3.587,3.5959,3.5883,3.6228,3.7058,3.7127,3.7483,3.8201,3.8257,3.7946,3.7296,3.8001,3.7558,2.739,2.8165,2.8496,2.7556,2.7547,2.7748,2.7623,2.8154,0.0,0.0,3.1038,3.1356,3.2921,3.1843,3.0978,3.1951,3.1144,3.0282,2.9938,2.9778,2.937,0.0,0.0,0.0,0.0,0.0,0.0,0.0,0.0,3.1974,3.218,3.2382,3.2176,3.147,3.1126,3.1404,3.2449,3.3623,3.5148,3.6945,3.7436,3.8205,3.92,3.9679,4.0019,4.0239,4.0787,0.0,4.2025,4.2623,4.3922,4.5425,4.4874,4.5367,4.6318,4.5199,4.4608,4.427,4.3437,4.3052,4.2835,4.2313,4.2202,4.2268,4.2323,4.1788,4.1334,4.2114,4.118,4.0115,4.0691,4.0239,3.9567,3.9301,3.9328,3.9354,3.9264,3.9401,3.957,3.9698,3.9684,3.9486,3.8934,3.8864,3.8622,3.787,3.709,3.6552,3.6534,3.6659,3.6471,3.5795,3.6429,3.6631,3.595,3.5903,3.5903,3.5891,3.5885,3.6153,3.6764,3.6734,3.7096,3.7967,3.7932,3.8009,3.8199,3.8205,3.819,3.8155,3.7653,3.7279,2.8345,2.8239,2.785,2.7441,2.6963,2.6651,2.7074,0.0,0.0,0.0,3.0534,3.0997,3.2071,3.1221,0.0,3.1762,3.1118,3.0382,3.0167,3.008,0.0,2.9014,2.9713,0.0,0.0,0.0,0.0,0.0,0.0,3.2752,3.2364,3.2302,3.2144,3.1821,3.1883,3.2464,3.3483,3.4381,3.5803,3.7753,3.8081,3.9014,4.0442,4.0809,4.1306,4.1886,4.2371,0.0,4.3716,4.383,4.4664,4.579,4.5386,4.5688,4.628,4.5387,4.4767,4.4194,4.3274,4.2329,4.1423,4.1004,4.1248,4.1716,4.1726,4.1166,4.0653,4.1135,4.0341,3.9447,3.9848,3.9309,3.8681,3.9027,3.9175,3.9248,3.9156,3.9309,3.9333,3.9019,3.8973,3.8738,3.8061,3.7953,3.7883,3.7624,3.688,3.6415,3.6584,3.6382,3.6091,3.5746,3.6168,3.632,3.5928,3.5908,3.5894,3.5899,3.6192,3.658,3.7025,3.7298,3.7861,3.8813,3.882,3.9076,3.9538,3.9577,3.941,3.9085,3.9184,3.8512,2.8982,2.8083,2.6947,2.7077,2.6412,2.586,2.6399,2.6881,0.0,0.0,2.9621,3.0314,3.1008,3.0547,3.0337,0.0,3.0935,3.045,3.0149,3.0434,3.0386,0.0,3.0482,0.0,3.0408,0.0,0.0,0.0,0.0,0.0,3.2575,3.2255,3.2141,3.2283,3.2833,3.3768,3.5018,3.5613,3.6904,3.8925,3.9046,4.0009,4.1695,4.1884,4.2468,4.3373,4.3749,0.0,0.0,4.4617,4.4899,4.55,4.5275,4.5256,4.534,4.4867,4.4266,4.3506,4.2495,4.1225,4.0037,3.9749,4.0277,4.1022,4.1051,4.0606,4.0123,4.0161,3.9547,3.8906,3.9091,3.8479,3.7979,3.8571,3.8646,3.8581,3.8608,3.8753,3.8696,3.8145,3.808,3.7886,3.7152,3.7043,3.7068,3.7091,3.6517,3.6148,3.6285,3.5806,3.5489,3.5593,3.5929,3.6086,3.5903,3.6064,3.6084,3.585,3.6231,3.6679,3.711,3.7596,3.8296,3.9229,3.9393,3.982,4.0541,4.0597,4.0404,3.9994,4.0554,3.9758,2.8194,2.7195,2.5897,2.5371,2.5449,2.5679,2.573,0.0,0.0,2.911,2.9639,3.0375,3.2188,3.1961,3.1686,3.227,0.0,3.2414,3.0306,3.171,3.1934,2.9093,0.0,0.0,2.9946,3.084,0.0,0.0,0.0,0.0,3.4267,3.3961,3.381,3.3868,3.431,3.5179,3.6499,3.7496,3.9039,4.1035,4.1209,4.1884,4.2958,4.3123,4.3355,4.3597,4.386,0.0,0.0,4.4223,4.4651,4.4802,4.389,4.3896,4.425,4.2707,4.1901,4.1447,4.056,4.0018,3.9585,3.8613,3.8674,3.9161,3.9201,3.9192,3.9118,3.9147,3.8526,3.8007,3.8736,3.8272,3.7671,3.7802,3.7359,3.6935,3.6987,3.7082,3.7162,3.7188,3.7164,3.6925,3.6236,3.6066,3.5843,3.5247,3.5097,3.504,3.5059,3.5162,3.5254,3.5345,3.6327,3.6686,3.597,3.6638,3.6664,3.5679,3.5508,3.5974,3.7128,3.7532,3.8041,3.876,3.9201,3.9514,3.9702,3.9713,4.0129,4.087,4.0228,3.979,2.8228,2.6374,2.4368,2.4389,2.3996,2.4019,2.5508,0.0,2.7055,2.914,2.9899,3.0481,3.1483,3.1474,3.1408,3.1715,3.1978,3.1854,3.1149,3.1662,3.1709,3.0464,3.1356,0.0,0.0,0.0,0.0,0.0,0.0,0.0,3.4785,3.5157,3.5659,3.6434,3.6945,3.7683,3.8606,3.9254,4.029,4.1724,4.1814,4.2359,4.3287,4.3359,4.3446,4.3548,4.3767,0.0,0.0,4.3903,4.3802,4.3171,4.2997,4.2746,4.2396,4.1644,4.0966,4.0317,3.9877,3.8998,3.7976,3.7486,3.7428,3.7681,3.8218,3.8396,3.8337,3.8016,3.7649,3.7374,3.725,3.6916,3.6509,3.6072,3.6223,3.6482,3.6491,3.6626,3.6614,3.6216,3.6147,3.5956,3.5327,3.5237,3.5147,3.4945,3.4927,3.4964,3.502,3.5126,3.5226,3.5289,3.5835,3.6077,3.5793,3.5997,3.5931,3.5505,3.6241,3.6723,3.6834,3.7749,3.8172,3.7978,3.8494,3.8759,3.8805,3.8973,3.9282,3.9707,3.8782,3.8252,2.8217,2.6249,2.4104,2.4289,2.3846,2.3861,0.0,2.6411,2.7101,2.9191,3.0017,3.0459,3.0855,3.0975,3.0948,3.0843,3.0991,3.105,3.1085,3.1278,3.1405,0.0,0.0,0.0,0.0,0.0,0.0,0.0,0.0,0.0,3.603,3.6801,3.7428,3.7866,3.8695,3.9529,4.0334,4.0763,4.1433,4.2393,4.2463,4.2809,4.3394,4.3411,4.3334,4.3251,4.3642,0.0,0.0,4.3349,4.2894,4.1707,4.1872,4.149,4.078,4.0432,3.9685,3.8879,3.8712,3.7672,3.6384,3.6249,3.6094,3.6078,3.6773,3.7253,3.7408,3.6798,3.6644,3.6495,3.5751,3.5581,3.5423,3.4859,3.5151,3.5522,3.5522,3.5671,3.5699,3.5188,3.515,3.5082,3.4717,3.4706,3.4769,3.4869,3.4889,3.4946,3.502,3.5302,3.5393,3.5231,3.5605,3.5797,3.5689,3.5804,3.572,3.5277,3.6412,3.6761,3.6044,3.7236,3.7532,3.6668,3.7152,3.757,3.7862,3.7756,3.8041,3.8697,3.7863,3.7424,2.8111,2.6987,2.5792,2.5295,2.5507,2.6086,2.6899,2.7303,2.7917,2.938,2.9989,3.0316,3.0651,3.0855,3.0699,2.9876,3.0344,3.0539,2.973,3.0637,3.1454,0.0,0.0,0.0,0.0,0.0,0.0,0.0,0.0,0.0,3.8474,3.925,3.9029,3.7629,3.8913,4.0174,4.1351,4.1922,4.2606,4.3376,4.3513,4.3532,4.3394,4.3463,4.314,4.2553,0.0,0.0,0.0,4.238,4.2034,4.0685,4.028,3.9939,3.9607,3.8757,3.7715,3.6728,3.6644,3.5917,3.4996,3.4815,3.4521,3.4241,3.4486,3.5474,3.6324,3.5484,3.5339,3.5262,3.4501,3.4424,3.4546,3.4582,3.416,3.3735,3.3735,3.3879,3.4042,3.4117,3.4221,3.4358,3.4473,3.4561,3.4645,3.4788,3.4747,3.4747,3.4887,3.5607,3.5817,3.5077,3.5885,3.6247,3.5654,3.6513,3.6451,3.4999,3.5532,3.5518,3.4659,3.5726,3.579,3.4649,3.5089,3.5814,3.6798,3.5807,3.6346,3.8281,3.7808,3.7881,2.7463,2.6242,2.5052,2.5222,2.5108,2.543,2.7062,2.7391,2.7735,2.939,2.9989,3.0316,3.0699,3.0716,3.0452,2.98,2.9923,0.0,0.0,0.0,0.0,3.2022,3.2138,0.0,0.0,0.0,0.0,0.0,0.0,0.0,3.8693,3.9652,4.0246,4.0385,4.1091,4.1805,4.2538,4.2759,4.3049,4.3394,4.3446,4.3393,4.3232,4.2809,4.2493,0.0,0.0,0.0,0.0,4.1783,4.1156,3.9171,3.9634,3.9319,3.8507,3.7561,3.6874,3.6345,3.5722,3.4694,3.3611,3.3387,3.3252,3.2934,3.2111,3.3283,3.483,3.427,3.3703,3.3243,3.3062,3.2922,3.273,3.2249,3.237,3.2488,3.1969,3.2442,3.2973,3.3082,3.327,3.3533,3.3733,3.3891,3.4043,3.4221,3.4825,3.5296,3.5428,3.6295,3.6856,3.6651,3.6996,3.7015,3.6414,3.6562,3.6743,3.6859,3.688,3.6419,3.5469,3.5328,3.4614,3.3184,3.3575,3.3841,3.3921,3.3702,3.3487,3.3229,3.2535,3.2177,2.7506,2.6832,2.6049,2.627,2.6172,2.641,2.7807,2.7982,2.8123,2.9231,2.9583,2.9779,3.0161,2.9667,2.9284,2.9615,2.9267,2.9332,0.0,0.0,0.0,0.0,0.0,0.0,0.0,0.0,0.0,0.0,0.0,0.0,3.9391,4.0436,4.1343,4.2008,4.2374,4.2727,4.3104,4.3251,4.3286,4.3287,4.3048,4.2848,4.2614,4.1973,4.1546,0.0,0.0,0.0,0.0,4.0774,3.9915,3.7679,3.8401,3.802,3.6994,3.6305,3.5687,3.5119,3.4534,3.3488,3.2366,3.2064,3.1692,3.1241,3.029,3.1274,3.2718,3.2599,3.2152,3.1771,3.1826,3.1897,3.1704,3.09,3.1007,3.1218,3.0939,3.129,3.1723,3.209,3.2426,3.2684,3.2746,3.3147,3.3526,3.3814,3.4659,3.5358,3.5636,3.6628,3.7229,3.7088,3.7553,3.7738,3.7439,3.7179,3.7009,3.6969,3.749,3.6613,3.3979,3.3882,3.28,3.0452,3.0316,3.0267,3.0141,2.9232,2.8351,2.7448,2.569,2.4977,0.0,2.8297,2.8277,2.8101,2.8271,2.8571,2.8904,2.8951,0.0,2.9085,2.8981,2.9023,2.9297,2.8133,2.7689,2.9523,2.8592,2.8558,0.0,0.0,0.0,0.0,0.0,0.0,0.0,0.0,0.0,0.0,0.0,0.0,4.0489,4.151,4.2269,4.2609,4.2824,4.2957,4.3014,4.3231,4.3212,4.2923,4.2338,4.1903,4.1596,4.0959,4.0361,0.0,0.0,0.0,0.0,3.9375,3.8501,3.639,3.6843,3.6363,3.5413,3.5066,3.4287,3.3331,3.3097,3.2297,3.1295,3.0697,2.9982,2.9281,2.8963,2.9548,3.0352,3.0608,3.0714,3.0801,3.0847,3.1133,3.1116,3.0153,2.9782,2.977,3.0235,3.0137,3.0179,3.1018,3.1472,3.1742,3.1689,3.237,3.3073,3.3489,3.4335,3.5073,3.5579,3.6626,3.7158,3.6702,3.7561,3.8296,3.8575,3.8207,3.7349,3.5901,3.7341,3.5966,3.0888,3.1477,3.0231,2.6681,2.5662,2.526,2.5426,2.279,2.1394,2.1126,1.793,1.6916,2.7454,0.0,2.8233,2.8431,2.8678,2.9014,0.0,2.956,2.9673,2.9874,0.0,3.0011,3.0062,2.9062,2.8818,3.0582,2.9839,2.9398,3.0402,0.0,0.0,0.0,0.0,0.0,0.0,0.0,0.0,0.0,0.0,4.1111,4.1437,4.2038,4.2472,4.2745,4.2936,4.2759,4.2196,4.2141,4.185,4.1356,4.098,4.08,4.0763,3.9931,3.953,0.0,0.0,0.0,3.7701,3.842,3.7917,3.6809,3.718,3.6629,3.5629,3.4844,3.3845,3.2779,3.1647,3.079,2.9972,2.9069,2.8435,2.7966,2.7807,2.8638,2.9576,2.962,2.9636,2.9609,2.956,2.9444,2.901,2.7735,2.729,2.7055,2.6789,2.7139,2.78,2.8828,2.9691,3.051,3.1216,3.1796,3.2423,3.3168,3.4363,3.5324,3.5829,3.6942,3.7808,3.8158,3.7507,3.7482,3.8517,3.8637,3.8439,3.7926,3.5929,3.3539,3.0743,2.8268,2.5912,2.3663,2.0986,1.947,1.9129,1.6837,1.5374,1.4607,1.2671,1.1711,2.7813,2.831,2.8417,2.8311,2.8762,2.9305,2.9814,0.0,0.0,0.0,0.0,3.0285,2.9897,2.9296,2.9231,3.0303,2.9691,0.0,0.0,0.0,0.0,0.0,0.0,0.0,0.0,0.0,0.0,0.0,0.0,4.1631,4.1909,4.1889,4.1992,4.2147,4.1881,4.1759,4.1796,4.1705,4.1233,4.042,3.9913,3.9605,3.9514,3.8725,3.8403,0.0,0.0,0.0,3.7057,3.7153,3.6707,3.591,3.5652,3.5074,3.4241,3.3248,3.2293,3.1395,3.0551,2.9516,2.8513,2.7777,2.7187,2.6745,2.6649,2.6899,2.7367,2.8057,2.8276,2.8244,2.8229,2.8013,2.7533,2.6408,2.5944,2.5549,2.5121,2.5502,2.6174,2.7205,2.8057,2.8917,2.9715,3.0493,3.1254,3.1913,3.2342,3.2934,3.3897,3.4228,3.4641,3.5427,3.5154,3.5021,3.5279,3.4839,3.4786,3.5363,3.3443,3.0403,2.6291,2.3941,2.1055,1.7413,1.4311,1.2713,1.2417,0.974,0.8171,0.7691,0.5374,0.4367,2.8245,2.8607,2.8498,2.7904,2.8369,2.9114,2.9648,0.0,0.0,0.0,0.0,0.0,0.0,0.0,0.0,0.0,0.0,0.0,0.0,0.0,0.0,0.0,0.0,0.0,0.0,0.0,0.0,0.0,0.0,4.163,4.1682,4.1413,4.1214,4.1166,4.0426,4.0412,4.1197,4.1158,4.0612,3.9575,3.8658,3.8135,3.7927,3.7132,3.6891,3.6986,0.0,0.0,3.6148,3.5728,3.5214,3.4582,3.377,3.3087,3.2451,3.1472,3.0576,2.9794,2.9383,2.8293,2.7004,2.6591,2.6119,2.5605,2.5439,2.4997,2.4797,2.5936,2.6491,2.6637,2.6637,2.6461,2.6065,2.5272,2.4662,2.4248,2.3868,2.3964,2.4406,2.5272,2.6021,2.6754,2.7465,2.8454,2.9261,2.9684,2.9149,2.9215,3.0613,3.006,2.999,3.1016,3.1454,3.1456,3.0754,2.9082,2.8367,2.9118,2.8968,2.5854,1.9246,1.8048,1.5195,1.017,0.7331,0.5899,0.5862,0.2722,0.1204,0.1099,-0.1635,-0.2555,2.7216,2.785,2.8084,2.7319,2.7412,2.7689,2.7673,0.0,0.0,0.0,0.0,0.0,0.0,0.0,0.0,0.0,0.0,0.0,0.0,0.0,0.0,0.0,0.0,0.0,0.0,0.0,0.0,0.0,0.0,4.1086,3.9935,4.0641,4.0744,4.0068,3.9907,3.9587,3.8975,3.8975,3.851,3.762,3.6344,3.5802,3.5811,3.4571,3.4283,3.4676,0.0,3.4217,3.4761,3.418,3.3987,3.4007,3.3688,3.2897,3.1867,3.1361,3.0347,2.9023,2.7579,2.6395,2.5481,2.5189,2.4865,2.4465,2.4208,2.3686,2.324,2.3163,2.3649,2.4161,2.3955,2.373,2.3368,2.2685,2.1955,2.1248,2.0698,2.0698,2.0891,2.1256,2.2313,2.3395,2.4166,2.4832,2.5334,2.5625,2.544,2.5594,2.6525,2.6441,2.6873,2.8256,2.7436,2.6997,2.7453,2.4069,2.0798,1.8318,1.9596,1.7562,1.0976,0.873,0.6907,0.5504,0.2654,0.0914,0.0229,-0.1743,-0.3088,-0.374,-0.3974,-0.4286,2.8037,2.8303,2.8104,2.7456,2.7196,2.7024,2.6885,0.0,0.0,0.0,0.0,0.0,0.0,0.0,0.0,0.0,0.0,0.0,0.0,0.0,0.0,0.0,0.0,0.0,0.0,0.0,0.0,0.0,0.0,0.0,3.9521,3.912,3.8726,3.8216,3.7714,3.7188,3.6586,3.6334,3.632,3.6411,3.4891,3.4172,3.4105,3.2973,3.27,3.3026,0.0,3.2508,3.2827,3.2221,3.181,3.155,3.1226,3.0696,3.0016,2.8732,2.7618,2.65,2.5233,2.438,2.3847,2.3576,2.3289,2.2865,2.2329,2.1681,2.1089,2.0864,2.167,2.2591,2.2309,2.1805,2.1281,2.1106,2.0577,1.9794,1.8656,1.9192,1.9676,1.8751,1.9912,2.0921,2.0773,2.1326,2.1683,2.1384,2.0708,2.0669,2.1946,2.1537,2.1475,2.2445,2.2113,2.1175,1.951,1.6753,1.4484,1.2975,1.1618,0.9267,0.5712,0.3246,0.1755,0.1379,-0.1155,-0.263,-0.3021,-0.4011,-0.4662,-0.4972,-0.5568,-0.5825,2.8289,2.8056,2.741,2.7302,0.0,2.6793,2.6567,0.0,0.0,0.0,0.0,0.0,0.0,0.0,0.0,0.0,0.0,0.0,0.0,0.0,0.0,0.0,0.0,0.0,0.0,0.0,0.0,0.0,0.0,0.0,3.8052,3.7194,3.6559,3.6299,3.5407,3.4777,3.4435,3.373,3.397,3.5015,3.3425,3.2481,3.2192,3.1182,3.0909,3.1156,3.0882,3.0783,3.0833,3.0344,2.9662,2.8901,2.8606,2.8169,2.7555,2.5929,2.4699,2.385,2.2936,2.2388,2.1988,2.1675,2.1384,2.0889,2.0181,1.9494,1.8872,1.868,1.9362,2.0193,2.0341,1.9817,1.9152,1.9159,1.8896,1.8284,1.6811,1.7344,1.7594,1.5933,1.6618,1.7183,1.6435,1.686,1.7137,1.6622,1.5598,1.5411,1.6905,1.6219,1.5666,1.5878,1.604,1.4542,1.0673,0.8805,0.7655,0.7338,0.4367,0.2355,0.1525,-0.0769,-0.2093,-0.2409,-0.4055,-0.5002,-0.5309,-0.5363,-0.5527,-0.5868,-0.6853,-0.7215,2.6502,2.5801,2.5211,2.6393,2.6847,0.0,2.6357,2.6119,0.0,0.0,0.0,0.0,0.0,0.0,0.0,0.0,0.0,0.0,0.0,0.0,0.0,0.0,0.0,0.0,0.0,0.0,0.0,0.0,0.0,0.0,3.3972,3.4642,3.4958,3.4688,3.3756,3.3205,3.3046,3.146,3.1376,3.274,3.1363,3.032,2.9518,2.8473,2.8152,2.8511,2.8732,2.8841,2.8887,2.8839,2.8123,2.7025,2.7184,2.6199,2.4626,2.3987,2.2878,2.1682,2.1188,2.0493,1.9703,1.9326,1.891,1.849,1.7951,1.7324,1.6745,1.6417,1.5822,1.5641,1.7034,1.7112,1.6641,1.6126,1.6001,1.5783,1.4925,1.3679,1.253,1.1669,1.0926,1.0431,1.0354,1.066,1.1009,1.1129,1.0517,1.0293,1.1077,1.0911,1.0355,0.9589,0.8991,0.6962,0.2655,0.0871,-0.0661,-0.2159,-0.1913,-0.2002,-0.2487,-0.4085,-0.5157,-0.5544,-0.5553,-0.6022,-0.7026,-0.6184,-0.6552,-0.7941,-0.7744,-0.8374,2.6916,2.6461,2.6086,2.7373,0.0,0.0,0.0,0.0,0.0,0.0,0.0,0.0,0.0,0.0,0.0,0.0,0.0,0.0,0.0,0.0,0.0,0.0,0.0,0.0,0.0,0.0,0.0,0.0,0.0,0.0,3.3016,3.3169,3.2692,3.1518,3.1472,3.1034,3.0167,2.9258,2.8708,2.8488,2.8518,2.8189,2.7559,2.6483,2.6076,2.6299,2.6486,2.6628,2.6696,2.6417,2.5481,2.4196,2.3946,2.3095,2.1959,2.1709,2.0612,1.9137,1.8712,1.7932,1.714,1.6889,1.6386,1.5708,1.4793,1.43,1.3934,1.3571,1.3045,1.2997,1.4781,1.4809,1.4291,1.3764,1.3467,1.3049,1.1905,1.1311,1.0506,0.8656,0.8302,0.7871,0.6498,0.6832,0.7158,0.6718,0.6699,0.6688,0.6487,0.6433,0.5856,0.4137,0.1959,0.0,-0.1566,-0.3311,-0.4509,-0.5058,-0.4515,-0.4305,-0.4421,-0.535,-0.5942,-0.6338,-0.6112,-0.6684,-0.7931,-0.7331,-0.7517,-0.8552,-0.9647,-1.0503,2.6065,2.5591,2.5076,0.0,0.0,0.0,0.0,0.0,0.0,0.0,0.0,0.0,0.0,0.0,0.0,0.0,0.0,0.0,0.0,0.0,0.0,0.0,0.0,0.0,0.0,0.0,0.0,0.0,0.0,0.0,0.0,3.0819,3.0158,2.8994,2.9075,2.8652,2.7627,2.6886,2.6062,2.5159,2.5558,2.5742,2.5666,2.4714,2.4206,2.4179,2.4117,2.4052,2.3916,2.3608,2.288,2.1852,2.1208,2.0465,1.968,1.9467,1.8272,1.6626,1.6098,1.5305,1.4441,1.4136,1.3566,1.2819,1.1866,1.149,1.1229,1.0864,1.0434,1.0372,1.1645,1.2035,1.1928,1.1352,1.0705,0.9931,0.9006,0.8158,0.7077,0.5301,0.5061,0.4586,0.2975,0.3381,0.3711,0.3123,0.324,0.3129,0.2491,0.2272,0.1182,-0.1304,-0.3949,-0.5596,-0.5603,-0.6573,-0.7119,-0.6917,-0.6255,-0.5788,-0.5663,-0.6071,-0.6514,-0.7142,-0.6821,-0.7271,-0.8685,-0.867,-0.918,-1.006,-1.1754,-1.2813,2.351,2.2439,2.1561,0.0,0.0,0.0,0.0,0.0,0.0,0.0,0.0,0.0,0.0,0.0,0.0,0.0,0.0,0.0,0.0,0.0,0.0,0.0,0.0,0.0,0.0,0.0,0.0,0.0,0.0,0.0,0.0,2.7279,2.73,2.7521,2.6588,2.5925,2.5662,2.4347,2.35,2.3075,2.251,2.2769,2.3774,2.3083,2.2559,2.2236,2.1574,2.102,2.056,2.0609,2.0428,2.0045,1.9171,1.8462,1.7842,1.7359,1.5933,1.4218,1.3596,1.2607,1.1567,1.1093,1.0468,0.9762,0.933,0.9087,0.8832,0.8313,0.7931,0.7618,0.7428,0.85,0.9452,0.8832,0.7619,0.654,0.6274,0.3844,0.1655,0.1504,0.0585,-0.0195,-0.0467,0.0,0.0402,0.0266,-0.0067,-0.0465,-0.0791,-0.168,-0.3533,-0.6843,-0.8527,-0.9603,-0.9946,-0.9348,-0.8746,-0.842,-0.7419,-0.6688,-0.6362,-0.6529,-0.7212,-0.8401,-0.7681,-0.7923,-0.9372,-1.0273,-1.1432,-1.2846,-1.3847,-1.5195,2.2842,2.2469,0.0,0.0,0.0,0.0,0.0,0.0,0.0,0.0,0.0,0.0,0.0,0.0,0.0,0.0,0.0,0.0,0.0,0.0,0.0,0.0,0.0,0.0,0.0,0.0,0.0,0.0,0.0,0.0,0.0,2.6376,2.5926,2.4826,2.4567,2.3994,2.3203,2.1982,2.1126,2.0711,2.0044,2.0367,2.162,2.1192,2.0532,1.9805,1.9551,1.9036,1.8398,1.7119,1.6148,1.5343,1.5322,1.4549,1.3498,1.3551,1.2289,1.0498,1.047,0.9731,0.8925,0.9018,0.8441,0.7733,0.7358,0.6907,0.6519,0.6248,0.6129,0.5804,0.4719,0.4632,0.4947,0.5477,0.5078,0.4219,0.29,0.1511,0.0394,0.0133,-0.0597,-0.1331,-0.1942,-0.1677,-0.1474,-0.1867,-0.2066,-0.2594,-0.3972,-0.6029,-0.7582,-0.8283,-0.935,-1.0026,-1.0026,-1.0258,-1.0302,-1.0226,-1.0971,-1.0588,-0.8633,-0.8727,-0.9782,-1.178,-1.1346,-1.2046,-1.3945,-1.2948,-1.3267,-1.4882,-1.569,-1.6627,2.1789,2.1603,0.0,0.0,0.0,0.0,0.0,0.0,0.0,0.0,0.0,0.0,0.0,0.0,0.0,0.0,0.0,0.0,0.0,0.0,0.0,0.0,0.0,0.0,0.0,0.0,0.0,0.0,0.0,0.0,0.0,2.4542,2.3912,2.2531,2.249,2.1957,2.083,2.0036,1.943,1.8924,1.8155,1.807,1.8599,1.8674,1.8246,1.7397,1.6427,1.5712,1.5142,1.3785,1.2948,1.2506,1.2758,1.2022,1.0947,1.088,0.9682,0.8116,0.7886,0.7187,0.642,0.6494,0.5975,0.5256,0.4998,0.4674,0.4276,0.4077,0.3808,0.3405,0.2666,0.1865,0.1662,0.3051,0.2384,0.1259,0.0599,-0.066,-0.1712,-0.1867,-0.2323,-0.2913,-0.3411,-0.3282,-0.3278,-0.4069,-0.4463,-0.5318,-0.6894,-0.8592,-0.9831,-1.0338,-1.1031,-1.1524,-1.175,-1.2158,-1.2387,-1.231,-1.2972,-1.3062,-1.2489,-1.1898,-1.221,-1.3652,-1.3279,-1.3799,-1.5196,-1.5288,-1.5773,-1.6581,-1.8196,-1.9371,2.0586,0.0,0.0,0.0,0.0,0.0,0.0,0.0,0.0,0.0,0.0,0.0,0.0,0.0,0.0,0.0,0.0,0.0,0.0,0.0,0.0,0.0,0.0,0.0,0.0,0.0,0.0,0.0,0.0,0.0,0.0,2.2286,2.153,2.076,2.0515,1.9909,1.886,1.8447,1.8008,1.7605,1.6719,1.5897,1.5106,1.5887,1.5807,1.4909,1.2715,1.1596,1.1279,1.0656,1.0538,1.0866,1.0828,1.0288,0.9479,0.8843,0.779,0.6595,0.5705,0.4923,0.4265,0.4002,0.3407,0.2813,0.2678,0.2476,0.2209,0.1944,0.1338,0.0734,0.0801,-0.0133,-0.0667,0.0932,-0.0399,-0.1867,-0.1137,-0.269,-0.4294,-0.427,-0.446,-0.4736,-0.5055,-0.5005,-0.5266,-0.633,-0.7251,-0.8226,-0.9326,-0.9837,-1.0766,-1.2634,-1.3061,-1.3537,-1.4296,-1.4563,-1.4653,-1.4526,-1.4119,-1.4855,-1.7053,-1.5423,-1.4538,-1.4774,-1.4479,-1.4504,-1.4841,-1.7396,-1.8479,-1.8322,-2.1068,-2.2691,2.0231,1.9918,0.0,0.0,0.0,0.0,0.0,0.0,0.0,0.0,0.0,0.0,0.0,0.0,0.0,0.0,0.0,0.0,0.0,0.0,0.0,0.0,0.0,0.0,0.0,0.0,0.0,0.0,0.0,0.0,2.1928,2.1049,2.0344,2.002,1.9166,1.8695,1.8638,1.7056,1.6233,0.0,1.4772,1.3657,1.2792,1.4294,1.3907,1.2058,1.0752,0.966,0.8709,0.8135,0.7772,0.7428,0.7324,0.6823,0.6117,0.5501,0.471,0.3875,0.3616,0.3282,0.288,0.3078,0.2746,0.228,0.2146,0.1744,0.1208,0.0468,0.0067,-0.0467,-0.2197,-0.286,-0.3125,-0.3323,-0.3323,-0.3524,-0.4337,-0.512,-0.5767,-0.599,-0.6086,-0.6392,-0.7335,-0.7658,-0.8168,-0.9145,-0.985,-1.0418,-1.0989,-1.1673,-1.2289,-1.2915,-1.3226,-1.3648,-1.4227,-1.4915,-1.5486,-1.6022,-1.7509,-1.8554,-1.8874,-1.7179,-1.7073,-1.8889,-1.8956,-1.9159,-1.9599,-1.9696,-2.0134,-2.0841,-2.2508,-2.3289,0.0,0.0,0.0,0.0,0.0,0.0,0.0,0.0,0.0,0.0,0.0,0.0,0.0,0.0,0.0,0.0,0.0,0.0,0.0,0.0,0.0,0.0,0.0,0.0,0.0,0.0,0.0,0.0,0.0,1.9803,1.9586,1.918,1.8645,1.7883,1.758,1.7091,1.6465,1.536,1.4603,1.4066,1.3144,1.2004,1.0815,1.1712,1.1396,0.992,0.8837,0.7882,0.6985,0.6531,0.5939,0.5418,0.5299,0.4815,0.4028,0.368,0.3059,0.242,0.2285,0.2016,0.1746,0.1745,0.1545,0.121,0.0941,0.0336,-0.0268,-0.0803,-0.1537,-0.2469,-0.3668,-0.44,-0.4863,-0.5463,-0.5259,-0.5055,-0.5332,-0.5932,-0.6531,-0.6654,-0.7102,-0.7683,-0.8318,-0.9082,-0.9787,-1.0349,-1.0739,-1.1176,-1.1789,-1.2289,-1.2967,-1.3921,-1.4287,-1.4885,-1.5813,-1.6543,-1.7213,-1.7786,-1.9084,-2.013,-2.0911,-1.9903,-1.974,-2.0637,-2.0822,-2.1039,-2.1413,-2.2076,-2.245,-2.2566,-2.4692,-2.5536,0.0,0.0,0.0,0.0,0.0,0.0,0.0,0.0,0.0,0.0,0.0,0.0,0.0,0.0,0.0,0.0,0.0,0.0,0.0,0.0,0.0,0.0,0.0,0.0,0.0,0.0,0.0,0.0,0.0,1.7939,1.7232,1.7145,1.6637,1.5645,1.5842,1.5343,1.4156,1.368,1.3034,1.2166,1.1231,1.0166,0.8971,0.8773,0.8586,0.828,0.7116,0.6334,0.5745,0.5289,0.4691,0.4087,0.4087,0.362,0.2889,0.2619,0.2218,0.1748,0.1345,0.1144,0.0941,0.0606,0.0337,0.0202,-0.0202,-0.0874,-0.1542,-0.181,-0.288,-0.4151,-0.4541,-0.5279,-0.5951,-0.6535,-0.6662,-0.6523,-0.572,-0.6449,-0.7251,-0.7177,-0.8215,-0.9116,-0.9348,-1.0312,-1.1135,-1.1231,-1.1432,-1.1811,-1.2472,-1.2854,-1.364,-1.5109,-1.5651,-1.6425,-1.77,-1.8344,-1.8869,-1.9279,-1.9834,-2.0888,-2.2538,-2.2439,-2.222,-2.1882,-2.1911,-2.2027,-2.223,-2.4173,-2.4773,-2.4123,-2.6718,-2.7769,0.0,0.0,0.0,0.0,0.0,0.0,0.0,0.0,0.0,0.0,0.0,0.0,0.0,0.0,0.0,0.0,0.0,0.0,0.0,0.0,0.0,0.0,0.0,0.0,0.0,0.0,0.0,0.0,1.7434,1.6618,1.6642,1.5369,1.4865,1.524,1.391,1.3549,1.4284,1.2508,1.1411,1.0822,0.8132,0.6815,0.6767,0.5855,0.5994,0.6915,0.5932,0.5147,0.4486,0.4156,0.3758,0.336,0.3224,0.2887,0.2417,0.2151,0.1748,0.1345,0.101,0.074,0.0538,0.0404,0.0202,0.0,-0.0202,-0.0606,-0.1208,-0.2614,-0.295,-0.3418,-0.5547,-0.5873,-0.5932,-0.7195,-0.7717,-0.7842,-0.7456,-0.8042,-0.8753,-0.8941,-1.0275,-1.1483,-1.1903,-1.2773,-1.339,-1.3563,-1.3855,-1.4043,-1.3932,-1.4815,-1.5555,-1.5948,-1.6595,-1.7346,-1.817,-1.8762,-1.9279,-1.9695,-2.0952,-2.1974,-2.2565,-2.3169,-2.3861,-2.4671,-2.4292,-2.4147,-2.4309,-2.5254,-2.5915,-2.6408,-2.7579,-2.8,2.0816,2.1129,2.1771,0.0,0.0,0.0,0.0,0.0,0.0,0.0,0.0,0.0,0.0,0.0,0.0,0.0,0.0,0.0,0.0,0.0,0.0,0.0,0.0,0.0,0.0,0.0,0.0,0.0,1.5508,1.4727,1.4291,1.3499,1.2912,1.2557,1.1783,1.1276,1.1136,0.9866,0.8765,0.7919,0.6082,0.5051,0.4722,0.387,0.4342,0.5741,0.502,0.4489,0.3956,0.3153,0.2885,0.2889,0.2284,0.2016,0.1949,0.1816,0.1413,0.101,0.0876,0.0674,0.0471,0.0337,0.027,0.0067,-0.0539,-0.1276,-0.2144,-0.328,-0.4084,-0.4818,-0.6086,-0.6346,-0.6535,-0.7466,-0.8052,-0.8376,-0.8317,-0.8765,-0.9274,-0.9594,-1.0548,-1.1365,-1.174,-1.2421,-1.3033,-1.3519,-1.3752,-1.3992,-1.4419,-1.5177,-1.5816,-1.6322,-1.7056,-1.7831,-1.8602,-1.9093,-1.9728,-2.0707,-2.1625,-2.2593,-2.3661,-2.4263,-2.4854,-2.5565,-2.5217,-2.5292,-2.5826,-2.6542,-2.7045,-2.7318,-2.8321,-2.8685,2.0599,2.107,2.1821,2.3237,0.0,0.0,0.0,0.0,0.0,0.0,0.0,0.0,0.0,0.0,0.0,0.0,0.0,0.0,0.0,0.0,0.0,0.0,0.0,0.0,0.0,0.0,0.0,0.0,1.3841,1.2992,1.2052,1.158,1.0985,1.0249,0.9664,0.906,0.8366,0.7182,0.6078,0.4979,0.4061,0.3403,0.2937,0.2342,0.2811,0.4082,0.3687,0.3355,0.3019,0.2079,0.1879,0.2014,0.1209,0.0941,0.1076,0.1008,0.0672,0.0202,0.0202,0.0067,-0.0135,-0.0067,-0.0135,-0.0269,-0.0942,-0.1812,-0.2813,-0.3747,-0.4616,-0.5488,-0.6152,-0.6478,-0.6741,-0.7466,-0.8052,-0.8511,-0.8899,-0.9151,-0.9466,-0.9919,-1.0485,-1.1045,-1.1428,-1.1988,-1.2666,-1.3329,-1.3511,-1.3752,-1.4478,-1.5118,-1.5816,-1.656,-1.7324,-1.8205,-1.9286,-1.9494,-2.0217,-2.1695,-2.2293,-2.3245,-2.466,-2.5173,-2.5643,-2.6042,-2.5788,-2.5997,-2.6774,-2.7408,-2.781,-2.7978,-2.8858,-2.9243,1.9782,2.0357,0.0,2.1983,0.0,0.0,0.0,0.0,0.0,0.0,0.0,0.0,0.0,0.0,0.0,0.0,0.0,0.0,0.0,0.0,0.0,0.0,0.0,0.0,0.0,0.0,0.0,0.0,1.2791,1.1877,1.083,0.9678,0.9192,0.9426,0.781,0.7042,0.7469,0.5111,0.3535,0.2876,0.1811,0.1344,0.1412,0.121,0.1276,0.1474,0.1474,0.1342,0.121,0.0739,0.0538,0.0403,-0.0067,-0.0269,-0.0403,-0.0605,-0.1007,-0.1475,-0.1475,-0.161,-0.1677,-0.1209,-0.1211,-0.148,-0.121,-0.1746,-0.2616,-0.3682,-0.3818,-0.402,-0.5749,-0.5939,-0.5994,-0.719,-0.7847,-0.8431,-0.9285,-0.9408,-0.9466,-0.9919,-1.0661,-1.1399,-1.1856,-1.2658,-1.3329,-1.37,-1.401,-1.4189,-1.4189,-1.5177,-1.6093,-1.6631,-1.7534,-1.8736,-2.0266,-2.0242,-2.0849,-2.2445,-2.3226,-2.4048,-2.4952,-2.581,-2.6283,-2.6457,-2.6351,-2.6443,-2.6901,-2.7342,-2.7944,-2.8638,-2.9106,-2.947,1.9669,2.0184,0.0,0.0,0.0,0.0,0.0,0.0,0.0,0.0,0.0,0.0,0.0,0.0,0.0,0.0,0.0,0.0,0.0,0.0,0.0,0.0,0.0,0.0,0.0,0.0,0.0,0.0,0.0,1.0529,0.9688,0.8668,0.7899,0.7485,0.6156,0.5005,0.4071,0.2943,0.2011,0.1275,0.0873,0.0538,0.0134,0.0067,-0.0067,-0.0268,-0.0268,0.0269,0.1008,0.0202,0.0067,0.0336,-0.047,-0.0605,-0.0403,-0.047,-0.0806,-0.1276,-0.1276,-0.1478,-0.1679,-0.1611,-0.1678,-0.1879,-0.2482,-0.3015,-0.3616,-0.4619,-0.5153,-0.5484,-0.6148,-0.6075,-0.5866,-0.6195,-0.7111,-0.8032,-0.8549,-0.9262,-0.9722,-0.9594,-1.0351,-1.0982,-1.1122,-1.1802,-1.2536,-1.3103,-1.3398,-1.3812,-1.4359,-1.5118,-1.5758,-1.6265,-1.7168,-1.8157,-1.9333,-1.9806,-2.0761,-2.2442,-2.3199,-2.396,-2.4832,-2.5329,-2.555,-2.555,-2.5784,-2.615,-2.6654,-2.7203,-2.776,-2.8319,-2.8904,-2.935,1.93,1.9662,0.0,0.0,0.0,0.0,0.0,0.0,0.0,0.0,0.0,0.0,0.0,0.0,0.0,0.0,0.0,0.0,0.0,0.0,0.0,0.0,0.0,0.0,0.0,0.0,0.0,0.0,0.0,0.0,0.8506,0.7579,0.6593,0.5474,0.4547,0.3351,0.1817,0.148,0.1008,0.0336,0.0269,-0.0067,-0.0672,-0.0673,-0.0942,-0.1277,-0.1277,-0.0672,0.0202,-0.0538,-0.0672,-0.0403,-0.1276,-0.1411,-0.1141,-0.1209,-0.1545,-0.1882,-0.1882,-0.2083,-0.2351,-0.2283,-0.2415,-0.275,-0.3284,-0.3754,-0.4154,-0.496,-0.5425,-0.5752,-0.5815,-0.5811,-0.5672,-0.5602,-0.6392,-0.7307,-0.7892,-0.9005,-0.9862,-0.9658,-1.0295,-1.0807,-1.0933,-1.1498,-1.2182,-1.2805,-1.3224,-1.3692,-1.43,-1.5001,-1.5584,-1.6056,-1.7094,-1.8182,-1.9171,-2.0009,-2.1157,-2.2847,-2.3441,-2.4048,-2.4808,-2.523,-2.5397,-2.523,-2.5619,-2.5934,-2.6365,-2.6907,-2.7458,-2.8091,-2.8669,-2.9198,0.0,0.0,0.0,0.0,0.0,0.0,0.0,0.0,0.0,0.0,0.0,0.0,0.0,0.0,0.0,0.0,0.0,0.0,0.0,0.0,0.0,0.0,0.0,0.0,0.0,0.0,0.0,0.0,0.8896,0.8004,0.7204,0.647,0.5279,0.3553,0.2954,0.2149,0.1076,0.0874,0.0538,0.0,-0.0202,-0.0606,-0.1076,-0.1076,-0.1277,-0.1614,-0.1614,-0.148,-0.1344,-0.1547,-0.1748,-0.1951,-0.2487,-0.2686,-0.2753,-0.3092,-0.3295,-0.3498,-0.3498,-0.3629,-0.3692,-0.3224,-0.3491,-0.3961,-0.3623,-0.3756,-0.4095,-0.4631,-0.4558,-0.4353,-0.4683,-0.5014,-0.5345,-0.5481,-0.5804,-0.6388,-0.7442,-0.8818,-0.9932,-1.0244,-1.0555,-1.0996,-1.1498,-1.1996,-1.249,-1.292,-1.3467,-1.389,-1.413,-1.4893,-1.5536,-1.6019,-1.7431,-1.8839,-2.0029,-2.0893,-2.2059,-2.3657,-2.3976,-2.4367,-2.4978,-2.5564,-2.5839,-2.5674,-2.5784,-2.5948,-2.6111,-2.6525,-2.7137,-2.8008,-2.8463,-2.9058,1.8157,0.0,0.0,0.0,0.0,0.0,0.0,0.0,0.0,0.0,0.0,0.0,0.0,0.0,0.0,0.0,0.0,0.0,0.0,0.0,0.0,0.0,0.0,0.0,0.0,0.0,0.0,0.0,0.7582,0.6798,0.6029,0.5029,0.4023,0.3157,0.2351,0.1546,0.0874,0.0606,0.0202,-0.0337,-0.0337,-0.0606,-0.1076,-0.1076,-0.121,-0.1412,-0.1547,-0.1748,-0.1951,-0.2018,-0.2087,-0.2153,-0.2554,-0.2686,-0.2686,-0.282,-0.2956,-0.3159,-0.3228,-0.3429,-0.3629,-0.383,-0.383,-0.3696,-0.3956,-0.4023,-0.4028,-0.4154,-0.4417,-0.4553,-0.4154,-0.4353,-0.4486,-0.3956,-0.5137,-0.6445,-0.7037,-0.8608,-0.9989,-1.0047,-1.0681,-1.1178,-1.1365,-1.1996,-1.2621,-1.292,-1.3338,-1.3761,-1.413,-1.4538,-1.5056,-1.5799,-1.6587,-1.7638,-1.9011,-2.022,-2.1404,-2.2506,-2.3541,-2.4306,-2.4835,-2.5174,-2.5397,-2.5342,-2.5397,-2.5508,-2.5784,-2.6418,-2.6982,-2.7494,-2.8155,-2.8795,1.7747,0.0,0.0,0.0,0.0,0.0,0.0,1.8883,0.0,0.0,0.0,0.0,0.0,0.0,0.0,0.0,0.0,0.0,0.0,0.0,0.0,0.0,0.0,0.0,0.0,0.9867,0.8576,0.7418,0.6672,0.5836,0.4903,0.4056,0.3291,0.269,0.1883,0.1278,0.0808,0.0539,0.0135,-0.027,-0.027,-0.0606,-0.1076,-0.0941,-0.0941,-0.1076,-0.1008,-0.121,-0.1748,-0.1817,-0.2084,-0.242,-0.2688,-0.282,-0.2822,-0.2889,-0.2956,-0.3092,-0.3295,-0.3496,-0.3763,-0.3899,-0.3897,-0.3828,-0.3956,-0.3756,-0.3625,-0.3751,-0.3885,-0.3954,-0.3556,-0.3623,-0.3823,-0.3754,-0.4743,-0.6056,-0.7102,-0.828,-0.9332,-0.9983,-1.0681,-1.1122,-1.1303,-1.1872,-1.2367,-1.2674,-1.3094,-1.3511,-1.3821,-1.43,-1.4749,-1.5232,-1.6356,-1.7522,-1.8562,-2.025,-2.1667,-2.2604,-2.3708,-2.4492,-2.4892,-2.5118,-2.523,-2.53,-2.523,-2.5286,-2.5508,-2.6096,-2.6721,-2.7458,-2.7974,-2.8477,1.7411,1.7223,0.0,0.0,0.0,0.0,1.9335,1.8995,1.8315,0.0,0.0,0.0,0.0,0.0,0.0,0.0,0.0,0.0,0.0,0.0,0.0,0.0,0.0,0.0,1.0265,0.8881,0.7661,0.6942,0.6017,0.502,0.4028,0.3493,0.2891,0.2221,0.1614,0.1144,0.0742,0.0607,0.0337,-0.0067,-0.027,-0.0539,-0.0941,-0.0672,-0.0605,-0.0605,-0.0134,-0.0336,-0.1008,-0.121,-0.1814,-0.2686,-0.2889,-0.2956,-0.3023,-0.3159,-0.3226,-0.3295,-0.3496,-0.3763,-0.3961,-0.3629,-0.3828,-0.4087,-0.362,-0.3222,-0.3023,-0.3288,-0.3155,-0.2956,-0.2958,-0.3159,-0.3556,-0.4345,-0.4809,-0.5602,-0.7567,-0.8027,-0.8549,-0.9913,-1.0491,-1.087,-1.124,-1.1553,-1.1872,-1.2243,-1.2789,-1.3208,-1.3208,-1.3992,-1.4565,-1.4598,-1.6424,-1.7864,-1.8624,-2.0646,-2.231,-2.321,-2.4028,-2.4664,-2.4948,-2.5118,-2.53,-2.5439,-2.5244,-2.5118,-2.5118,-2.5674,-2.6472,-2.7458,-2.7775,-2.8122,1.7657,1.7671,1.7639,1.8031,0.0,0.0,1.7701,1.7693,1.7499,0.0,0.0,0.0,0.0,0.0,0.0,0.0,0.0,0.0,0.0,0.0,0.0,0.0,0.0,0.0,0.9707,0.8652,0.7657,0.6806,0.555,0.4492,0.3892,0.3357,0.2757,0.2221,0.1614,0.1076,0.0539,0.0404,0.0135,-0.027,-0.0539,-0.0471,0.0,-0.0538,-0.0403,0.0269,0.0269,0.0,-0.047,-0.0806,-0.1546,-0.249,-0.2688,-0.2889,-0.3023,-0.3159,-0.3295,-0.3496,-0.3763,-0.3961,-0.3961,-0.3897,-0.3694,-0.3357,-0.3157,-0.2824,-0.2557,-0.2624,-0.2688,-0.2755,-0.2557,-0.3353,-0.4278,-0.4478,-0.5661,-0.6915,-0.7637,-0.8296,-0.8947,-0.9402,-1.004,-1.0674,-1.1059,-1.1435,-1.1747,-1.2058,-1.2367,-1.2605,-1.2858,-1.3164,-1.3821,-1.5187,-1.5897,-1.7101,-1.8864,-2.0051,-2.1175,-2.2298,-2.3267,-2.4118,-2.4778,-2.5061,-2.523,-2.5244,-2.4865,-2.4637,-2.4637,-2.5605,-2.6258,-2.6721,-2.7026,-2.7452,1.7862,1.7771,1.7597,1.7747,0.0,0.0,0.0,1.6572,1.6189,1.5605,1.5409,0.0,0.0,0.0,0.0,0.0,0.0,0.0,0.0,0.0,0.0,0.0,0.0,0.0,0.9308,0.8201,0.7154,0.6145,0.5087,0.4289,0.3825,0.3222,0.2621,0.2087,0.1547,0.1278,0.1212,0.101,0.0942,0.0874,0.0596,0.0526,0.0724,0.0526,0.0658,0.0988,0.127,0.1008,0.0336,-0.0269,-0.1008,-0.1817,-0.2353,-0.2688,-0.2889,-0.3092,-0.3295,-0.3565,-0.3894,-0.3892,-0.3692,-0.3558,-0.3224,-0.2889,-0.2554,-0.2421,-0.2357,-0.2221,-0.2354,-0.2621,-0.2755,-0.3487,-0.435,-0.5272,-0.6199,-0.712,-0.7777,-0.8296,-0.8689,-0.9017,-0.9402,-0.9856,-1.0428,-1.0744,-1.1059,-1.1373,-1.1951,-1.2373,-1.2696,-1.3282,-1.4039,-1.4941,-1.5854,-1.6983,-1.8475,-1.9684,-2.0846,-2.2051,-2.2907,-2.3636,-2.4292,-2.458,-2.4708,-2.4677,-2.4376,-2.4144,-2.4073,-2.4808,-2.5536,-2.6204,-2.6539,-2.6959,0.0,0.0,0.0,0.0,0.0,1.6599,0.0,0.0,0.0,1.4548,0.0,0.0,0.0,0.0,0.0,0.0,0.0,0.0,0.0,0.0,0.0,0.0,0.0,0.0,0.8965,0.7752,0.6509,0.5436,0.4695,0.4164,0.3727,0.308,0.2485,0.1884,0.148,0.1345,0.1615,0.1345,0.1411,0.1811,0.1444,0.1363,0.1428,0.1623,0.1623,0.156,0.2064,0.1681,0.0739,0.0,-0.0672,-0.121,-0.2085,-0.2555,-0.282,-0.3159,-0.3429,-0.3699,-0.3828,-0.3758,-0.3489,-0.3023,-0.2755,-0.2485,-0.2017,-0.2018,-0.2221,-0.1951,-0.2087,-0.2421,-0.2952,-0.3487,-0.4287,-0.5804,-0.647,-0.7003,-0.7847,-0.8042,-0.8172,-0.8506,-0.8679,-0.8955,-0.9734,-1.0047,-1.0327,-1.0692,-1.1553,-1.2195,-1.2588,-1.3418,-1.4214,-1.4761,-1.5885,-1.7025,-1.8151,-1.9339,-2.059,-2.1803,-2.247,-2.3088,-2.3623,-2.3989,-2.4131,-2.4067,-2.3891,-2.37,-2.3569,-2.3956,-2.4637,-2.566,-2.6028,-2.6457,0.0,0.0,0.0,0.0,1.7206,0.0,0.0,0.0,1.479,1.3701,0.0,0.0,0.0,0.0,0.0,0.0,0.0,0.0,0.0,0.0,0.0,0.0,0.0,0.0,0.0,0.7359,0.6168,0.5265,0.4784,0.4145,0.3425,0.2917,0.2485,0.1884,0.1412,0.0942,0.0472,0.0135,0.0202,0.0672,0.0201,0.0735,0.2271,0.1802,0.1602,0.1602,0.1675,0.1006,-0.0134,-0.0403,-0.0739,-0.121,-0.2284,-0.2822,-0.3023,-0.3362,-0.3766,-0.4167,-0.3689,-0.3756,-0.3758,-0.2818,-0.2284,-0.1951,-0.1681,-0.1681,-0.1681,-0.1614,-0.1817,-0.2085,-0.2619,-0.3616,-0.461,-0.5276,-0.6145,-0.6946,-0.7269,-0.7461,-0.7657,-0.7797,-0.8087,-0.8559,-0.925,-0.9664,-1.0072,-1.064,-1.1028,-1.1678,-1.2639,-1.2908,-1.3644,-1.5449,-1.5788,-1.6701,-1.8562,-1.9034,-1.9781,-2.0955,-2.1502,-2.2113,-2.298,-2.3564,-2.3884,-2.3891,-2.3654,-2.3463,-2.3403,-2.345,-2.3897,-2.4694,-2.5425,-2.5948,0.0,0.0,0.0,0.0,0.0,0.0,1.4483,0.0,1.3714,0.0,0.0,0.0,0.0,0.0,0.0,0.0,0.0,0.0,0.0,0.0,0.0,0.0,0.0,0.0,0.0,0.0,0.0,0.0,0.4174,0.3583,0.3132,0.2558,0.2032,0.1584,0.1259,0.0988,0.0706,0.0564,0.0629,0.0962,0.0676,0.0931,0.1507,0.1309,0.1048,0.0721,0.0666,0.0335,-0.0336,-0.1007,-0.1208,-0.121,-0.2418,-0.2755,-0.269,-0.3161,-0.3429,-0.356,-0.3489,-0.3155,-0.2688,-0.2016,-0.168,-0.1547,-0.148,-0.1412,-0.1412,-0.121,-0.1277,-0.1546,-0.2082,-0.3015,-0.3946,-0.4812,-0.5415,-0.5951,-0.621,-0.6404,-0.6696,-0.7069,-0.7909,-0.8732,-0.9304,-0.9591,-0.997,-1.0553,-1.1184,-1.1957,-1.2981,-1.3508,-1.4383,-1.567,-1.6171,-1.6912,-1.8037,-1.8462,-1.8998,-1.9901,-2.0741,-2.1639,-2.2689,-2.2871,-2.3065,-2.3343,-2.2969,-2.286,-2.2982,-2.3103,-2.3318,-2.3708,-2.4708,-2.5384,1.73,0.0,0.0,0.0,0.0,0.0,0.0,0.0,0.0,0.0,0.0,0.0,0.0,0.0,0.0,0.0,0.0,0.0,0.0,0.0,0.0,0.0,0.0,0.0,0.0,0.0,0.0,0.0,0.0,0.3058,0.2728,0.2143,0.1629,0.1246,0.1146,0.1021,0.0875,0.0875,0.101,0.1272,0.1169,0.1142,0.1253,0.1112,0.0717,0.013,-0.0066,-0.0403,-0.0874,-0.1544,-0.1679,-0.148,-0.2218,-0.2353,-0.2153,-0.2958,-0.3159,-0.3021,-0.3086,-0.2484,-0.1547,-0.121,-0.1076,-0.1076,-0.0874,-0.0874,-0.0874,-0.0605,-0.0672,-0.1008,-0.161,-0.2278,-0.3013,-0.4013,-0.4442,-0.4739,-0.5142,-0.5638,-0.6173,-0.6708,-0.7955,-0.9098,-0.9623,-0.9886,-1.0218,-1.0849,-1.1596,-1.2395,-1.3323,-1.4103,-1.4832,-1.5718,-1.6351,-1.7038,-1.7716,-1.8134,-1.8664,-1.9441,-2.0302,-2.121,-2.2334,-2.2285,-2.2347,-2.2726,-2.242,-2.2359,-2.2616,-2.2739,-2.2848,-2.3017,-2.4189,-2.4921,0.0,0.0,0.0,1.5505,0.0,0.0,0.0,0.0,1.3218,0.0,0.0,0.0,0.0,0.0,0.0,0.0,0.0,0.0,0.0,0.0,0.0,0.0,0.0,0.0,0.0,0.0,0.0,0.0,0.0,0.0,0.1992,0.1733,0.148,0.1144,0.1136,0.1021,0.0583,0.051,0.0655,0.1237,0.0992,0.1329,0.2167,0.1768,0.1141,0.0268,-0.0269,-0.1143,-0.2087,-0.1749,-0.1817,-0.2087,-0.1547,-0.1277,-0.1344,-0.2891,-0.3291,-0.2947,-0.2347,-0.1544,-0.0806,-0.0605,-0.0538,-0.0403,0.0067,0.0134,0.0,0.0202,0.0,-0.0472,-0.114,-0.1475,-0.1877,-0.2746,-0.3147,-0.3487,-0.4112,-0.532,-0.6485,-0.707,-0.8509,-0.9679,-1.0136,-1.0578,-1.1121,-1.1611,-1.2155,-1.2771,-1.3658,-1.4057,-1.4697,-1.5692,-1.6132,-1.676,-1.7872,-1.8212,-1.8798,-1.9977,-2.0324,-2.0775,-2.1714,-2.1714,-2.1913,-2.242,-2.2111,-2.2049,-2.242,-2.242,-2.2555,-2.2739,-2.3943,-2.465,0.0,0.0,1.4114,1.3727,0.0,0.0,0.0,0.0,0.0,0.0,0.0,0.0,0.0,0.0,0.0,0.0,0.0,0.0,0.0,0.0,0.0,0.0,0.0,0.0,0.0,0.0,0.0,0.0,0.2589,0.0,0.0,0.0968,0.0849,0.0828,0.1145,0.1259,0.13,0.1071,0.1062,0.1269,0.0963,0.087,0.1121,0.0902,0.041,-0.0269,-0.0538,-0.1143,-0.1817,-0.1681,-0.1681,-0.1749,-0.1344,-0.1007,-0.0805,-0.1744,-0.1542,-0.0738,-0.0336,-0.0067,0.0067,0.0269,0.0336,0.0403,0.0807,0.0874,0.0739,0.0941,0.0672,0.0405,0.0206,-0.0483,-0.1178,-0.155,-0.1995,-0.2582,-0.3297,-0.4178,-0.5165,-0.6499,-0.8102,-0.952,-1.0433,-1.1272,-1.1827,-1.1707,-1.2085,-1.2635,-1.3484,-1.3992,-1.4553,-1.5338,-1.5842,-1.6412,-1.7028,-1.7579,-1.8317,-1.9386,-1.9584,-2.0042,-2.0955,-2.1083,-2.1336,-2.1714,-2.1537,-2.1675,-2.2049,-2.2049,-2.2359,-2.2848,-2.3636,-2.4279,1.2729,1.265,0.0,1.2478,1.2189,0.0,1.205,0.0,0.0,0.0,0.0,0.0,0.0,0.0,0.0,0.0,0.0,0.0,0.0,0.0,0.0,0.0,0.0,0.0,0.0,0.0,0.4196,0.2944,0.2418,0.0,0.0,0.0,0.0515,0.0407,0.0943,0.1369,0.149,0.1491,0.1479,0.1379,0.1055,0.0881,0.0781,0.0557,0.0205,-0.0134,-0.0538,-0.0874,-0.121,-0.121,-0.1143,-0.1008,-0.0672,-0.0134,0.0335,-0.0536,-0.0201,0.0738,0.1208,0.1208,0.1141,0.1411,0.1344,0.1277,0.168,0.1479,0.121,0.1277,0.1143,0.088,0.0834,0.021,-0.0423,-0.0795,-0.1246,-0.1844,-0.2875,-0.378,-0.4858,-0.6517,-0.8105,-0.9569,-1.0703,-1.1558,-1.2077,-1.2003,-1.2378,-1.282,-1.3419,-1.392,-1.4418,-1.4999,-1.5568,-1.6132,-1.6742,-1.7442,-1.8124,-1.8854,-1.8977,-1.9375,-2.0183,-2.0453,-2.07,-2.1135,-2.1031,-2.1233,-2.1675,-2.18,-2.2111,-2.2665,-2.3221,-2.3676]},{"header":{"parameterUnit":"m.s-1","parameterCategory":1,"la1":30.6,"la2":29.2853,"lo1":-89.7004,"lo2":-87.6739,"dy":0.0162,"dx":0.0183,"nx":112,"ny":82,"refTime":"2026-05-11T12:00:00:Z","depth":0,"parameterNumber":3,"parameterNumberName":"V-component_of_WINDS"},"data":[0.0,0.0,0.0,0.0,0.0,0.0,0.0,0.0,0.0,0.0,0.0,0.0,0.0,0.0,0.0,0.0,0.0,0.0,0.0,0.0,0.0,0.0,0.0,0.0,0.0,0.0,0.0,0.0,0.0,0.0,0.0,0.0,0.0,0.0,0.0,0.0,0.0,0.0,0.0,0.0,0.0,0.0,0.0,0.0,0.0,0.0,0.0,0.0,0.0,0.0,0.0,0.0,0.0,0.0,0.0,0.0,0.0,0.0,0.0,0.0,0.0,0.0,0.0,0.0,0.0,0.0,0.0,0.0,0.0,0.0,0.0,0.0,0.0,0.0,0.0,0.0,0.0,0.0,0.0,0.0,0.0,0.0,0.0,0.0,0.0,0.0,0.0,0.0,0.0,0.0,0.0,0.5714,0.8418,1.0224,1.0327,0.9869,0.9489,0.9355,0.0,0.0,0.0,0.0,0.0,0.0,0.0,0.0,0.0,0.0,0.0,0.0,0.0,0.0,0.0,0.0,0.0,0.0,0.0,0.0,0.0,0.0,0.0,0.0,0.0,0.0,0.0,0.0,0.0,0.0,0.0,0.0,0.0,0.0,0.0,0.0,0.0,0.0,0.0,0.0,0.0,0.0,0.0,0.0,0.0,0.0,0.0,0.0,0.0,0.0,0.0,0.0,0.0,0.0,0.0,0.0,0.0,0.0,0.0,0.0,0.0,0.0,0.0,0.0,0.0,0.0,0.0,0.0,0.0,0.0,0.0,0.0,0.0,0.0,0.0,0.0,0.0,0.0,0.0,0.0,0.0,0.0,0.0,0.0,0.0,0.0,0.0,0.0,0.0,0.0,0.0,0.0,0.0,0.0,0.0,0.0,0.0,0.0,0.0,0.0,0.0,0.0,0.0,0.0,0.7012,0.8491,0.9451,0.9785,0.9203,0.9452,0.8647,0.6362,0.0,0.0,0.0,0.0,0.0,0.0,0.0,0.0,0.0,0.0,0.0,0.0,0.0,0.0,0.0,0.0,0.0,0.0,0.0,0.0,0.0,0.0,0.0,0.0,0.0,0.0,0.0,0.0,0.0,0.0,0.0,0.0,0.0,0.0,0.0,0.0,0.0,0.0,0.0,0.0,0.0,0.0,0.0,0.0,0.0,0.0,0.0,0.0,0.0,0.0,0.0,0.0,0.0,0.0,0.0,0.0,0.0,0.0,0.0,0.0,0.0,0.0,0.0,0.0,0.0,0.0,0.0,0.0,0.0,0.0,0.0,0.0,0.0,0.0,0.0,0.0,0.0,0.0,0.0,0.0,0.0,0.0,0.0,0.0,0.0,0.0,0.0,0.0,0.0,0.0,0.0,0.0,0.0,0.0,0.0,0.0,0.0,0.0,0.0,0.0,0.0,0.0,0.0,0.5562,0.7338,0.9071,0.9664,0.9712,0.9159,0.9292,0.8367,0.5906,0.354,0.0,0.0,0.0,0.0,0.0,0.0,0.0,0.0,0.0,0.0,0.0,0.0,0.0,0.0,0.0,0.0,0.0,0.0,0.0,0.0,0.0,0.0,0.0,0.0,0.0,0.0,0.0,0.0,0.0,0.0,0.0,0.0,0.0,0.0,0.0,0.0,0.0,0.0,0.0,0.0,0.0,0.0,0.0,0.0,0.0,0.0,0.0,0.0,0.0,0.0,0.0,0.0,0.0,0.0,0.0,0.0,0.0,0.0,0.0,0.0,0.0,0.0,0.0,0.0,0.0,0.0,0.0,0.0,0.0,0.0,0.0,0.0,0.0,0.0,0.0,0.0,0.0,0.0,0.0,0.0,0.0,0.0,0.0,0.0,0.0,0.0,0.0,0.0,0.0,0.0,0.0,0.0,0.0,0.0,0.0,0.0,0.0,0.0,0.0,0.0,0.0,0.0,0.6729,0.7558,0.9131,0.9762,0.9946,0.9482,0.8848,0.7509,0.5365,0.223,0.0,0.0,0.0,0.0,0.0,0.0,0.0,0.0,0.0,0.0,0.0,0.0,0.0,0.0,0.0,0.0,0.0,0.0,0.0,0.0,0.0,0.0,0.0,0.0,0.0,0.0,0.0,0.0,0.0,0.0,0.0,0.0,0.0,0.0,0.0,0.0,0.0,0.0,0.0,0.0,0.0,0.0,0.0,0.0,0.0,0.0,0.0,0.0,0.0,0.0,0.0,0.0,0.0,0.0,0.0,0.0,0.0,0.0,0.0,0.0,0.0,0.0,0.0,0.0,0.0,0.0,0.0,0.0,0.0,0.0,0.0,0.0,0.0,0.0,0.0,0.0,0.0,0.0,0.0,0.0,0.0,0.0,0.0,0.0,0.0,0.0,0.0,0.0,0.0,0.0,0.0,0.0,0.0,0.0,0.0,0.0,0.0,0.0,0.0,0.0,0.0,0.0,0.6531,0.8125,0.9444,0.9984,1.0164,0.9951,0.7859,0.5631,0.3271,0.0123,0.0,0.0,0.0,0.0,0.0,0.0,0.0,0.0,0.0,0.0,0.0,0.0,0.0,0.0,0.0,0.0,0.0,0.0,0.0,0.0,0.0,0.0,0.0,0.0,0.0,0.0,0.0,0.0,0.0,0.0,0.0,0.0,0.0,0.0,0.0,0.0,0.0,0.0,0.0,0.0,0.0,0.0,0.0,0.0,0.0,0.0,0.0,0.0,0.0,0.0,0.0,0.0,0.0,0.0,0.0,0.0,0.0,0.0,0.0,0.0,0.0,0.0,0.0,0.0,0.0,0.0,0.0,0.0,0.0,0.0,0.0,0.0,0.0,0.0,0.0,0.0,0.0,0.0,0.0,0.0,0.0,0.0,0.0,0.0,0.0,0.0,0.0,0.0,0.0,0.0,0.0,0.0,0.0,0.0,0.0,0.0,0.0,0.0,0.0,0.0,0.0,0.0,0.7808,0.9268,0.0,1.0343,1.045,1.0226,0.8858,0.6493,0.2836,0.0,0.0,0.0,0.0,0.0,0.0,0.0,0.0,0.0,0.0,0.0,0.0,0.0,0.0,0.0,0.0,0.0,0.0,0.0,0.0,0.0,0.0,0.0,0.0,0.0,0.0,0.0,0.0,0.0,0.0,0.0,0.0,0.0,0.0,0.0,0.0,0.0,0.0,0.0,0.0,0.0,0.0,0.0,0.0,0.0,0.0,0.0,0.0,0.0,0.0,0.0,0.0,0.0,0.0,0.0,0.0,0.0,0.0,0.0,0.0,0.0,0.0,0.0,0.0,0.0,0.0,0.0,0.0,0.0,0.0,0.0,0.0,0.0,0.0,0.0,0.0,0.0,0.0,0.0,0.0,0.0,0.0,0.0,0.0,0.0,0.0,0.0,0.0,0.0,0.0,0.0,0.0,0.0,0.0,0.0,0.0,0.0,0.0,0.0,0.0,0.0,0.0,0.6648,0.8466,0.9786,0.0,1.0443,1.0479,1.0323,0.8979,0.6508,0.2662,0.0,0.0,0.0,0.0,0.0,0.0,0.0,0.0,0.0,0.0,0.0,0.0,0.0,0.0,0.0,0.0,0.0,0.0,0.0,0.0,0.0,0.0,0.0,0.0,0.0,0.0,0.0,0.0,0.0,0.0,0.0,0.0,0.0,0.0,0.0,0.0,0.0,0.0,0.0,0.0,0.0,0.0,0.0,0.0,0.0,0.0,0.0,0.0,0.0,0.0,0.0,0.0,0.0,0.0,0.0,0.0,0.0,0.0,0.0,0.0,0.0,0.0,0.0,0.0,0.0,0.0,0.0,0.0,0.0,0.0,0.0,0.0,0.0,0.0,0.0,0.0,0.0,0.0,0.0,0.0,0.0,0.0,0.0,0.0,0.0,0.0,0.0,0.0,0.0,0.0,0.0,0.0,0.0,0.0,0.0,0.0,0.0,0.0,0.0,0.0,0.0,0.0,0.5892,0.8084,0.9666,0.9921,1.0178,1.0272,1.0272,0.7862,0.5184,0.0,0.0,0.0,0.0,0.0,0.0,0.0,0.0,0.0,0.0,0.0,0.0,0.0,0.0,0.0,0.0,0.0,0.0,0.0,0.0,0.0,0.0,0.0,0.0,0.0,0.0,0.0,0.0,0.0,0.0,0.0,0.0,0.0,0.0,0.0,0.0,0.0,0.0,0.0,0.0,0.0,0.0,0.0,0.0,0.0,0.0,0.0,0.0,0.0,0.0,0.0,0.0,0.0,0.0,0.0,0.0,0.0,0.0,0.0,0.0,0.0,0.0,0.0,0.0,0.0,0.0,0.0,0.0,0.0,0.0,0.0,0.0,0.0,0.0,0.0,0.0,0.0,0.0,0.0,0.0,0.0,0.0,0.0,0.0,0.0,0.0,0.0,0.0,0.0,0.0,0.0,0.0,0.0,0.0,0.0,0.0,0.0,0.0,0.0,0.0,0.0,0.0,0.0,0.5699,0.7781,0.928,0.9979,0.9899,0.9813,0.9813,0.875,0.6864,0.4006,0.0,0.0,0.0,0.0,0.0,0.0,0.0,0.0,0.0,0.0,0.0,0.0,0.0,0.0,0.0,0.0,0.0,0.0,0.0,0.0,0.0,0.0,0.0,0.0,0.0,0.0,0.0,0.0,0.0,0.0,0.0,0.0,0.0,0.0,0.0,0.0,0.0,0.0,0.0,0.0,0.0,0.0,0.0,0.0,0.0,0.0,0.0,0.0,0.0,0.0,0.0,0.0,0.0,0.0,0.0,0.0,0.0,0.0,0.0,0.0,0.0,0.0,0.0,0.0,0.0,0.0,0.0,0.0,0.0,0.0,0.0,0.0,0.0,0.0,0.0,0.0,0.0,0.0,0.0,0.0,0.0,0.0,0.0,0.0,0.0,0.0,0.0,0.0,0.0,0.0,0.0,0.0,0.0,0.0,0.0,0.0,0.0,0.0,0.0,0.0,0.0,0.0,0.5214,0.7296,0.8782,0.9224,0.9177,0.9076,0.9059,0.8738,0.737,0.4736,0.0,0.0,0.0,0.0,0.0,0.0,0.0,0.0,0.0,0.0,0.0,0.0,0.0,0.0,0.0,0.0,0.0,0.0,0.0,0.0,0.0,0.0,0.0,0.0,0.0,0.0,0.0,0.0,0.0,0.0,0.0,0.0,0.0,0.0,0.0,0.0,0.0,0.0,0.0,0.0,0.0,0.0,0.0,0.0,0.0,0.0,0.0,0.0,0.0,0.0,0.0,0.0,0.0,0.0,0.0,0.0,0.0,0.0,0.0,0.0,0.0,0.0,0.0,0.0,0.0,0.0,0.0,0.0,0.0,0.0,0.0,0.0,0.0,0.0,0.0,0.0,0.0,0.0,0.0,0.0,0.0,0.0,0.0,0.0,0.0,0.0,0.0,0.0,0.0,0.0,0.0,0.0,0.0,0.0,0.0,0.0,0.0,0.0,0.0,0.0,0.0,0.0,0.4409,0.6682,0.8247,0.8245,0.8299,0.8275,0.8185,0.8049,0.7076,0.5137,0.0,0.0,0.0,0.0,0.0,0.0,0.0,0.0,0.0,0.0,0.0,0.0,0.0,0.0,0.0,0.0,0.0,0.0,0.0,0.0,0.0,0.0,0.0,0.0,0.0,0.0,0.0,0.0,0.0,0.0,0.0,0.0,0.0,0.0,0.0,0.0,0.0,0.0,0.0,0.0,0.0,0.0,0.0,0.0,0.0,0.0,0.0,0.0,0.0,0.0,0.0,0.0,0.0,0.0,0.0,0.0,0.0,0.0,0.0,0.0,1.2465,0.0,0.0,0.0,0.0,0.0,0.0,0.0,0.0,0.0,0.0,0.0,0.0,0.0,0.0,0.0,0.0,0.0,0.0,0.0,0.0,0.0,0.0,0.0,0.0,0.0,0.0,0.0,0.0,0.0,0.0,0.0,0.0,0.0,0.0,0.0,0.0,0.0,0.0,0.0,0.0,0.0,0.3449,0.6218,0.8317,0.8239,0.8394,0.8357,0.7925,0.7962,0.7565,0.6531,0.4915,0.0,0.0,0.0,0.0,0.0,0.0,0.0,0.0,0.0,0.0,0.0,0.0,0.0,0.0,0.0,0.0,0.0,0.0,0.0,0.0,0.0,0.0,0.0,0.0,0.0,0.0,0.0,0.0,0.0,0.0,0.0,0.0,0.0,0.0,0.0,0.0,0.0,0.0,0.0,0.0,0.0,0.0,0.0,0.0,0.0,0.0,0.0,0.0,0.0,0.0,0.0,0.0,0.0,0.0,0.0,0.0,0.0,0.0,0.0,0.0,1.5088,0.0,0.0,0.0,0.0,0.0,0.0,0.0,0.0,0.0,0.0,0.0,0.0,0.0,0.0,0.0,0.0,0.0,0.0,0.0,0.0,0.0,0.0,0.0,0.0,0.0,0.0,0.0,0.0,0.0,0.0,0.0,0.0,0.0,0.0,0.0,0.0,0.0,0.0,0.0,0.0,0.3158,0.6248,0.8388,0.8139,0.8341,0.8185,0.7397,0.7457,0.7154,0.6226,0.5204,0.0,0.0,0.0,0.0,0.0,0.0,0.0,0.0,0.0,0.0,0.0,0.0,0.0,0.0,0.0,0.0,0.0,0.0,0.0,0.0,0.0,0.0,0.0,0.0,0.0,0.0,0.0,0.0,0.0,0.0,0.0,0.0,0.0,0.0,0.0,0.0,0.0,0.0,0.0,0.0,0.0,0.0,0.0,0.0,0.0,0.0,0.0,0.0,0.0,0.0,0.0,0.0,0.0,1.819,1.9146,2.0625,2.0406,2.0406,2.0456,1.8716,1.7958,1.7925,1.7006,0.0,0.0,0.0,0.0,0.0,0.0,0.0,0.0,0.0,0.0,0.0,0.0,0.0,0.0,0.0,0.0,0.0,0.0,0.0,0.0,0.0,0.0,0.0,0.0,1.5072,1.4976,0.0,0.0,0.0,0.0,0.0,0.0,0.0,0.0,0.0,0.0,0.0,0.0,0.3645,0.6565,0.856,0.8142,0.8205,0.792,0.7011,0.6939,0.6526,0.5449,0.5143,0.4387,0.0,0.0,0.0,0.0,0.0,0.0,0.0,0.0,0.0,0.0,0.0,0.0,0.0,0.0,0.0,0.0,0.0,0.0,0.0,0.0,0.0,0.0,0.0,0.0,0.0,0.0,0.0,0.0,0.0,0.0,0.0,0.0,1.4148,1.5023,0.0,0.0,0.0,0.0,0.0,0.0,0.0,0.0,0.0,0.0,0.0,0.0,0.0,1.8922,1.8728,2.0377,2.1141,2.0869,2.0941,2.112,2.1366,2.1318,2.1196,2.1045,2.08,0.0,1.8933,1.7833,0.0,0.0,0.0,0.0,0.0,0.0,0.0,0.0,0.0,0.0,0.0,0.0,0.0,0.0,0.0,0.0,0.0,0.0,0.0,0.0,0.0,0.0,1.3761,1.5276,1.5526,1.5235,0.0,1.2485,1.0385,0.9733,0.8739,0.0,0.0,0.0,0.0,0.0,0.0,0.0,0.546,0.7606,0.8953,0.8896,0.8636,0.8207,0.7297,0.6622,0.6022,0.5527,0.4579,0.4258,0.4872,0.3632,0.0,0.0,0.0,0.0,0.0,0.0,0.0,0.0,0.0,0.0,0.0,0.0,0.0,0.0,0.0,0.0,0.0,0.0,0.0,0.0,0.0,0.0,0.0,0.0,0.0,0.0,0.0,0.0,0.0,1.3737,1.5215,1.6791,1.5492,1.4785,0.0,0.0,0.0,0.0,0.0,0.0,0.0,0.0,0.0,1.8369,2.0386,2.1397,2.1247,2.1957,2.215,2.1683,2.154,2.1585,2.1627,2.1326,2.1144,2.1163,2.1084,2.0517,1.9742,1.9056,1.8774,1.836,0.0,0.0,0.0,0.0,1.292,1.3597,1.3943,1.4934,0.0,1.589,0.0,0.0,0.0,0.0,0.0,0.0,0.0,0.0,0.0,0.0,1.504,1.6063,1.587,1.5345,1.5167,1.347,1.1978,0.0,1.1016,0.9795,0.748,0.0,0.0,0.0,0.0,0.56,0.6235,0.8085,0.9204,0.8854,0.8521,0.7824,0.6518,0.5893,0.5223,0.444,0.3891,0.3369,0.2943,0.3182,0.2437,0.0,0.0,0.0,0.0,0.0,0.0,0.0,0.0,0.0,0.0,0.0,0.0,0.0,0.0,0.0,0.0,0.0,0.0,0.0,0.0,0.0,0.0,0.0,0.0,0.0,0.0,0.0,0.0,1.4839,1.6294,1.8336,1.7205,1.6701,0.0,0.0,0.0,0.0,0.0,0.0,1.6727,1.8913,2.0243,2.0375,2.2134,2.2963,2.2907,2.2776,2.2532,2.2207,2.1955,2.1854,2.1968,2.152,2.1265,2.1343,2.1205,2.0936,2.0505,2.0112,1.9647,1.8896,1.7441,1.6532,1.5818,1.5219,1.5539,1.642,1.7025,1.8315,1.952,1.9178,0.0,1.9036,1.7004,0.0,0.0,0.0,0.0,1.3071,1.4336,1.5252,1.5968,1.6254,1.5793,1.5161,1.4846,1.3867,1.307,0.0,1.2143,1.1393,1.0069,0.0,0.0,0.0,0.0,0.6893,0.74,0.8666,0.934,0.8811,0.8285,0.7474,0.594,0.5341,0.4603,0.373,0.3301,0.2385,0.096,0.2101,0.195,0.0239,0.0,0.0,0.0,0.0,0.0,0.0,0.0,0.0,0.0,0.0,0.0,0.0,0.0,0.0,0.0,0.0,0.0,0.0,0.0,0.0,0.0,0.0,0.0,0.0,0.0,0.0,0.0,0.0,0.0,1.8398,1.8833,0.0,0.0,0.0,0.0,1.7308,1.7492,1.8218,1.9609,2.0812,2.1564,2.1621,2.2741,2.3433,2.3481,2.3424,2.3347,2.3076,2.2824,2.257,2.2403,2.2366,2.2148,2.1797,2.175,2.1598,2.1409,2.078,2.0024,1.926,1.9146,1.8701,1.8193,1.8325,1.834,1.8412,1.8633,1.8875,1.9106,1.8885,1.8617,1.8289,1.7959,1.6287,0.0,0.0,1.5396,1.4238,1.5931,1.6079,1.5717,1.5486,1.512,1.4654,1.3959,1.3601,1.3181,0.0,1.0971,0.9737,0.8852,0.0,0.6824,0.8815,0.7797,0.7652,0.9886,0.9644,0.9262,0.9257,0.8197,0.7166,0.6334,0.5284,0.4422,0.3909,0.2888,0.1709,0.0357,0.0086,0.0587,0.1922,0.2339,0.0,0.0,0.0,0.0,0.0,0.0,0.0,0.0,0.0,0.0,0.0,0.0,0.0,0.0,0.0,0.0,0.0,0.0,0.0,0.0,0.0,0.0,0.0,0.0,0.0,0.0,0.0,0.0,1.8903,1.8633,0.0,1.9973,1.8561,1.8112,1.9454,1.9749,2.014,2.0632,2.1655,2.2132,2.1924,2.2629,2.2884,2.2635,2.2968,2.3097,2.3001,2.2843,2.2794,2.2872,2.2428,2.2236,2.2083,2.189,2.1678,2.1227,2.0828,2.0182,1.9481,1.9219,1.891,1.8613,1.922,1.937,1.9242,1.9726,1.9971,1.9971,1.9755,1.9125,1.8519,1.8578,1.7515,1.6353,1.6951,1.6096,1.515,1.5874,1.5736,1.5486,1.5474,1.5186,1.4668,1.3938,1.3195,1.2378,1.1326,1.0732,0.9986,0.9,0.8193,0.7897,0.8489,0.8462,0.8656,0.9244,0.9279,0.8901,0.8364,0.7465,0.6598,0.5577,0.4459,0.3191,0.1528,0.1012,-0.0,-0.1664,-0.0433,0.0085,-0.0251,0.0489,0.031,0.0,0.0,0.0,0.0,0.0,0.0,0.0,0.0,0.0,0.0,0.0,0.0,0.0,0.0,0.0,0.0,0.0,0.0,0.0,0.0,0.0,0.0,0.0,0.0,0.0,0.0,1.8944,1.9302,1.9284,1.9655,2.0769,1.9963,1.9743,2.0549,2.0687,2.0665,2.0598,2.1538,2.1923,2.169,2.2001,2.2234,2.2453,2.2413,2.2621,2.3087,2.3018,2.3154,2.3222,2.2688,2.2476,2.2371,2.2177,2.1796,2.1278,2.0872,2.0295,1.9626,1.8529,1.7929,1.7733,1.7605,1.7578,1.7746,1.8899,1.961,1.991,1.9541,1.8784,1.8027,1.8219,1.7503,1.6657,1.6863,1.6284,1.573,1.5835,1.558,1.5255,1.5095,1.4648,1.3994,1.2791,1.218,1.1389,0.9924,0.9544,0.931,0.8652,0.8116,0.776,0.7933,0.8464,0.8705,0.8521,0.854,0.8272,0.764,0.691,0.6037,0.5107,0.3747,0.2135,0.0254,-0.0253,-0.1352,-0.3259,-0.2405,-0.1941,-0.2104,-0.0855,-0.0673,-0.1513,0.0,0.0,0.0,0.0,0.0,0.0,0.0,0.0,0.0,0.0,0.0,0.0,0.0,0.0,0.0,0.0,0.0,0.0,0.0,0.0,0.0,0.0,0.0,1.7121,1.8622,1.9792,1.9778,2.0922,2.1561,2.1135,2.1019,2.0786,2.0497,2.0151,1.9889,1.9647,2.0509,2.0997,2.1073,2.0923,2.1541,2.2992,2.1864,2.2013,2.3444,2.3454,2.3464,2.3484,2.3212,2.295,2.2803,2.253,2.2108,2.1512,2.1128,2.055,1.9643,1.739,1.6254,1.569,1.3971,1.3506,1.4064,1.6273,1.7877,1.88,1.8247,1.7541,1.689,1.6899,1.6297,1.5773,1.625,1.6025,1.5688,1.5689,1.5413,1.4952,1.4232,1.3601,1.257,1.0377,1.0452,1.0273,0.8178,0.761,0.7483,0.7698,0.6874,0.6428,0.7312,0.7676,0.0,0.7974,0.7545,0.7275,0.7279,0.6453,0.558,0.5018,0.3094,0.1437,0.0345,-0.0594,-0.2182,-0.4365,-0.5569,-0.5219,-0.3158,-0.1317,-0.1009,-0.2446,0.0,0.0,0.0,0.0,0.0,0.0,0.0,0.0,0.0,0.0,0.0,0.0,0.0,0.0,0.0,0.0,0.0,0.0,0.0,0.0,0.0,0.0,2.0102,1.9576,2.0684,2.141,2.1202,2.133,2.1474,2.1549,2.1296,2.1255,2.1697,2.1043,2.0829,2.1213,2.1043,2.0551,1.9823,2.0451,2.0711,2.043,2.1133,2.1848,2.2585,2.1958,2.2194,2.3293,2.2227,2.2138,2.2803,2.2882,2.237,2.154,2.1522,2.0894,1.9779,1.8885,1.8491,1.8529,1.7988,1.8055,1.8527,1.8929,1.924,1.9331,1.8843,1.8186,1.7395,1.7071,1.5747,1.4223,1.3897,1.2862,1.1723,1.1396,1.206,1.2709,1.2192,1.2487,1.2474,1.1042,1.045,0.9752,0.827,0.721,0.6786,0.7446,0.7045,0.6722,0.6982,0.7052,0.0,0.7086,0.691,0.6639,0.6093,0.5349,0.4665,0.4212,0.2745,0.1305,-0.0085,-0.0434,-0.1302,-0.294,-0.2391,-0.2069,-0.196,-0.2567,-0.2836,0.0,0.0,0.0,0.0,0.0,0.0,0.0,0.0,0.0,0.0,0.0,0.0,0.0,0.0,0.0,0.0,0.0,0.0,0.0,0.0,0.0,0.0,1.9565,2.0955,2.1319,2.2046,2.2367,2.1795,2.1544,2.1544,2.1696,2.1555,2.1763,2.2347,2.1763,2.1419,2.1528,2.1545,2.0732,1.8963,2.0078,2.0352,1.9647,2.0518,2.1451,2.2461,2.1883,2.2154,2.3271,2.232,2.2294,0.0,2.2969,2.237,2.1549,2.1644,2.1005,0.0,0.0,0.0,0.0,0.0,1.7782,1.8529,1.8556,1.8783,1.8939,1.84,1.7624,1.6823,1.6411,1.5198,1.3919,1.355,1.2628,1.1701,1.155,1.1992,1.2315,1.186,1.1812,1.1576,1.0026,0.9468,0.8743,0.7348,0.6688,0.0,0.6816,0.6475,0.6158,0.6358,0.6406,0.6294,0.6079,0.5904,0.5631,0.5172,0.4618,0.4122,0.3678,0.2379,0.0,0.0,0.0,-0.178,-0.1959,-0.1606,0.0,0.0,0.0,0.0,0.0,0.0,0.0,0.0,-0.2935,-0.344,0.0,0.0,0.0,0.0,0.0,0.0,0.0,0.0,0.0,0.0,0.0,0.0,0.0,0.0,0.0,0.0,2.025,2.0963,2.2389,2.2913,2.2808,2.19,2.1754,2.1731,2.1752,2.1918,2.2203,2.2707,2.2275,2.1799,2.1207,0.0,0.0,0.0,0.0,2.0302,1.9873,2.0188,2.1115,2.2686,2.2362,2.2603,2.3286,2.2844,2.2761,2.2989,2.2862,2.2311,2.1528,2.1614,2.101,1.9907,1.7785,1.6735,1.6329,1.4956,1.5263,1.6496,1.686,0.0,0.0,1.7321,1.658,1.5774,1.5292,1.4536,1.392,1.3961,1.3617,1.3236,1.341,1.3164,1.2725,1.2156,1.1442,1.0373,0.8483,0.8104,0.7591,0.6026,0.6285,0.6514,0.601,0.5448,0.522,0.5654,0.5652,0.5507,0.5141,0.4695,0.442,0.4328,0.0,0.0,0.3233,0.2075,0.092,0.0082,-0.196,-0.2583,-0.1336,-0.206,-0.2143,-0.1455,-0.1022,-0.074,-0.0681,0.0698,0.1021,0.0392,-0.1612,-0.2301,0.0,0.0,0.0,0.0,0.0,0.0,0.0,0.0,0.0,0.0,0.0,0.0,0.0,0.0,0.0,1.9532,2.1025,2.2287,2.27,2.3198,2.3191,2.2366,2.24,2.2442,2.229,2.2428,2.2705,2.3068,2.2149,2.1576,2.174,2.086,1.9771,1.8337,1.9503,1.9992,1.9496,2.0352,2.1208,2.1989,0.0,0.0,2.212,2.1393,2.1542,2.2409,2.2824,2.2658,2.1975,2.2142,2.1346,1.9867,1.9059,1.8682,1.8635,1.8179,1.8223,1.8434,1.8382,1.8072,1.7764,1.7293,1.6456,1.5636,1.4975,1.3539,0.0,1.1566,1.0419,0.9262,0.9112,0.9867,1.0515,0.977,1.0018,1.0104,0.8752,0.8272,0.7655,0.6349,0.644,0.6514,0.5826,0.5675,0.5614,0.5613,0.5413,0.5024,0.4512,0.4414,0.4144,0.3517,0.325,0.2976,0.2603,0.1513,0.0527,-0.0258,-0.1183,-0.1407,-0.0889,-0.1036,-0.0707,0.0155,0.0928,0.1164,0.0857,0.1411,0.1257,0.055,-0.0232,-0.0848,0.0,0.0,0.0,0.0,0.0,0.0,0.0,0.0,0.0,0.0,0.0,1.8857,1.9337,0.0,2.0052,2.0772,2.1407,2.2081,2.2906,2.3374,2.3397,2.2795,2.2902,2.3018,2.29,2.296,2.3041,2.2902,2.2402,2.18,2.135,2.0998,2.0072,1.8322,1.9829,2.0103,1.9041,2.0321,2.1205,2.1512,2.0722,2.0869,2.163,2.1111,2.1272,2.187,2.238,2.2303,2.178,2.1517,2.0898,1.9978,1.9243,1.8848,1.8834,1.8993,1.8763,1.8523,1.8362,1.7907,1.7193,1.6704,1.6103,1.5304,1.4624,1.3481,1.2392,1.2042,1.105,1.0135,1.0171,1.0283,1.0368,0.9992,0.9782,0.96,0.8815,0.8178,0.7521,0.6662,0.6698,0.6634,0.5898,0.5892,0.5866,0.5383,0.5094,0.4714,0.4129,0.3676,0.3227,0.2871,0.2602,0.2244,0.1885,0.1244,0.035,-0.0772,-0.1174,-0.123,-0.1041,-0.0566,-0.0161,0.0314,0.1192,0.1591,0.1493,0.1887,0.165,0.0707,-0.0628,-0.1178,0.0,0.0,0.0,0.0,0.0,0.0,0.0,0.0,2.0513,2.0182,2.0565,2.1096,2.1565,2.1219,2.1138,2.1935,2.149,2.1571,2.297,2.339,2.3453,2.301,2.3372,2.3523,2.3372,2.3441,2.3228,2.2639,2.2567,2.2071,2.1026,2.1314,2.0665,1.8796,2.0188,2.0371,1.9142,2.0453,2.1205,2.1359,2.1205,2.1241,2.1422,2.1271,2.1244,2.1399,2.1777,2.1703,2.1342,2.0589,2.0116,1.9871,1.8963,1.846,1.8362,1.8763,1.8514,1.7951,1.7878,1.7318,1.6507,1.608,1.5551,1.4943,1.4335,1.3755,1.3319,1.3144,1.2573,1.2074,1.2231,1.1617,1.0894,1.0765,1.0019,0.9133,0.8825,0.8113,0.7406,0.6904,0.6902,0.6707,0.6101,0.6128,0.6056,0.5143,0.4846,0.4569,0.3946,0.3141,0.2693,0.2513,0.2154,0.1885,0.1615,0.1144,0.0344,-0.0843,-0.0989,-0.1047,-0.1022,-0.04,0.008,0.0314,0.1041,0.1442,0.165,0.2202,0.1808,0.0628,-0.1178,-0.1572,1.9497,2.0306,2.1807,2.1411,2.1799,2.2046,0.0,0.0,2.0952,1.9721,2.0329,2.097,2.0734,2.0423,2.0572,2.1674,2.164,2.1767,2.254,2.3189,2.3329,2.2593,2.3628,2.4151,2.3488,2.3701,2.348,2.2601,2.2252,2.2013,2.1833,2.0935,2.0498,2.0498,2.0358,2.0414,2.0891,2.0934,2.1205,2.1731,2.1205,2.1013,2.1218,2.1223,2.1089,2.0976,2.0995,2.1016,2.0904,1.9877,1.93,1.9064,1.858,1.8236,1.8121,1.8362,1.8193,1.77,1.7554,1.6754,1.5778,1.5575,1.5029,1.4516,1.4161,1.3628,1.315,1.313,1.2549,1.2047,1.2078,1.1745,1.1361,1.06,1.0019,0.9327,0.863,0.7933,0.7259,0.6769,0.6762,0.6638,0.6244,0.6204,0.6087,0.5245,0.507,0.4656,0.3765,0.3499,0.3229,0.2603,0.2424,0.2244,0.2154,0.1145,0.0517,0.0337,0.0,-0.0161,-0.0157,-0.0079,0.0472,0.1493,0.1576,0.1655,0.165,0.1965,0.1415,0.0079,-0.0157,-0.0707,1.9564,2.0357,2.168,0.0,2.2393,2.3073,2.2934,2.2908,2.2561,2.1274,2.1372,2.138,2.0443,2.0004,2.0074,0.0,2.0914,2.1268,2.255,2.2857,2.3096,2.3329,2.3213,2.3106,2.3067,2.2817,2.2368,2.1674,2.1869,2.1607,2.0582,2.0472,2.039,2.0212,2.003,2.0169,2.0813,2.0823,2.1019,2.1425,2.1282,2.1205,2.1215,2.1095,2.0986,2.0889,2.0337,2.0384,2.0671,1.9603,1.912,1.892,1.8357,1.8031,1.787,1.8112,1.7789,1.7327,1.7119,1.6438,1.5546,1.5389,1.4926,1.4448,1.4069,1.3646,1.3327,1.311,1.2608,1.1961,1.1955,1.159,1.0998,1.0511,1.0019,0.9402,0.8905,0.825,0.7697,0.7225,0.7098,0.6983,0.6557,0.6391,0.6158,0.5618,0.5129,0.4656,0.4121,0.3674,0.3227,0.278,0.2573,0.2379,0.2291,0.1923,0.1457,0.1076,0.0828,0.0734,0.0787,0.0956,0.1355,0.1808,0.2073,0.2073,0.1887,0.1729,0.1257,0.0471,-0.0157,-0.0943,1.9755,0.0,0.0,2.1983,2.3068,2.4033,2.4022,2.396,2.3632,2.2451,2.2104,2.1604,2.0291,1.9846,1.9793,2.0331,2.0312,2.0795,2.2349,2.2387,2.24,2.297,2.1922,2.1381,2.2055,2.1901,2.1677,2.1392,2.1871,2.1533,2.0122,2.0349,2.0346,1.9877,1.9808,2.0031,2.0487,2.0767,2.1066,2.1318,2.1517,2.1512,2.1282,2.0896,2.0752,2.0716,1.9903,1.9752,2.0099,1.915,1.8707,1.8599,1.807,1.7708,1.7538,1.7627,1.7302,1.6844,1.6591,1.6,1.5205,1.4993,1.4681,1.4347,1.3903,1.356,1.3297,1.3075,1.2565,1.1975,1.1878,1.1346,1.0724,1.0529,1.0002,0.9445,0.912,0.8585,0.8048,0.7743,0.7506,0.7309,0.6947,0.6678,0.6343,0.5988,0.5366,0.4837,0.4478,0.3851,0.3307,0.3022,0.2719,0.2528,0.2455,0.2256,0.2039,0.1564,0.1491,0.1392,0.1496,0.1759,0.1921,0.1964,0.2238,0.2319,0.22,0.1728,0.1335,0.0942,0.0079,-0.0786,2.0209,0.0,2.2643,2.3418,2.4655,2.5439,2.4627,2.4124,2.3492,2.2396,2.2013,2.1502,2.0096,1.977,1.9931,2.0222,2.016,2.0579,2.1939,2.155,2.1004,2.0716,1.9437,1.9024,0.0,2.124,2.1976,2.2328,2.2392,2.2105,2.1387,2.0957,2.0512,2.0073,1.9856,1.9906,2.037,2.1032,2.1481,2.1722,2.1741,2.1655,2.1425,2.0654,2.0352,2.0284,1.9636,1.917,1.9038,1.8299,1.7887,1.7716,1.7473,1.731,1.7057,1.6812,1.6566,1.6394,1.5906,1.5249,1.4671,1.4277,1.3952,1.3787,1.3621,1.3326,1.3102,1.2887,1.237,1.1975,1.1683,1.1245,1.081,1.0523,0.9901,0.9291,0.91,0.8506,0.8117,0.8113,0.78,0.7514,0.7514,0.7064,0.6704,0.6432,0.5985,0.5455,0.4748,0.4208,0.3732,0.3396,0.3044,0.2719,0.2508,0.1985,0.1766,0.1932,0.1731,0.1693,0.1889,0.1888,0.1965,0.2195,0.2198,0.2276,0.251,0.2196,0.1803,0.1254,0.0942,0.0,2.0248,0.0,2.3336,2.3973,2.5057,2.5819,2.5239,2.4813,2.4146,2.2751,2.2433,2.1916,2.0398,2.015,2.0325,2.074,2.0555,2.0786,2.2238,2.2092,2.1911,2.2081,2.0992,0.0,0.0,0.0,0.0,2.0563,2.1209,2.1282,2.0576,2.119,2.1321,2.0838,2.045,2.0371,2.0451,2.0776,2.1093,2.1481,2.158,2.1436,2.1061,2.0586,2.0108,1.9794,1.9161,1.8683,1.8282,1.7797,1.7465,1.7294,1.7057,1.6812,1.6558,1.6147,1.605,1.6022,1.5979,1.5404,1.4815,1.4792,1.4411,1.3988,1.3619,1.3225,1.2831,1.2598,1.2073,1.148,1.138,1.1029,1.0585,1.0403,1.0068,0.9798,0.94,0.896,0.8517,0.8488,0.8067,0.768,0.7507,0.7234,0.6789,0.6257,0.5744,0.5257,0.4826,0.4297,0.3913,0.3661,0.3399,0.2966,0.2441,0.2323,0.2207,0.1932,0.1862,0.1863,0.1929,0.2217,0.2372,0.2489,0.2844,0.2979,0.2904,0.2823,0.2586,0.2353,0.1803,0.1019,2.1092,2.2483,2.4016,2.4842,2.5635,2.5967,2.5349,2.4922,2.4269,2.3032,2.2482,2.1916,2.073,2.0537,2.0649,2.0907,2.0879,2.1348,2.2795,2.2234,2.1902,2.2731,2.1346,2.0783,0.0,0.0,0.0,2.0625,2.1243,2.1339,2.0975,2.168,2.1809,2.1219,2.0928,2.0782,2.0693,2.1064,2.1333,2.1511,2.1511,2.1272,2.0819,2.0342,1.9942,1.9478,1.8843,1.8282,1.7781,1.7221,1.6804,1.6484,1.6368,1.6005,1.5673,1.5573,1.5383,1.5245,1.5441,1.5184,1.4776,1.4699,1.4253,1.3762,1.346,1.3003,1.2558,1.2308,1.1879,1.137,1.1201,1.0923,1.0643,1.0388,1.0222,1.0044,0.9741,0.9268,0.8957,0.8748,0.8376,0.8028,0.7768,0.7496,0.7034,0.6546,0.599,0.548,0.5059,0.4716,0.4335,0.3908,0.3568,0.3146,0.2469,0.2351,0.2323,0.2149,0.2239,0.2328,0.2408,0.2688,0.2844,0.2887,0.3319,0.3528,0.3454,0.337,0.3212,0.2979,0.2273,0.1489,2.2704,2.3655,2.4851,2.601,2.6302,2.6086,2.5092,2.4535,2.4014,2.3265,2.2309,2.1474,0.0,0.0,2.0771,2.0688,2.1164,2.2083,2.3629,2.1997,2.1209,0.0,0.0,0.0,0.0,0.0,0.0,2.2354,0.0,2.2127,2.224,2.2285,2.1946,2.1286,2.1197,2.1107,2.1063,2.1826,2.2049,2.1807,2.1502,2.1118,2.0566,2.0098,1.9618,1.9222,1.8594,1.7951,1.7302,1.6574,1.5937,1.5413,1.5462,1.5056,1.445,1.4926,1.4694,1.4112,1.4388,1.4471,1.4424,1.3991,1.3532,1.3117,1.3088,1.2781,1.2352,1.2109,1.1755,1.1492,1.102,1.0894,1.0851,1.0656,1.0362,1.0038,1.0038,0.9694,0.9257,0.8999,0.8727,0.8548,0.8285,0.7845,0.7439,0.7297,0.6793,0.6191,0.5527,0.5363,0.4986,0.4299,0.3651,0.3115,0.2679,0.2177,0.2142,0.2512,0.2702,0.2906,0.3067,0.3295,0.345,0.3532,0.3765,0.3999,0.4157,0.3921,0.3604,0.3132,0.2508,0.1647,2.4887,2.5747,2.6703,2.6809,2.66,2.6179,2.5126,2.4709,2.429,2.3328,2.2397,2.1663,0.0,0.0,0.0,2.1853,2.1545,0.0,2.3679,2.2786,0.0,2.2764,0.0,2.1112,2.1553,2.0409,0.0,0.0,2.1263,2.0997,2.073,2.2051,2.2559,2.1818,2.1936,2.1655,2.0794,2.0989,2.1147,2.1328,2.0634,2.0255,2.002,1.9301,1.8984,1.8816,1.7772,1.7022,1.6338,1.5752,1.5336,1.5197,1.4691,1.4462,1.4404,1.4256,1.4138,1.416,1.3884,1.4019,1.4259,1.3994,1.371,1.3386,1.3166,1.2603,1.2128,1.2062,1.1622,1.1079,1.0905,1.0834,1.0798,1.0912,1.0681,1.0554,1.0727,1.0381,0.9951,0.9777,0.9257,0.8823,0.8732,0.8288,0.8009,0.7967,0.7624,0.6983,0.6062,0.5394,0.4871,0.4365,0.3916,0.3212,0.2402,0.2371,0.2361,0.2294,0.2441,0.2768,0.3142,0.3644,0.3951,0.4017,0.4582,0.4776,0.4545,0.4618,0.4304,0.3604,0.3292,0.2429,2.6217,2.6854,2.7649,2.7359,2.7114,2.6663,2.5811,2.5051,2.423,2.3207,2.2034,0.0,2.1005,2.0952,0.0,0.0,0.0,0.0,2.3928,2.3109,2.2567,0.0,2.1981,0.0,2.1639,2.0398,1.9976,0.0,2.0753,2.076,2.1152,2.2026,2.2433,2.2213,2.2269,2.1936,2.1204,2.1112,2.1009,2.0944,2.0333,1.9967,1.9657,1.8913,1.8512,1.8162,0.0,1.6245,1.5662,1.4818,1.4411,1.4155,1.3758,1.3584,1.3532,1.362,1.3673,1.3684,1.3567,1.3619,1.3731,1.3761,1.3512,1.3345,1.3108,1.259,1.1978,1.1955,1.1589,1.1131,1.0975,1.1069,1.1118,1.1094,1.1154,1.116,1.1154,1.0895,1.0554,1.0207,0.9602,0.917,0.917,0.8907,0.8615,0.8273,0.7858,0.7215,0.6414,0.5681,0.4994,0.4321,0.3692,0.2988,0.228,0.2353,0.2431,0.2353,0.2901,0.3315,0.3601,0.4108,0.4437,0.4617,0.4962,0.5118,0.517,0.4844,0.4336,0.3663,0.3219,0.2319,2.7116,2.751,2.8057,2.7734,2.7507,2.7144,2.6478,2.5262,2.3988,2.3047,0.0,2.0607,2.0599,2.125,2.1824,2.2076,0.0,2.4094,2.4165,2.3158,2.2527,2.3028,2.1667,2.0914,2.1325,2.0117,1.96,2.0379,2.0296,2.0793,2.2163,2.2065,2.2065,2.2437,2.2105,2.1879,2.1779,2.1574,2.1138,2.0557,2.0175,1.9845,1.9348,1.8656,1.7965,1.7383,1.6426,0.0,1.4739,1.389,1.3246,1.2875,1.2871,1.2667,1.2496,1.3133,1.3226,1.3113,1.3337,1.3339,1.3174,1.3374,1.3245,1.3052,1.3052,1.2501,1.1947,1.1979,1.1703,1.1278,1.1115,1.141,1.1684,1.1462,1.1585,1.1677,1.1499,1.1241,1.0901,1.0467,1.0033,0.9767,0.9657,0.9479,0.9156,0.8535,0.7927,0.7349,0.6729,0.5959,0.5179,0.4235,0.3383,0.2676,0.2275,0.2431,0.2511,0.2511,0.3452,0.4008,0.4097,0.4565,0.493,0.5208,0.5135,0.5268,0.5624,0.4782,0.4072,0.3509,0.2824,0.1722,2.8612,2.8786,2.8872,2.7797,2.7308,2.6796,2.5535,2.4474,0.0,0.0,2.1733,2.046,2.0771,2.0679,2.0994,2.2062,2.2627,2.3131,2.392,2.2953,2.2232,0.0,0.0,0.0,0.0,0.0,0.0,0.0,0.0,1.9594,2.0699,2.1637,2.2114,2.2036,2.1193,2.0885,2.1073,2.0604,2.0293,2.0164,1.9281,1.884,1.8803,1.777,1.709,1.6668,1.5555,0.0,1.2648,1.2828,1.2491,1.1959,1.2129,1.2475,1.2845,1.2641,1.2791,1.3113,1.297,1.3162,1.3403,1.324,1.3003,1.2721,1.2537,1.2279,1.195,1.1778,1.1711,1.1598,1.1572,1.1729,1.2003,1.2203,1.2118,1.2032,1.2192,1.1671,1.116,1.0916,1.0819,1.058,1.0069,0.987,0.963,0.9004,0.8478,0.802,0.735,0.5888,0.4883,0.4633,0.3748,0.3044,0.275,0.2589,0.2589,0.2746,0.3061,0.3561,0.427,0.4836,0.5214,0.5336,0.5838,0.585,0.5368,0.503,0.4351,0.3338,0.2468,0.1383,2.8719,2.8988,2.9092,2.8292,2.7558,2.6768,2.5692,0.0,0.0,0.0,2.0986,1.9938,1.9846,1.9986,0.0,2.1123,2.1789,2.2379,2.2733,2.236,0.0,2.1371,2.0902,0.0,0.0,0.0,0.0,0.0,0.0,2.0267,2.0917,2.1686,2.1989,2.1768,2.0904,2.0286,2.0119,1.9551,1.9238,1.9132,1.8471,1.8192,1.8218,1.7428,1.6794,1.6288,1.5213,0.0,1.3261,1.2879,1.2597,1.2484,1.248,1.2778,1.3052,1.3122,1.3155,1.3301,1.3437,1.3448,1.3459,1.3422,1.3303,1.3053,1.2956,1.2783,1.2526,1.2282,1.2141,1.206,1.2088,1.2112,1.2289,1.2681,1.254,1.2375,1.2534,1.2112,1.1558,1.1096,1.09,1.0652,0.9932,0.9727,0.9445,0.8773,0.8345,0.7823,0.7194,0.6007,0.5072,0.4706,0.3801,0.3018,0.2512,0.2511,0.2431,0.2353,0.3565,0.4168,0.4055,0.5325,0.5912,0.5628,0.5715,0.5579,0.5381,0.4772,0.3968,0.299,0.2397,0.1345,2.8356,2.8703,2.8897,2.8533,2.7711,2.6778,2.5942,2.4524,0.0,0.0,2.0453,1.9592,1.9188,1.9554,1.9985,0.0,2.1162,2.182,2.1704,2.1909,2.1674,0.0,2.0367,0.0,1.9372,0.0,0.0,0.0,0.0,0.0,2.1663,2.1756,2.168,2.1469,2.0616,1.9792,1.9211,1.8638,1.8299,1.8151,1.7795,1.7604,1.7591,1.7135,1.6622,1.6001,1.5064,0.0,0.0,1.311,1.2769,1.2725,1.2876,1.3084,1.3215,1.3504,1.3534,1.3613,1.4013,1.3994,1.3786,1.4076,1.3868,1.3428,1.3338,1.3194,1.3037,1.2855,1.2659,1.2547,1.2607,1.2596,1.2616,1.2999,1.2837,1.2536,1.2451,1.2126,1.1646,1.1028,1.0829,1.0507,0.9781,0.958,0.9242,0.8563,0.8179,0.7766,0.73,0.6475,0.578,0.524,0.4014,0.2999,0.2589,0.2522,0.2523,0.2507,0.4288,0.5236,0.4968,0.6207,0.6753,0.6389,0.5712,0.5331,0.5247,0.4446,0.3624,0.2884,0.2392,0.1475,2.8071,2.8285,2.851,2.7932,2.741,2.6708,2.5507,0.0,0.0,2.254,2.1141,2.0105,2.0211,1.9875,1.9799,2.0558,0.0,2.1659,2.2019,2.1998,2.1845,2.1626,0.0,0.0,2.0009,1.8714,0.0,0.0,0.0,0.0,2.2254,2.1428,2.0821,2.0653,1.9909,1.92,1.8497,1.8288,1.7997,1.7842,1.7386,1.7135,1.703,1.6553,1.5994,1.5439,1.4675,0.0,0.0,1.2576,1.2278,1.1482,1.2172,1.2794,1.3318,1.2955,1.3312,1.4069,1.4065,1.4368,1.4702,1.5113,1.446,1.3389,1.3212,1.3114,1.3089,1.3003,1.289,1.2901,1.3243,1.3272,1.3155,1.3016,1.25,1.1912,1.1751,1.1514,1.1184,1.0751,1.0832,1.0675,0.9879,0.9833,0.9688,0.9034,0.8751,0.8574,0.8498,0.7795,0.7173,0.671,0.4783,0.3532,0.3622,0.2964,0.3127,0.4302,0.5148,0.6424,0.8486,0.7636,0.7481,0.8062,0.656,0.5553,0.4875,0.4613,0.4041,0.3217,0.2284,0.165,2.7619,2.8283,2.8785,2.8305,2.7483,2.6442,2.5176,0.0,2.2602,2.1464,2.0358,1.9512,1.9198,1.8912,1.9059,2.001,2.047,2.0984,2.1609,2.1965,2.1691,2.0742,2.046,0.0,0.0,0.0,0.0,0.0,0.0,0.0,2.1842,2.165,2.1426,2.1035,2.0164,1.9097,1.8003,1.7477,1.7102,1.6752,1.6577,1.6472,1.6508,1.6319,1.6028,1.5635,1.507,0.0,0.0,1.3318,1.2767,1.1467,1.2941,1.3683,1.3878,1.4035,1.4206,1.4575,1.481,1.4873,1.4864,1.5145,1.5027,1.4653,1.4671,1.4643,1.4525,1.3931,1.3796,1.3696,1.3466,1.3528,1.3559,1.3218,1.2916,1.2651,1.2565,1.2166,1.1632,1.1072,1.0965,1.0651,0.9797,0.9607,0.9418,0.8875,0.8627,0.8475,0.8327,0.7868,0.7407,0.7099,0.5596,0.443,0.3999,0.4101,0.4332,0.4595,0.5902,0.6889,0.7243,0.7938,0.8201,0.7986,0.8094,0.7974,0.7543,0.696,0.6309,0.5581,0.4676,0.3347,2.7012,2.8026,2.8854,2.8314,2.7432,2.6269,0.0,2.3469,2.2241,2.0726,1.9868,1.9218,1.8539,1.8337,1.8687,1.9744,2.0126,2.0747,2.1665,2.2003,2.1787,0.0,0.0,0.0,0.0,0.0,0.0,0.0,0.0,0.0,2.1223,2.1569,2.15,2.0882,1.9822,1.8749,1.7642,1.6781,1.6321,1.6167,1.5982,1.6006,1.6224,1.6123,1.588,1.5422,1.5134,0.0,0.0,1.346,1.3012,1.1566,1.3403,1.4185,1.4441,1.4716,1.4936,1.5021,1.5445,1.5412,1.5257,1.5574,1.5882,1.6158,1.6085,1.5909,1.5591,1.4867,1.462,1.4468,1.3903,1.3747,1.3775,1.3556,1.323,1.3017,1.3017,1.2544,1.1858,1.1348,1.1083,1.0642,0.9873,0.9625,0.9316,0.8937,0.878,0.8632,0.8408,0.815,0.7927,0.7569,0.6599,0.559,0.454,0.4714,0.5179,0.5983,0.716,0.7982,0.8321,0.9457,0.9794,0.9312,0.9781,0.9804,0.9528,0.8977,0.8434,0.7785,0.6506,0.4678,2.61,2.7343,2.8394,2.7605,2.7115,2.6201,2.4008,2.3217,2.2506,2.0764,1.9944,1.9407,1.8875,1.8539,1.8721,1.9868,2.0467,2.1186,2.2403,2.2361,2.2127,0.0,0.0,0.0,0.0,0.0,0.0,0.0,0.0,0.0,2.0457,2.0869,2.0534,1.9588,1.8769,1.8097,1.7552,1.6303,1.5824,1.6218,1.573,1.5737,1.6224,1.5927,1.5383,1.4756,0.0,0.0,0.0,1.2755,1.2751,1.1666,1.3185,1.4241,1.4809,1.4684,1.5047,1.5496,1.5743,1.5991,1.6226,1.6699,1.7212,1.7635,1.7194,1.6448,1.5794,1.5521,1.5366,1.515,1.4645,1.4171,1.387,1.3885,1.3198,1.2613,1.2613,1.2164,1.1639,1.1416,1.1037,1.0669,1.0293,0.9992,0.9771,0.9322,0.9473,0.9473,0.9022,0.9126,0.9013,0.8421,0.7873,0.6882,0.5488,0.4402,0.5448,0.9214,0.9024,1.0269,1.3478,1.2739,1.2499,1.2955,1.1401,1.0439,1.0119,1.0183,0.9994,0.9545,0.7349,0.524,2.5276,2.6128,2.6631,2.6118,2.5438,2.4557,2.3318,2.2379,2.1572,2.0579,1.9944,1.9407,1.8721,1.8731,1.9121,1.9912,2.0183,0.0,0.0,0.0,0.0,2.1296,2.0871,0.0,0.0,0.0,0.0,0.0,0.0,0.0,2.025,2.0095,1.9956,1.9806,1.9052,1.8177,1.7186,1.6628,1.631,1.6224,1.6028,1.6116,1.6487,1.6006,1.5677,0.0,0.0,0.0,0.0,1.3677,1.3075,1.0771,1.3454,1.4799,1.5168,1.5271,1.5652,1.6087,1.6092,1.6363,1.6849,1.7288,1.7588,1.7975,1.8168,1.7697,1.6894,1.6072,1.5716,1.5501,1.5242,1.5265,1.5262,1.4952,1.4923,1.4806,1.4485,1.4191,1.3996,1.3787,1.3273,1.2705,1.2278,1.1835,1.1391,1.1037,1.0813,1.0539,1.0159,0.981,0.9446,0.9138,0.8541,0.7531,0.6175,0.6118,0.6561,0.7415,0.8345,0.9419,1.0506,1.1735,1.277,1.3745,1.4425,1.4891,1.5192,1.4917,1.4822,1.4969,1.3727,1.3164,2.4442,2.5351,2.5823,2.5148,2.4513,2.3676,2.2518,2.1764,2.1096,2.009,1.9673,1.9339,1.8664,1.89,1.9382,1.9976,2.0209,2.073,0.0,0.0,0.0,0.0,0.0,0.0,0.0,0.0,0.0,0.0,0.0,0.0,1.9962,1.9613,1.9389,1.9255,1.8535,1.7807,1.6979,1.6494,1.64,1.6508,1.6202,1.6234,1.6679,1.6007,1.5534,0.0,0.0,0.0,0.0,1.3742,1.3355,1.1161,1.3787,1.5072,1.5418,1.5692,1.6076,1.647,1.6472,1.6788,1.73,1.7773,1.8389,1.8957,1.9483,1.8978,1.8043,1.7151,1.6827,1.6627,1.648,1.6428,1.6504,1.6603,1.6486,1.6338,1.6364,1.5943,1.5644,1.5651,1.5035,1.4466,1.4324,1.3985,1.3631,1.3065,1.2872,1.2608,1.1924,1.1461,1.1028,1.046,0.9712,0.8799,0.7702,0.7311,0.7362,0.7942,0.8655,0.9982,1.2116,1.3689,1.5295,1.7054,1.8487,1.9375,1.9856,1.981,1.9576,1.913,1.8836,1.8651,0.0,2.4816,2.5572,2.4535,2.4039,2.3343,2.1682,2.1325,0.0,1.9434,1.9273,1.921,1.8754,1.9065,1.9569,2.0008,2.0489,2.1035,0.0,0.0,0.0,0.0,0.0,0.0,0.0,0.0,0.0,0.0,0.0,0.0,1.9638,1.9356,1.8819,1.8087,1.752,1.7138,1.6943,1.6271,1.6264,1.6908,1.6146,1.619,1.6806,1.6031,1.5191,0.0,0.0,0.0,0.0,1.3366,1.3445,1.2619,1.4328,1.5155,1.549,1.6073,1.6446,1.6709,1.6955,1.7263,1.7706,1.8536,1.9564,2.0598,2.1043,2.0213,1.9058,1.8757,1.8546,1.8325,1.817,1.7794,1.7784,1.875,1.8161,1.7536,1.8167,1.7488,1.6901,1.7282,1.6734,1.6173,1.6321,1.6404,1.622,1.5527,1.5557,1.5341,1.4285,1.3968,1.3433,1.2369,1.1484,1.071,0.9976,0.8034,0.7939,1.021,0.9831,1.186,1.7034,1.79,1.9539,2.2289,2.3106,2.3659,2.4023,2.4654,2.4075,2.236,2.2847,2.2347,2.174,0.0,2.317,2.2615,2.2205,2.1666,0.0,2.0506,2.0204,1.9586,0.0,1.9304,1.9152,1.9327,1.9621,2.0146,2.0412,2.0873,2.1786,0.0,0.0,0.0,0.0,0.0,0.0,0.0,0.0,0.0,0.0,2.0497,1.9875,1.9047,1.8357,1.7815,1.7347,1.6951,1.6621,1.66,1.638,1.5979,1.6349,1.6484,1.6469,1.6235,1.5871,0.0,0.0,0.0,1.2706,1.4079,1.4365,1.4037,1.5782,1.6693,1.6899,1.7089,1.7338,1.7521,1.7996,1.8684,1.9651,2.083,2.172,2.2445,2.2518,2.1385,2.0138,2.0073,2.0084,2.016,2.0127,2.0331,2.0407,1.9875,2.0286,2.076,2.0463,2.0358,2.0384,2.0563,1.9652,1.888,1.9036,1.8636,1.8251,1.8197,1.7698,1.7038,1.6046,1.5491,1.4703,1.3419,1.3559,1.3457,1.2794,0.9812,0.8258,0.9105,1.1848,1.441,1.6606,2.007,2.2825,2.4718,2.6032,2.6799,2.7067,2.7341,2.7453,2.7471,2.8459,2.8804,2.115,2.1625,2.1904,2.1431,2.1186,2.0903,2.0205,0.0,0.0,0.0,0.0,1.9201,1.9047,1.9575,2.009,2.0248,2.0694,0.0,0.0,0.0,0.0,0.0,0.0,0.0,0.0,0.0,0.0,0.0,0.0,2.0192,1.9654,1.876,1.8041,1.7674,1.7348,1.6978,1.6675,1.685,1.6869,1.6639,1.684,1.7016,1.7079,1.6738,1.6499,0.0,0.0,0.0,1.4318,1.4448,1.4831,1.5521,1.6436,1.7107,1.7635,1.7678,1.8085,1.8586,1.8998,2.0191,2.1584,2.2493,2.3323,2.3975,2.3995,2.3178,2.2161,2.1921,2.1894,2.1968,2.1956,2.1788,2.1608,2.1576,2.1769,2.2112,2.2421,2.2463,2.2553,2.2727,2.1921,2.1106,2.1,2.0665,2.0296,2.0136,2.0407,2.038,1.957,1.9464,1.9005,1.776,1.7431,1.7081,1.6451,1.4699,1.3528,1.3222,1.5065,1.773,2.11,2.3733,2.6352,2.898,3.0004,3.0504,3.0541,3.1129,3.1315,3.1134,3.2112,3.2619,2.09,2.1265,2.128,2.0932,2.0896,2.0767,1.9998,0.0,0.0,0.0,0.0,0.0,0.0,0.0,0.0,0.0,0.0,0.0,0.0,0.0,0.0,0.0,0.0,0.0,0.0,0.0,0.0,0.0,0.0,1.9968,1.9216,1.8438,1.792,1.7686,1.7578,1.7363,1.6959,1.7154,1.7343,1.762,1.7516,1.758,1.7888,1.7513,1.7105,1.6758,0.0,0.0,1.5905,1.4799,1.5311,1.6867,1.6837,1.7316,1.8081,1.8262,1.8921,1.9814,2.0384,2.1808,2.3475,2.3942,2.457,2.5272,2.5439,2.4997,2.4367,2.408,2.3644,2.336,2.336,2.27,2.2261,2.3157,2.2897,2.2711,2.3972,2.4069,2.3984,2.4299,2.3844,2.3257,2.2842,2.2836,2.2759,2.2368,2.3499,2.419,2.3597,2.4018,2.3855,2.2638,2.182,2.1018,2.0452,2.0744,2.08,2.0389,1.9539,2.1694,2.7486,2.8194,2.9983,3.3265,3.3764,3.3885,3.3673,3.458,3.4491,3.3556,3.4043,3.4378,1.9593,2.0049,2.0592,2.1248,2.1224,2.1055,2.1043,0.0,0.0,0.0,0.0,0.0,0.0,0.0,0.0,0.0,0.0,0.0,0.0,0.0,0.0,0.0,0.0,0.0,0.0,0.0,0.0,0.0,0.0,1.9928,1.8941,1.8628,1.8354,1.8049,1.7977,1.7833,1.7762,1.7762,1.7652,1.7343,1.8021,1.8144,1.7952,1.8478,1.8229,1.7383,0.0,1.6321,1.6767,1.5848,1.6485,1.8082,1.8386,1.8802,1.9243,1.9692,2.0182,2.0894,2.2735,2.4187,2.5259,2.5632,2.5974,2.6351,2.6534,2.6191,2.5698,2.5952,2.4812,2.3537,2.3747,2.3834,2.378,2.3491,2.3751,2.4229,2.4777,2.4777,2.4896,2.5558,2.5555,2.5531,2.5802,2.6167,2.658,2.7003,2.7044,2.6736,2.5952,2.587,2.5279,2.3815,2.4167,2.4308,2.397,2.4924,2.6382,2.8207,2.6123,2.6787,3.1212,3.2581,3.3574,3.4268,3.4684,3.491,3.4921,3.4702,3.4432,3.4151,3.3574,3.3693,1.8823,1.9543,2.0232,2.0878,2.1247,2.1496,2.1577,0.0,0.0,0.0,0.0,0.0,0.0,0.0,0.0,0.0,0.0,0.0,0.0,0.0,0.0,0.0,0.0,0.0,0.0,0.0,0.0,0.0,0.0,0.0,2.0137,1.9718,1.9414,1.9472,1.9424,1.9462,1.9761,2.014,1.972,1.8753,1.964,2.0029,1.9989,2.0206,1.9941,1.9357,0.0,1.8019,1.829,1.7404,1.7906,1.9239,1.9797,2.0221,2.0533,2.1358,2.2067,2.2834,2.4367,2.5357,2.5911,2.6184,2.644,2.6653,2.6494,2.6068,2.5696,2.588,2.526,2.4546,2.4776,2.4754,2.4589,2.4172,2.4522,2.5109,2.5797,2.5937,2.6112,2.6903,2.6545,2.6184,2.6351,2.6335,2.6421,2.6764,2.7731,2.8318,2.7963,2.8842,2.9155,2.8217,2.8304,2.8357,2.8255,2.9163,3.0029,3.0754,3.0666,3.1538,3.3679,3.4496,3.4956,3.509,3.5274,3.5391,3.5418,3.5202,3.4826,3.429,3.3723,3.3462,1.8371,1.9282,2.019,2.0855,0.0,2.2185,2.1998,0.0,0.0,0.0,0.0,0.0,0.0,0.0,0.0,0.0,0.0,0.0,0.0,0.0,0.0,0.0,0.0,0.0,0.0,0.0,0.0,0.0,0.0,0.0,2.131,2.0723,2.0579,2.0957,2.0857,2.0999,2.1518,2.2219,2.185,2.0523,2.1397,2.1909,2.1919,2.1834,2.1543,2.1114,2.0151,1.98,1.9832,1.9145,1.9447,2.0425,2.1167,2.1713,2.2115,2.3041,2.3852,2.4483,2.5473,2.5982,2.6321,2.6529,2.6764,2.6979,2.666,2.6224,2.5857,2.5948,2.5811,2.5615,2.5572,2.5364,2.5186,2.5082,2.5305,2.5751,2.6644,2.6836,2.7093,2.7877,2.752,2.7102,2.7083,2.6982,2.69,2.6992,2.8579,2.9762,2.9729,3.1323,3.2299,3.1847,3.1481,3.1363,3.1668,3.2298,3.2509,3.2102,3.3742,3.4764,3.4928,3.5265,3.5485,3.5563,3.559,3.5588,3.5523,3.5357,3.4897,3.4148,3.3685,3.323,1.8129,1.9179,2.0324,2.1564,2.2728,0.0,2.2611,2.3415,0.0,0.0,0.0,0.0,0.0,0.0,0.0,0.0,0.0,0.0,0.0,0.0,0.0,0.0,0.0,0.0,0.0,0.0,0.0,0.0,0.0,0.0,2.1228,2.1333,2.1527,2.1886,2.1713,2.1667,2.1873,2.2857,2.3006,2.2397,2.2891,2.2952,2.265,2.275,2.2494,2.1877,2.1553,2.1342,2.1181,2.1049,2.1096,2.1401,2.2508,2.3384,2.4095,2.4731,2.5077,2.5275,2.5817,2.6348,2.6871,2.7095,2.7387,2.7672,2.7909,2.759,2.7191,2.7322,2.6994,2.6421,2.5615,2.561,2.5872,2.6059,2.6112,2.6267,2.6787,2.7138,2.7494,2.7998,2.8839,2.9457,2.9443,3.0102,3.0662,3.0785,3.1205,3.1444,3.128,3.2144,3.2594,3.2115,3.1881,3.2065,3.2822,3.327,3.3685,3.4072,3.5045,3.5256,3.4481,3.5174,3.5566,3.5507,3.5565,3.5509,3.5324,3.4628,3.4103,3.3726,3.2889,3.2674,1.7147,1.8701,2.0289,2.0534,0.0,0.0,0.0,0.0,0.0,0.0,0.0,0.0,0.0,0.0,0.0,0.0,0.0,0.0,0.0,0.0,0.0,0.0,0.0,0.0,0.0,0.0,0.0,0.0,0.0,0.0,2.3334,2.3659,2.3752,2.3536,2.3824,2.4138,2.432,2.4988,2.5176,2.4983,2.4681,2.4612,2.4706,2.4696,2.453,2.4204,2.4058,2.3871,2.3619,2.3167,2.3044,2.3163,2.3226,2.4126,2.5372,2.4864,2.5228,2.6099,2.6477,2.6964,2.7429,2.7561,2.7818,2.8049,2.7969,2.7764,2.7644,2.7824,2.7816,2.7558,2.6666,2.6717,2.702,2.716,2.7309,2.7511,2.8047,2.7997,2.81,2.8989,2.9194,2.9374,2.9928,3.0194,3.0399,3.0619,3.1183,3.1465,3.1188,3.1976,3.2385,3.196,3.203,3.2246,3.2599,3.2881,3.3132,3.3349,3.4294,3.4439,3.3577,3.3778,3.4135,3.462,3.4661,3.4793,3.5051,3.4863,3.4623,3.4301,3.3644,3.3059,1.6846,1.8508,2.0397,0.0,0.0,0.0,0.0,0.0,0.0,0.0,0.0,0.0,0.0,0.0,0.0,0.0,0.0,0.0,0.0,0.0,0.0,0.0,0.0,0.0,0.0,0.0,0.0,0.0,0.0,0.0,0.0,2.5068,2.5194,2.5204,2.5498,2.5798,2.6103,2.6421,2.6637,2.6745,2.6009,2.5855,2.6232,2.5929,2.5845,2.5816,2.5526,2.5346,2.5313,2.4878,2.4969,2.5361,2.4832,2.5499,2.6718,2.5951,2.6094,2.6737,2.7058,2.7469,2.7889,2.8045,2.8282,2.8457,2.8296,2.8261,2.8324,2.8487,2.8668,2.8691,2.8113,2.8012,2.8101,2.8275,2.8443,2.8639,2.9005,2.8687,2.8651,2.9687,2.9451,2.9371,3.0205,3.0261,3.0222,3.0348,3.0826,3.1073,3.0798,3.15,3.1853,3.1438,3.159,3.1737,3.1775,3.1948,3.2111,3.2195,3.2947,3.325,3.2954,3.316,3.3513,3.3964,3.4289,3.4576,3.4832,3.4775,3.4563,3.4236,3.3423,3.2528,1.7317,1.8745,2.055,0.0,0.0,0.0,0.0,0.0,0.0,0.0,0.0,0.0,0.0,0.0,0.0,0.0,0.0,0.0,0.0,0.0,0.0,0.0,0.0,0.0,0.0,0.0,0.0,0.0,0.0,0.0,0.0,2.5216,2.5681,2.6693,2.6472,2.6497,2.6806,2.6804,2.7034,2.75,2.6826,2.6659,2.6872,2.6205,2.6066,2.6266,2.5597,2.55,2.5847,2.5909,2.6743,2.7973,2.7634,2.7761,2.8141,2.8327,2.7877,2.7168,2.742,2.7824,2.8272,2.8524,2.876,2.8966,2.9148,2.9266,2.9344,2.9475,2.96,2.9723,2.9791,2.9401,2.9089,2.9344,2.946,2.9499,2.9516,2.9201,2.9152,2.9943,2.9779,2.9765,3.0563,3.0762,3.0739,3.0526,3.0508,3.0426,3.0224,3.0774,3.101,3.0552,3.049,3.0456,3.0386,3.0576,3.0753,3.0884,3.12,3.1804,3.2727,3.359,3.3929,3.3695,3.4647,3.5013,3.4674,3.4132,3.3679,3.3249,3.1846,3.0812,1.7135,1.877,0.0,0.0,0.0,0.0,0.0,0.0,0.0,0.0,0.0,0.0,0.0,0.0,0.0,0.0,0.0,0.0,0.0,0.0,0.0,0.0,0.0,0.0,0.0,0.0,0.0,0.0,0.0,0.0,0.0,2.6958,2.7202,2.6975,2.7525,2.7846,2.7775,2.7636,2.7782,2.8117,2.7589,2.74,2.7425,2.6642,2.6638,2.7135,2.6909,2.7061,2.7405,2.7396,2.7414,2.7538,2.7928,2.8097,2.8141,2.857,2.8604,2.8457,2.8572,2.8873,2.9193,2.9267,2.9439,2.9633,2.9788,2.9916,3.0023,3.0041,3.0125,3.0209,3.022,3.0095,2.9965,2.9913,2.9943,3.0017,3.0115,3.0079,3.0115,3.039,3.0424,3.0479,3.0661,3.0716,3.0687,3.0529,3.0496,3.0417,3.0169,2.9966,2.9853,2.9869,2.9655,2.9536,2.9536,2.9374,2.9296,2.9281,2.9344,2.9899,3.113,3.1205,3.1504,3.2148,3.249,3.2653,3.2655,3.2454,3.2029,3.1376,3.0629,2.9997,1.7566,1.9029,0.0,0.0,0.0,0.0,0.0,0.0,0.0,0.0,0.0,0.0,0.0,0.0,0.0,0.0,0.0,0.0,0.0,0.0,0.0,0.0,0.0,0.0,0.0,0.0,0.0,0.0,0.0,0.0,0.0,2.7861,2.8122,2.7947,2.8529,2.8745,2.8539,2.8483,2.8404,2.8322,2.7823,2.7692,2.7835,2.717,2.7178,2.7706,2.7748,2.7913,2.8182,2.8263,2.8248,2.8254,2.8655,2.8845,2.8894,2.9295,2.9363,2.9266,2.943,2.9649,2.9884,2.9909,3.0036,3.019,3.0274,3.0365,3.0424,3.0451,3.0466,3.0474,3.0469,3.049,3.0443,3.0296,3.0297,3.0364,3.0482,3.0266,3.0147,3.0529,3.036,3.0251,3.0533,3.0586,3.0547,3.0393,3.0318,3.016,2.9859,2.9476,2.9169,2.8993,2.8737,2.8522,2.8366,2.8129,2.7987,2.7978,2.7979,2.8497,2.9602,3.0013,3.0603,3.1398,3.1474,3.1548,3.1681,3.0832,3.03,3.0067,2.8979,2.8184,1.8293,0.0,0.0,0.0,0.0,0.0,0.0,0.0,0.0,0.0,0.0,0.0,0.0,0.0,0.0,0.0,0.0,0.0,0.0,0.0,0.0,0.0,0.0,0.0,0.0,0.0,0.0,0.0,0.0,0.0,0.0,2.8143,2.8701,2.9239,2.9435,2.9378,2.9042,2.9237,2.8959,2.8174,2.7688,2.7673,2.8113,2.7656,2.7657,2.804,2.8225,2.8345,2.8451,2.8691,2.915,2.9654,2.9751,2.988,3.0064,3.0339,3.0122,2.9746,3.0049,3.0227,3.0346,3.0402,3.0494,3.0613,3.0606,3.0603,3.0624,3.0681,3.0654,3.0597,3.0575,3.0586,3.0559,3.0494,3.0486,3.0529,3.0643,2.9997,2.9612,3.0385,2.9844,2.9485,3.0205,3.0312,3.0248,3.0103,2.9915,2.9662,2.9355,2.9188,2.8795,2.8047,2.7851,2.7601,2.7172,2.6963,2.6847,2.6894,2.6978,2.736,2.8102,2.947,3.048,3.0973,3.0875,3.0928,3.1114,2.924,2.8591,2.9039,2.7088,2.5874,1.7898,1.9745,0.0,0.0,0.0,0.0,0.0,0.0,0.0,0.0,0.0,0.0,0.0,0.0,0.0,0.0,0.0,0.0,0.0,0.0,0.0,0.0,0.0,0.0,0.0,0.0,0.0,0.0,0.0,0.0,2.8448,2.9104,2.9601,2.9821,3.0377,3.0211,2.9255,2.9394,2.8987,0.0,2.7782,2.7847,2.8233,2.7459,2.7592,2.8406,2.8759,2.9082,2.9401,2.9585,2.9784,3.0073,3.0801,3.0776,3.0406,3.1198,3.1051,3.0458,3.0548,3.0586,3.0607,3.0568,3.0619,3.0677,3.0687,3.0712,3.0738,3.0641,3.0605,3.0582,3.0468,3.0393,3.0367,3.0346,3.0346,3.0343,3.0376,3.0194,3.0017,3.0113,2.9914,2.9751,2.9693,2.9612,2.9455,2.9228,2.9018,2.8819,2.8627,2.8355,2.8094,2.7855,2.773,2.7525,2.7186,2.677,2.6421,2.6145,2.5837,2.5774,2.6097,2.6965,2.7861,2.8673,2.7711,2.7618,2.8383,2.7359,2.7086,2.7532,2.6007,2.5416,0.0,0.0,0.0,0.0,0.0,0.0,0.0,0.0,0.0,0.0,0.0,0.0,0.0,0.0,0.0,0.0,0.0,0.0,0.0,0.0,0.0,0.0,0.0,0.0,0.0,0.0,0.0,0.0,0.0,2.9778,2.9874,3.0252,3.0425,3.0359,3.0603,3.0207,2.9102,2.9194,2.8816,2.8058,2.8028,2.828,2.8735,2.8276,2.8384,2.9015,2.9363,2.9674,2.9958,3.008,3.0203,3.034,3.0837,3.0837,3.0595,3.1092,3.1061,3.0745,3.0755,3.0754,3.0751,3.0732,3.0762,3.0796,3.0806,3.0779,3.0741,3.0673,3.0606,3.0525,3.0424,3.0347,3.0276,3.0213,3.021,3.0205,3.0237,3.0164,3.008,3.0013,2.987,2.9706,2.9494,2.9247,2.904,2.8823,2.8722,2.8555,2.8286,2.8094,2.7809,2.7322,2.7155,2.6853,2.6318,2.5842,2.54,2.5051,2.4647,2.4638,2.5032,2.5022,2.5843,2.7637,2.6412,2.6214,2.7041,2.5734,2.5487,2.6189,2.4584,2.4021,0.0,0.0,0.0,0.0,0.0,0.0,0.0,0.0,0.0,0.0,0.0,0.0,0.0,0.0,0.0,0.0,0.0,0.0,0.0,0.0,0.0,0.0,0.0,0.0,0.0,0.0,0.0,0.0,0.0,3.0915,3.1247,3.125,3.1126,3.0871,3.0595,2.9951,2.8864,2.9006,2.8767,2.8147,2.8512,2.8909,2.9343,2.9382,2.9458,2.9606,2.9927,3.0122,3.026,3.0383,3.0481,3.0528,3.0528,3.0587,3.0704,3.0709,3.076,3.079,3.081,3.0819,3.0806,3.0873,3.0897,3.0898,3.0898,3.0808,3.0703,3.0689,3.0607,3.05,3.0385,3.0325,3.026,3.0099,3.0052,3.0042,3.0126,3.0018,2.9915,2.9893,2.9624,2.9359,2.9204,2.892,2.8634,2.8512,2.8474,2.834,2.8013,2.7883,2.7507,2.6706,2.6437,2.6033,2.5278,2.4791,2.4369,2.4021,2.3743,2.3818,2.4275,2.3645,2.4356,2.6663,2.5542,2.5339,2.6143,2.4385,2.4028,2.498,2.3328,2.2688,0.0,0.0,0.0,0.0,0.0,0.0,0.0,0.0,0.0,0.0,0.0,0.0,0.0,0.0,0.0,0.0,0.0,0.0,0.0,0.0,0.0,0.0,0.0,0.0,0.0,0.0,0.0,0.0,3.1291,3.1754,3.1631,3.151,3.1341,3.1073,3.0879,3.0077,2.8648,2.9467,2.9344,2.8377,2.9323,2.9817,2.9908,3.012,3.0132,2.9954,3.0164,3.0348,3.0472,3.0539,3.061,3.0676,3.0671,3.0685,3.0706,3.0765,3.079,3.081,3.0862,3.085,3.0816,3.0876,3.0898,3.0898,3.0898,3.0853,3.0757,3.065,3.0639,3.0591,3.0297,3.0216,3.0164,2.9969,2.9839,2.9786,2.9905,2.9753,2.9551,2.9474,2.9016,2.8601,2.8386,2.8027,2.776,2.7654,2.7487,2.7413,2.7491,2.7004,2.6539,2.6282,2.5924,2.5476,2.4895,2.4451,2.4021,2.3681,2.3579,2.3359,2.3063,2.3372,2.3758,2.4244,2.3458,2.3523,2.4415,2.355,2.3437,2.3882,2.2735,2.2372,1.8416,2.0854,2.3655,0.0,0.0,0.0,0.0,0.0,0.0,0.0,0.0,0.0,0.0,0.0,0.0,0.0,0.0,0.0,0.0,0.0,0.0,0.0,0.0,0.0,0.0,0.0,0.0,0.0,3.2332,3.2503,3.2099,3.1995,3.1562,3.0695,3.0498,2.996,2.901,2.9487,2.9589,2.93,2.9895,3.0186,3.0239,3.0419,3.0414,3.0241,3.0409,3.0492,3.0565,3.0639,3.0665,3.0704,3.0735,3.0754,3.0759,3.0786,3.0827,3.0862,3.0886,3.0871,3.0856,3.0897,3.0897,3.0898,3.0855,3.0774,3.0667,3.0567,3.0509,3.0422,3.0253,3.018,3.0099,2.9943,2.979,2.9701,2.9738,2.9589,2.9412,2.931,2.898,2.8669,2.8518,2.8228,2.795,2.7719,2.7582,2.7461,2.7261,2.6825,2.6453,2.612,2.5647,2.5114,2.4574,2.4219,2.3932,2.3716,2.3497,2.3498,2.3765,2.374,2.4001,2.4473,2.3619,2.3482,2.4083,2.338,2.3098,2.3229,2.2027,2.1616,1.9548,2.0887,2.2205,2.5358,0.0,0.0,0.0,0.0,0.0,0.0,0.0,0.0,0.0,0.0,0.0,0.0,0.0,0.0,0.0,0.0,0.0,0.0,0.0,0.0,0.0,0.0,0.0,0.0,3.2805,3.2773,3.2235,3.2034,3.1457,3.0409,3.019,2.9867,2.9419,2.963,2.9876,3.0158,3.0335,3.0455,3.0503,3.0614,3.0594,3.049,3.0579,3.0637,3.0652,3.0691,3.0724,3.0735,3.0777,3.0806,3.0801,3.0804,3.0813,3.0859,3.0859,3.0859,3.0859,3.0879,3.0879,3.0878,3.0825,3.0728,3.0613,3.0513,3.0433,3.0348,3.024,3.0152,3.0094,2.9943,2.979,2.9683,2.9569,2.9471,2.9351,2.9222,2.9003,2.8773,2.8644,2.8414,2.8119,2.7789,2.7701,2.7582,2.723,2.6858,2.6453,2.5994,2.5443,2.4942,2.4464,2.4073,2.3881,2.3989,2.3595,2.3654,2.4339,2.4204,2.4334,2.4821,2.4153,2.3927,2.4002,2.3305,2.2823,2.2555,2.1451,2.0955,1.9355,2.0357,0.0,2.4202,0.0,0.0,0.0,0.0,0.0,0.0,0.0,0.0,0.0,0.0,0.0,0.0,0.0,0.0,0.0,0.0,0.0,0.0,0.0,0.0,0.0,0.0,0.0,0.0,3.2264,3.2195,3.1676,3.1169,3.0786,3.0592,3.0198,2.9905,2.968,3.0136,3.044,3.0568,3.0708,3.0771,3.0788,3.0796,3.0755,3.0687,3.0687,3.0732,3.0796,3.0792,3.0796,3.0798,3.0801,3.08,3.0798,3.0795,3.0765,3.0707,3.0707,3.0719,3.0716,3.0777,3.0816,3.0804,3.0796,3.0751,3.067,3.054,3.0543,3.0537,3.0279,3.0203,3.0132,2.995,2.9805,2.9645,2.945,2.939,2.9351,2.9222,2.8897,2.8572,2.8448,2.8101,2.7789,2.763,2.7496,2.7404,2.7404,2.6825,2.6262,2.5855,2.5275,2.4864,2.4805,2.3911,2.367,2.4494,2.3946,2.3736,2.4096,2.4386,2.4509,2.435,2.4465,2.4337,2.38,2.3352,2.2628,2.1678,2.1146,2.0635,1.8342,1.8822,0.0,0.0,0.0,0.0,0.0,0.0,0.0,0.0,0.0,0.0,0.0,0.0,0.0,0.0,0.0,0.0,0.0,0.0,0.0,0.0,0.0,0.0,0.0,0.0,0.0,0.0,0.0,3.1469,3.0265,3.0735,3.082,3.03,3.0259,3.0312,3.0412,3.0562,3.0676,3.0735,3.0788,3.0796,3.08,3.084,3.082,3.076,3.076,3.078,3.0804,3.08,3.0801,3.0799,3.0797,3.0795,3.0798,3.0797,3.0771,3.0755,3.0755,3.0765,3.0755,3.0739,3.0735,3.0724,3.0681,3.0614,3.0548,3.0452,3.0386,3.0328,3.0221,3.0196,3.0177,3.0112,2.9908,2.9715,2.957,2.9375,2.9267,2.931,2.903,2.8797,2.8785,2.8492,2.8156,2.794,2.7777,2.7552,2.7293,2.6858,2.6487,2.6156,2.5572,2.5338,2.5539,2.49,2.4852,2.5703,2.5207,2.5029,2.538,2.5329,2.5328,2.5328,2.5118,2.4708,2.4105,2.3543,2.2884,2.2125,2.1388,2.0839,1.7763,1.786,0.0,0.0,0.0,0.0,0.0,0.0,0.0,0.0,0.0,0.0,0.0,0.0,0.0,0.0,0.0,0.0,0.0,0.0,0.0,0.0,0.0,0.0,0.0,0.0,0.0,0.0,0.0,0.0,2.9664,3.0397,3.0686,3.0271,3.0424,3.0598,3.0806,3.0804,3.0804,3.0838,3.0839,3.082,3.0793,3.0852,3.0845,3.0794,3.0794,3.0793,3.08,3.0796,3.0793,3.0798,3.0774,3.0768,3.076,3.0777,3.0762,3.0763,3.0763,3.075,3.073,3.0716,3.0686,3.0658,3.0605,3.0571,3.0519,3.0458,3.0379,3.0299,3.0267,3.0248,3.0234,3.0227,3.007,2.9861,2.9712,2.9455,2.9262,2.9289,2.9071,2.8905,2.8858,2.8637,2.8353,2.8099,2.7882,2.7612,2.7324,2.6923,2.659,2.633,2.595,2.5847,2.6146,2.561,2.5665,2.6515,2.5806,2.5564,2.6028,2.5674,2.5508,2.5674,2.5286,2.4935,2.4478,2.391,2.3245,2.2445,2.1702,2.1019,0.0,0.0,0.0,0.0,0.0,0.0,0.0,0.0,0.0,0.0,0.0,0.0,0.0,0.0,0.0,0.0,0.0,0.0,0.0,0.0,0.0,0.0,0.0,0.0,0.0,0.0,0.0,0.0,3.0771,3.0672,3.0007,3.0114,3.0325,3.0595,3.0678,3.0726,3.0801,3.0808,3.0835,3.0898,3.0898,3.0853,3.0801,3.0801,3.0794,3.0798,3.0798,3.0804,3.0791,3.0801,3.079,3.0798,3.0739,3.0703,3.0697,3.0704,3.0703,3.07,3.07,3.0665,3.0618,3.0671,3.0642,3.0604,3.0607,3.0591,3.0586,3.053,3.0501,3.0492,3.0423,3.037,3.0314,3.0309,3.0209,3.0051,2.9848,2.9532,2.9259,2.913,2.8998,2.8834,2.8637,2.8432,2.8219,2.8025,2.7766,2.7557,2.7434,2.7006,2.664,2.6399,2.6336,2.6411,2.658,2.6032,2.6057,2.6975,2.5712,2.5233,2.5865,2.5342,2.5061,2.523,2.5118,2.4948,2.4778,2.4305,2.359,2.258,2.1939,2.1112,1.7999,0.0,0.0,0.0,0.0,0.0,0.0,0.0,0.0,0.0,0.0,0.0,0.0,0.0,0.0,0.0,0.0,0.0,0.0,0.0,0.0,0.0,0.0,0.0,0.0,0.0,0.0,0.0,2.9853,3.0041,2.9308,3.0051,3.0557,3.0678,3.073,3.0781,3.0808,3.0853,3.0878,3.0897,3.0897,3.0853,3.0801,3.0801,3.0796,3.0807,3.0801,3.079,3.0798,3.0793,3.0808,3.0784,3.0734,3.0703,3.0703,3.0691,3.0698,3.0697,3.071,3.0688,3.0665,3.064,3.064,3.0657,3.0565,3.0557,3.0595,3.0519,3.0463,3.0462,3.0519,3.0492,3.0472,3.0565,3.029,2.9999,2.9886,2.9533,2.9218,2.9178,2.8952,2.8743,2.8669,2.8432,2.8182,2.8025,2.7806,2.76,2.7434,2.7198,2.7161,2.7504,2.7334,2.7553,2.8452,2.7703,2.7396,2.7917,2.6843,2.6179,2.6056,2.5729,2.5508,2.5564,2.5508,2.5397,2.5118,2.4421,2.3767,2.3173,2.2396,2.16,1.862,0.0,0.0,0.0,0.0,0.0,0.0,2.0073,0.0,0.0,0.0,0.0,0.0,0.0,0.0,0.0,0.0,0.0,0.0,0.0,0.0,0.0,0.0,0.0,0.0,3.0145,2.9908,2.9209,2.9789,3.0024,2.9696,3.0296,3.0664,3.0742,3.0782,3.0813,3.0849,3.0874,3.0898,3.0897,3.0897,3.0853,3.0801,3.0806,3.0806,3.0801,3.0804,3.0796,3.079,3.0806,3.0769,3.0745,3.0722,3.0691,3.071,3.0704,3.0698,3.0704,3.0703,3.068,3.0649,3.0651,3.0632,3.0621,3.0565,3.0591,3.0626,3.0552,3.0535,3.0546,3.0614,3.0607,3.0582,3.0571,3.0374,3.01,2.987,2.9606,2.9373,2.92,2.8952,2.8785,2.8694,2.8484,2.8273,2.8136,2.7922,2.7701,2.7569,2.7324,2.7306,2.7621,2.7767,2.8042,2.8584,2.8259,2.7983,2.7913,2.7034,2.6379,2.6002,2.5784,2.5674,2.5633,2.5674,2.5619,2.5397,2.4765,2.406,2.3245,2.2653,2.2049,1.9593,1.8389,0.0,0.0,0.0,0.0,1.9335,1.9669,1.9987,0.0,0.0,0.0,0.0,0.0,0.0,0.0,0.0,0.0,0.0,0.0,0.0,0.0,0.0,0.0,3.0239,2.9982,2.9893,3.0068,3.0247,3.0409,3.0595,3.0661,3.0724,3.0799,3.0798,3.0838,3.0909,3.0892,3.0897,3.0898,3.0897,3.0855,3.0806,3.0793,3.0795,3.0795,3.08,3.0799,3.0804,3.0796,3.0767,3.0703,3.0704,3.0698,3.0691,3.0697,3.069,3.0703,3.068,3.0649,3.0604,3.0665,3.0621,3.0528,3.0587,3.0651,3.0691,3.0644,3.0658,3.0698,3.0717,3.0697,3.0614,3.0434,3.0364,3.0227,2.9796,2.9696,2.957,2.9203,2.9021,2.8881,2.8718,2.8594,2.8484,2.8327,2.8063,2.7847,2.7847,2.7461,2.725,2.7454,2.8022,2.8312,2.8005,2.8286,2.8174,2.7539,2.6803,2.6218,2.5948,2.5784,2.5633,2.555,2.5688,2.5784,2.5784,2.523,2.4363,2.3245,2.2896,2.2469,2.0312,1.92,1.8507,1.859,0.0,0.0,1.8012,1.8482,1.9435,0.0,0.0,0.0,0.0,0.0,0.0,0.0,0.0,0.0,0.0,0.0,0.0,0.0,0.0,0.0,2.9437,2.9683,2.9874,3.0079,3.0316,3.0511,3.0593,3.0656,3.0736,3.0799,3.0798,3.0821,3.0894,3.0896,3.0898,3.0897,3.0855,3.0817,3.0801,3.0796,3.0798,3.08,3.08,3.0801,3.0797,3.079,3.0781,3.0778,3.0722,3.0704,3.0691,3.0697,3.0703,3.068,3.0649,3.0604,3.0604,3.0632,3.0637,3.0656,3.0678,3.073,3.0773,3.0767,3.0722,3.0716,3.0773,3.0618,3.0443,3.0414,3.0177,2.9954,2.9799,2.9662,2.9493,2.9372,2.916,2.8934,2.881,2.8662,2.8536,2.8406,2.8273,2.8146,2.8053,2.7911,2.818,2.902,2.9128,2.9323,2.9898,2.9588,2.9012,2.8158,2.7363,2.6669,2.6111,2.5839,2.5674,2.5688,2.5974,2.619,2.619,2.5272,2.4593,2.406,2.3806,2.3343,2.0729,1.9479,1.8788,1.862,0.0,0.0,0.0,1.7928,1.8379,1.9356,2.0082,0.0,0.0,0.0,0.0,0.0,0.0,0.0,0.0,0.0,0.0,0.0,0.0,0.0,2.9299,2.9324,2.9516,3.0202,3.0398,3.052,3.0602,3.0651,3.0728,3.0808,3.0801,3.0813,3.0855,3.0843,3.0825,3.0808,3.0365,3.0152,3.0147,3.0152,3.0149,3.0179,3.0618,3.0804,3.0799,3.08,3.0804,3.0806,3.075,3.0722,3.0704,3.0704,3.0703,3.0692,3.0613,3.0593,3.0618,3.0634,3.0671,3.0704,3.0734,3.0764,3.0808,3.0799,3.0769,3.0728,3.0716,3.0603,3.0472,3.0287,3.0131,2.9946,2.9803,2.9662,2.957,2.9492,2.9372,2.9243,2.9044,2.8929,2.881,2.8687,2.8853,2.8973,2.8854,2.8976,2.9268,2.9804,2.9817,2.9864,3.0002,2.974,2.9225,2.8352,2.7665,2.7071,2.651,2.6244,2.615,2.6233,2.6486,2.6698,2.6736,2.6028,2.5314,2.465,2.4319,2.3852,0.0,0.0,0.0,0.0,0.0,1.8195,0.0,0.0,0.0,1.7648,0.0,0.0,0.0,0.0,0.0,0.0,0.0,0.0,0.0,0.0,0.0,0.0,0.0,0.0,2.865,2.8435,2.8765,3.0059,3.0065,3.0104,3.0358,3.0587,3.072,3.0802,3.0804,3.081,3.0817,3.081,3.0768,3.0708,3.0063,2.9734,2.9731,2.9721,2.9721,2.9764,3.0477,3.0794,3.0792,3.0801,3.0793,3.0796,3.0789,3.0753,3.0691,3.0697,3.0688,3.0676,3.0621,3.061,3.0622,3.0691,3.0716,3.072,3.0774,3.0793,3.0799,3.0798,3.0808,3.0764,3.0659,3.0603,3.0501,3.0209,3.0114,3.0034,2.9805,2.9753,2.9717,2.9664,2.9776,2.9756,2.9304,2.9178,2.9163,2.9177,2.9519,2.9809,2.9836,3.0136,3.0309,3.0264,3.0352,3.0245,2.9765,2.9779,2.9406,2.8543,2.7997,2.7515,2.7056,2.6759,2.6683,2.6846,2.7003,2.7144,2.7233,2.6841,2.619,2.5216,2.4808,2.435,0.0,0.0,0.0,0.0,2.0873,0.0,0.0,0.0,1.7471,1.7302,0.0,0.0,0.0,0.0,0.0,0.0,0.0,0.0,0.0,0.0,0.0,0.0,0.0,0.0,0.0,2.6314,2.726,2.9118,2.8587,2.8588,2.9489,3.029,3.072,3.0802,3.0807,3.0825,3.0895,3.0839,3.08,3.0793,3.0702,3.0616,3.056,3.0552,3.0563,3.0563,3.0677,3.0745,3.08,3.0798,3.0792,3.0796,3.0735,3.071,3.0691,3.0695,3.0668,3.0616,3.0599,3.0591,3.061,3.0671,3.0735,3.0798,3.0794,3.0794,3.0794,3.0798,3.0806,3.0789,3.0709,3.0548,3.0394,3.0306,3.0202,3.0087,2.9991,2.9924,2.9874,2.9878,3.0448,3.0603,2.9563,2.9307,2.9459,3.0047,3.0094,3.0225,3.0703,3.0782,3.0826,3.0817,3.082,3.0759,3.059,3.046,3.0027,2.9243,2.8795,2.8304,2.763,2.7108,2.6878,2.7003,2.7211,2.735,2.7401,2.7335,2.6893,2.6136,2.5425,2.4948,0.0,0.0,0.0,0.0,0.0,0.0,1.9484,0.0,1.6563,0.0,0.0,0.0,0.0,0.0,0.0,0.0,0.0,0.0,0.0,0.0,0.0,0.0,0.0,0.0,0.0,0.0,0.0,0.0,2.7122,2.7679,2.8598,2.9989,3.1008,3.1542,3.2046,3.2329,3.2356,3.2319,3.2045,3.1489,3.0989,3.0474,3.0001,2.9991,3.0001,3.003,3.05,3.074,3.0799,3.0765,3.0757,3.0796,3.0725,3.0716,3.0742,3.0717,3.0688,3.0653,3.0622,3.0658,3.0722,3.0754,3.0774,3.0801,3.0804,3.0807,3.0807,3.0796,3.0794,3.0781,3.073,3.0614,3.0488,3.0383,3.0321,3.026,3.0188,3.0128,3.0204,3.062,3.0858,3.096,3.0915,3.0889,3.0913,3.109,3.1366,3.1561,3.1534,3.1822,3.1929,3.1776,3.1568,3.131,3.1083,3.0878,3.0551,2.9924,2.9348,2.8716,2.7894,2.7745,2.761,2.7452,2.774,2.7855,2.7755,2.7655,2.7423,2.7034,2.615,2.5495,3.0268,0.0,0.0,0.0,0.0,0.0,0.0,0.0,0.0,0.0,0.0,0.0,0.0,0.0,0.0,0.0,0.0,0.0,0.0,0.0,0.0,0.0,0.0,0.0,0.0,0.0,0.0,0.0,0.0,2.6327,2.7698,2.9708,3.109,3.1714,3.2812,3.3402,3.3406,3.3406,3.3051,3.2377,3.1502,3.078,3.0208,2.9979,2.9855,2.9882,3.0469,3.0759,3.0808,3.0742,3.0755,3.0804,3.076,3.075,3.0784,3.0717,3.0697,3.0672,3.0646,3.07,3.0801,3.0796,3.0801,3.0801,3.0808,3.0808,3.0808,3.0795,3.0813,3.0804,3.0719,3.0658,3.0594,3.0479,3.0637,3.079,3.0725,3.0797,3.1033,3.156,3.1612,3.1729,3.2227,3.2086,3.192,3.1959,3.2298,3.2502,3.2365,3.2629,3.2734,3.2405,3.209,3.1709,3.1312,3.1095,3.0757,3.0225,2.9677,2.9059,2.8204,2.8268,2.822,2.794,2.8186,2.8235,2.8054,2.7955,2.784,2.7675,2.663,2.592,0.0,0.0,0.0,2.9471,0.0,0.0,0.0,0.0,1.8617,0.0,0.0,0.0,0.0,0.0,0.0,0.0,0.0,0.0,0.0,0.0,0.0,0.0,0.0,0.0,0.0,0.0,0.0,0.0,0.0,0.0,2.6801,2.9382,3.0804,3.0838,3.2519,3.3402,3.3393,3.3394,3.3372,3.3336,3.2465,3.2043,3.1997,3.1141,3.076,3.076,3.08,3.0799,3.0808,3.081,3.0806,3.0808,3.0801,3.0794,3.0791,3.0724,3.0664,3.0601,3.0672,3.0742,3.079,3.0795,3.0796,3.0798,3.0801,3.08,3.0801,3.08,3.0859,3.0875,3.0721,3.0707,3.0685,3.0619,3.1248,3.1841,3.1766,3.222,3.2603,3.2562,3.2902,3.3208,3.3153,3.2317,3.1844,3.2562,3.2509,3.2629,3.3178,3.3117,3.2816,3.2352,3.2179,3.1856,3.1269,3.1072,3.0675,2.9897,2.971,2.9396,2.8685,2.8685,2.8558,2.8186,2.8429,2.8477,2.8186,2.8186,2.8103,2.7955,2.6826,2.6204,0.0,0.0,3.4932,3.2535,0.0,0.0,0.0,0.0,0.0,0.0,0.0,0.0,0.0,0.0,0.0,0.0,0.0,0.0,0.0,0.0,0.0,0.0,0.0,0.0,0.0,0.0,0.0,0.0,2.2292,0.0,0.0,2.7717,2.9929,3.161,3.2792,3.3922,3.5034,3.5042,3.4769,3.4195,3.3932,3.3211,3.209,3.1784,3.1345,3.08,3.0796,3.0799,3.0806,3.0794,3.0794,3.081,3.0791,3.0765,3.0732,3.0712,3.0703,3.0733,3.076,3.0781,3.0801,3.08,3.0799,3.0798,3.081,3.0808,3.0792,3.0806,3.0813,3.0954,3.1484,3.1637,3.1755,3.2267,3.2615,3.2809,3.2744,3.2841,3.3076,3.3437,3.3427,3.3477,3.3859,3.3445,3.3169,3.3522,3.343,3.3351,3.3375,3.3165,3.288,3.2521,3.2301,3.2037,3.1691,3.1389,3.0942,3.0284,3.0156,2.9853,2.9243,2.9152,2.8967,2.8685,2.8842,2.8763,2.8477,2.8477,2.8235,2.784,2.7071,2.6496,3.9175,3.8646,0.0,3.4284,3.2601,0.0,2.7878,0.0,0.0,0.0,0.0,0.0,0.0,0.0,0.0,0.0,0.0,0.0,0.0,0.0,0.0,0.0,0.0,0.0,0.0,0.0,1.8174,1.9407,2.0817,0.0,0.0,0.0,2.9488,3.1111,3.3229,3.4836,3.5926,3.5946,3.5653,3.509,3.4515,3.3641,3.2549,3.1929,3.1327,3.08,3.0796,3.0808,3.0796,3.0796,3.0799,3.0804,3.0793,3.0761,3.0701,3.0698,3.0722,3.0753,3.0757,3.0757,3.076,3.0768,3.0771,3.0794,3.0774,3.0785,3.0796,3.0794,3.0799,3.1003,3.1864,3.2109,3.2302,3.3135,3.3571,3.3778,3.3706,3.3832,3.403,3.4328,3.4089,3.393,3.4204,3.4049,3.3868,3.3895,3.378,3.3615,3.3422,3.3196,3.2961,3.2722,3.2456,3.2179,3.1821,3.1466,3.1078,3.0617,3.0518,3.0267,2.9782,2.9621,2.9425,2.909,2.9213,2.9091,2.8763,2.8668,2.8429,2.7989,2.7069,2.641]}]]